GFSSW_sfc_temp_000.txt.gz
Temp
63 63 62 63 63 63 63 63 63 63 63 63 63 62 62 62 62 73 84 91 92 79 82 97 96 97 99 95 99 100 81 60 65 67 84 94 94 100 98 76 75 82 86 93 94
62 62 62 62 63 63 62 62 62 63 63 63 62 62 62 62 73 82 89 81 79 80 92 93 91 95 92 94 96 92 70 64 82 86 93 98 96 98 81 70 67 79 86 93 93
62 62 62 62 62 62 62 62 62 62 62 62 62 62 62 65 79 94 80 80 78 83 98 99 99 96 90 96 95 94 71 76 82 98 99 97 97 100 81 76 78 73 81 89 91
61 61 61 61 62 62 62 62 61 61 62 61 62 62 62 74 82 93 80 80 79 95 97 98 96 91 88 89 97 89 96 87 98 99 98 96 100 97 98 82 88 85 86 86 90
60 60 61 61 61 61 61 61 60 60 60 61 62 62 67 82 91 88 80 82 92 94 94 94 92 91 87 92 95 92 95 98 100 99 99 100 96 95 94 90 90 91 85 89 92
60 60 60 60 60 60 60 60 60 60 61 62 62 61 75 83 102 95 97 93 96 95 96 98 95 98 93 94 92 97 97 96 98 98 99 96 91 92 92 98 97 95 93 94 93
59 59 59 60 60 60 60 59 59 60 62 62 62 72 83 90 105 101 99 98 101 99 96 101 102 97 97 91 99 97 90 94 95 97 96 98 83 81 87 91 95 95 95 95 94
59 59 59 59 59 59 59 58 59 62 61 61 62 76 84 104 106 102 102 101 105 104 103 104 103 97 94 98 95 90 91 81 93 96 97 95 77 79 93 91 93 95 95 94 94
58 58 58 58 58 58 58 58 59 62 62 64 70 78 87 89 96 103 104 99 100 101 101 104 98 91 94 87 83 87 78 82 69 76 94 92 82 88 92 88 92 94 94 94 93
58 58 57 57 57 57 56 59 60 63 66 79 83 82 92 92 100 101 105 103 96 96 93 91 90 85 87 84 73 80 80 74 62 73 92 89 88 89 94 96 94 94 93 93 92
57 57 57 56 56 56 65 85 79 77 81 86 90 91 95 101 103 99 102 98 96 91 82 87 81 78 84 88 88 87 85 83 68 81 89 86 87 91 94 91 94 93 92 91 93
57 57 56 56 56 56 64 85 87 89 78 92 95 96 101 101 90 95 102 89 87 80 86 84 77 87 91 91 88 87 83 82 88 93 89 86 85 89 77 67 74 86 92 93 93
56 56 55 55 55 69 88 91 96 95 79 87 96 95 97 99 91 92 96 92 86 82 84 80 87 92 88 87 84 84 82 82 83 89 91 86 81 85 72 72 78 90 95 96 94
56 56 55 52 67 86 88 94 97 95 72 82 89 93 98 97 88 101 99 93 88 82 85 85 91 89 85 83 86 78 89 87 85 82 74 88 71 82 74 74 82 83 94 95 95
56 55 54 53 72 82 91 97 97 90 58 89 90 103 98 89 94 92 101 93 83 85 86 82 86 85 83 85 89 82 92 87 85 81 79 80 75 72 81 74 76 77 84 95 94
55 55 53 74 72 85 95 95 90 68 58 83 89 86 87 89 92 95 94 96 94 87 89 87 96 92 89 92 91 92 87 85 83 80 68 76 76 69 64 73 74 82 93 93 87
55 54 55 74 80 91 92 85 67 61 85 81 83 87 85 84 86 89 85 82 77 73 74 84 85 92 92 85 91 87 79 67 65 66 65 79 76 74 84 83 84 87 91 89 85
54 53 63 76 88 91 85 73 58 74 76 89 87 88 82 87 86 86 83 78 84 83 79 74 72 85 92 86 83 83 79 69 59 62 65 67 66 73 88 91 92 93 92 89 83
52 79 79 81 82 85 75 62 65 73 83 83 86 78 80 85 86 85 81 80 84 85 75 76 77 93 92 92 89 82 75 85 73 76 69 63 75 83 89 87 88 89 92 88 85
64 74 81 91 90 81 69 60 74 83 86 84 75 80 75 81 82 82 81 87 85 90 91 83 73 88 91 93 91 85 89 73 75 60 59 69 71 70 74 72 84 86 89 88 85
68 73 89 93 88 75 63 68 76 84 85 79 77 76 80 80 83 81 82 88 91 90 92 88 80 80 88 83 80 82 79 81 81 76 65 63 61 74 69 74 74 86 89 89 85
72 67 89 91 70 72 67 73 71 82 87 82 81 79 78 82 80 80 80 86 95 93 85 88 82 73 79 89 91 88 82 81 71 67 74 72 61 81 70 69 75 82 88 89 87
66 74 89 86 64 68 74 75 80 80 81 80 78 81 83 78 73 80 83 92 94 91 85 88 78 69 72 83 87 82 85 84 81 77 69 67 70 82 71 69 83 86 87 87 82
66 67 77 79 77 71 71 73 74 83 82 82 81 82 79 76 81 76 80 89 91 91 76 83 78 73 70 74 78 77 82 84 81 72 73 74 68 73 71 71 66 81 87 83 81
68 68 75 68 72 72 72 73 73 74 81 81 76 79 78 72 75 75 81 85 89 79 86 84 72 78 80 83 83 82 82 83 79 80 74 76 74 68 66 69 69 67 83 81 79
64 64 69 67 69 68 65 69 71 76 77 75 73 79 80 74 76 74 80 80 79 86 82 84 72 76 74 82 83 79 83 83 83 83 82 83 62 69 67 70 69 70 78 79 79
68 70 66 60 66 66 69 71 73 76 79 82 80 78 76 80 85 87 89 86 85 81 79 77 75 71 67 78 79 72 80 81 83 86 84 73 67 67 68 69 66 75 78 79 78

GFSSW_sfc_temp_003.txt.gz
Temp
63 62 62 62 62 63 62 62 62 63 63 62 63 62 62 62 61 66 74 86 85 78 80 90 90 89 89 84 89 89 65 61 68 71 75 87 82 84 91 82 86 83 80 84 87
62 62 62 62 62 62 62 62 62 62 62 62 62 62 62 62 66 74 85 82 79 79 88 87 86 88 79 82 83 76 61 67 79 81 81 85 87 84 82 77 77 79 85 88 87
61 61 61 62 62 62 62 61 61 61 61 62 61 62 62 62 70 86 82 80 79 80 92 93 92 89 80 82 83 81 70 80 83 85 87 81 87 84 81 75 75 74 81 85 85
61 61 61 61 61 62 61 61 61 61 61 61 61 62 62 65 73 88 80 78 78 87 89 90 88 79 76 76 87 78 88 87 86 87 87 87 88 81 87 83 88 83 83 85 84
60 60 60 61 61 61 61 61 60 60 61 61 61 62 61 68 81 84 80 80 85 86 87 86 83 80 76 81 85 83 87 91 91 90 90 93 87 87 86 90 90 87 85 84 84
60 59 60 60 60 60 60 60 60 59 61 62 62 61 64 72 91 86 87 84 89 86 86 87 86 88 82 82 81 87 89 89 88 91 92 87 85 85 84 89 88 86 82 81 84
59 59 59 59 60 60 60 59 59 59 61 62 61 66 73 79 94 89 86 84 90 88 86 92 93 84 85 80 89 88 80 85 84 86 86 88 77 79 86 85 84 84 83 82 83
59 59 59 59 59 59 59 58 59 59 62 61 61 65 68 96 92 95 88 89 92 91 91 94 94 86 82 87 85 80 77 66 80 83 85 81 70 80 83 85 82 85 86 85 82
58 58 58 58 58 58 57 58 59 60 62 63 61 63 73 89 91 94 93 90 92 93 90 100 90 80 81 73 68 71 61 66 71 85 82 77 72 83 85 84 81 76 86 85 82
58 57 57 57 57 57 56 59 61 60 62 71 75 68 80 86 93 95 95 97 90 88 87 83 77 70 70 65 57 66 66 67 66 78 81 77 74 82 81 77 72 68 65 72 82
57 57 57 57 57 56 57 64 65 66 65 72 75 81 91 95 99 93 95 92 89 82 70 77 65 61 69 75 78 78 75 71 73 82 77 73 73 81 81 79 74 64 64 64 83
57 57 56 56 56 57 54 68 75 76 66 82 86 87 93 95 87 91 95 82 79 70 76 70 63 75 83 84 80 77 73 71 77 79 74 73 75 74 76 73 77 67 65 67 75
56 56 55 55 55 60 74 78 85 81 65 77 85 85 87 90 86 85 89 85 77 72 73 67 74 85 82 79 77 73 69 72 72 80 78 76 69 66 71 72 78 75 75 72 71
56 56 55 52 61 71 75 85 85 83 56 71 78 86 90 89 82 96 93 86 79 74 76 73 83 82 79 78 77 64 80 81 79 70 60 72 54 61 63 67 72 73 72 72 74
56 55 54 52 59 67 78 84 83 75 46 83 83 96 89 84 84 87 95 86 76 77 75 71 78 77 76 78 82 72 82 78 77 67 62 67 57 59 65 64 69 71 70 72 76
56 55 54 62 59 70 80 82 75 55 48 77 84 81 78 81 85 88 87 88 87 79 79 79 88 84 81 85 84 85 78 72 69 63 51 61 59 55 61 67 68 73 73 75 75
55 54 52 64 64 75 77 71 52 49 76 74 74 79 76 76 79 82 78 74 67 60 62 74 78 84 86 76 79 77 61 50 48 49 49 61 60 57 70 74 75 74 75 78 78
54 53 57 64 71 75 70 57 45 66 67 79 79 79 73 78 78 80 75 70 75 72 64 61 60 77 85 76 71 69 64 52 44 46 54 63 56 57 65 79 79 80 78 76 72
53 64 66 69 69 68 60 48 54 64 76 76 77 71 71 79 78 77 74 72 76 74 62 60 65 85 87 85 79 69 59 69 57 56 53 55 60 70 72 78 79 76 76 73 75
52 61 68 79 77 67 55 51 62 75 77 76 66 71 66 72 71 70 71 79 78 83 79 70 60 76 86 86 81 73 74 58 56 46 44 53 55 54 62 68 75 76 74 74 76
55 61 76 83 77 61 51 57 68 76 78 72 69 68 69 69 71 71 72 80 84 83 82 76 64 69 76 70 70 68 63 61 60 56 48 48 54 62 64 65 68 71 77 73 73
60 56 80 83 59 59 56 64 63 72 77 75 75 71 68 70 67 69 72 78 87 86 75 77 65 58 67 80 83 76 69 64 54 54 55 57 57 72 66 69 68 68 68 72 72
53 62 80 79 54 58 63 68 71 71 72 73 72 74 73 67 60 69 74 85 87 82 72 68 61 53 59 67 73 70 73 68 63 59 54 51 53 67 65 65 68 69 68 68 71
55 56 66 70 68 62 60 63 66 77 74 77 74 73 68 65 67 65 72 83 86 79 73 74 63 59 56 61 68 67 73 73 63 54 56 58 59 60 62 63 62 65 66 66 72
58 58 61 56 61 61 62 64 63 64 74 76 68 70 67 58 62 64 72 75 82 76 75 70 58 60 67 73 77 76 75 77 67 65 59 62 64 64 62 61 61 66 61 66 71
55 54 59 57 60 60 59 60 64 68 69 68 66 72 71 60 64 63 68 64 65 74 66 69 59 61 62 74 75 74 77 77 79 76 70 67 58 66 66 68 65 63 63 58 68
59 59 55 54 57 58 60 63 67 69 72 75 73 70 68 71 73 72 72 71 68 63 64 63 60 57 53 67 69 61 70 73 71 72 68 62 63 64 65 67 65 67 67 72 71

GFSSW_sfc_temp_006.txt.gz
Temp
62 62 62 62 62 62 62 62 62 62 62 62 61 62 62 61 61 63 69 82 81 78 79 85 83 84 82 78 84 82 62 58 64 68 75 81 78 83 87 80 82 81 78 81 84
61 61 62 62 62 62 62 62 62 61 61 61 61 62 62 61 63 68 80 81 79 77 84 83 80 81 73 76 78 71 59 65 76 79 77 84 82 82 80 76 75 77 81 85 83
61 61 61 61 62 62 61 61 61 61 60 61 61 62 61 61 67 80 80 80 78 80 87 86 86 83 74 74 77 74 69 75 81 84 84 81 83 83 79 71 74 73 77 82 80
61 61 61 61 61 61 61 61 61 60 60 61 61 62 61 61 70 86 80 79 78 84 84 84 81 73 70 72 79 73 80 84 86 88 82 79 82 81 82 82 84 81 81 81 79
60 60 60 60 61 61 61 61 60 60 60 62 62 62 59 65 77 83 80 79 82 83 83 81 76 74 70 75 79 75 81 85 86 84 84 85 81 81 82 84 84 84 82 80 78
59 59 59 60 60 60 60 60 60 60 60 61 62 61 62 68 86 83 82 81 83 82 81 82 79 81 77 76 73 81 83 83 80 82 84 83 81 82 82 83 82 82 80 81 79
59 59 59 59 60 60 60 60 60 59 60 61 61 65 67 76 87 82 81 79 83 82 81 84 85 79 77 75 81 82 74 79 78 79 79 83 76 75 80 83 80 81 78 78 81
59 59 59 59 59 59 59 59 59 60 60 61 61 61 67 89 83 87 80 80 84 83 83 86 86 80 75 80 79 74 68 63 78 79 81 79 66 75 79 80 72 74 74 72 67
58 58 58 58 58 58 57 58 60 60 61 62 58 60 70 86 84 85 84 84 83 84 83 94 83 74 75 67 61 64 59 65 72 80 79 79 68 77 79 75 67 70 72 71 70
58 57 57 57 57 57 57 59 61 59 61 68 71 65 75 81 87 87 87 89 85 83 81 78 72 66 63 60 53 60 60 65 66 75 76 71 73 76 76 72 68 72 68 69 70
57 57 57 57 57 57 53 57 64 65 62 66 69 73 82 90 93 86 89 86 83 77 65 71 63 58 63 66 70 70 67 67 71 77 71 69 70 74 70 69 66 66 66 69 73
57 57 57 57 56 57 51 64 68 72 62 75 77 79 84 87 81 85 90 79 76 67 68 65 60 70 74 74 73 71 67 65 72 77 71 70 69 70 69 66 66 67 67 69 70
57 56 56 56 55 58 64 69 77 70 59 69 77 77 79 82 79 81 84 79 73 69 68 62 70 79 75 72 70 67 64 67 68 73 70 69 64 67 70 68 70 70 70 70 71
56 56 55 53 59 59 66 74 74 73 51 63 68 78 81 83 76 90 89 81 74 69 70 67 77 76 74 72 71 59 75 74 73 65 57 68 52 59 63 64 65 68 68 69 69
56 56 55 54 49 59 70 72 71 68 45 76 74 87 81 77 79 81 90 79 71 72 69 66 72 70 70 73 76 69 76 73 72 61 56 62 54 57 62 63 66 68 69 68 73
55 55 55 55 49 59 66 67 68 53 46 70 79 75 73 75 80 82 80 81 81 73 73 71 81 76 75 81 79 79 71 65 60 55 50 57 56 54 57 64 66 69 72 75 73
54 54 52 57 56 62 63 62 50 43 67 66 66 70 69 70 74 76 72 69 64 56 56 67 72 77 81 73 75 72 57 47 47 47 48 56 55 57 64 69 71 70 72 73 74
54 53 51 55 54 60 60 54 41 59 59 71 71 70 65 70 71 73 68 63 68 64 57 56 55 72 79 73 68 64 59 49 43 44 49 58 50 58 67 72 74 74 72 73 69
52 50 51 55 58 59 55 43 48 56 69 68 68 61 63 71 71 69 65 68 72 68 59 55 59 77 79 79 76 65 58 64 53 48 48 51 56 66 69 72 72 72 72 70 68
44 47 53 66 62 58 50 46 55 66 69 67 57 63 58 64 63 62 64 71 73 77 70 63 56 74 79 79 75 72 71 57 50 44 42 49 51 53 60 62 71 70 68 68 69
46 50 62 67 63 54 45 48 61 70 71 64 59 59 60 60 60 57 63 73 78 77 75 65 60 68 70 65 64 65 60 57 56 51 46 43 50 60 65 63 65 66 69 66 66
42 47 65 69 51 46 48 59 61 66 69 67 66 63 63 62 58 60 63 68 79 82 67 69 58 55 63 72 77 71 66 59 51 50 49 50 52 62 62 63 65 65 68 68 69
38 46 64 63 45 44 51 61 65 65 65 65 64 66 67 59 55 61 67 77 79 74 68 67 55 50 58 63 68 65 67 61 55 51 50 48 51 65 63 62 65 64 63 66 68
41 44 52 56 53 49 48 54 57 69 67 69 66 65 61 57 57 60 64 75 79 78 70 68 54 57 54 58 62 64 70 67 58 50 52 53 53 57 60 63 61 63 62 64 67
44 45 48 42 48 49 48 55 56 57 66 65 63 64 61 50 55 57 63 67 74 72 71 65 56 57 61 66 68 67 68 68 59 61 58 59 59 62 60 60 61 61 60 65 65
42 41 45 43 48 50 48 50 56 61 59 60 57 66 65 55 59 57 59 55 62 67 62 61 57 55 57 67 69 66 70 69 74 74 64 61 56 60 60 62 62 61 63 64 64
46 46 43 44 46 46 48 53 57 58 61 64 64 62 61 64 66 65 64 62 62 58 61 58 56 52 49 60 63 56 65 69 69 71 69 58 62 63 59 61 62 61 65 68 65

GFSSW_sfc_temp_009.txt.gz
Temp
62 62 62 62 62 62 62 62 62 62 61 61 61 61 62 61 61 60 66 79 78 77 79 81 77 79 78 75 79 77 62 58 62 66 70 73 72 79 84 78 79 80 77 80 81
61 61 61 62 62 62 61 61 62 61 61 61 61 61 62 61 61 65 78 79 77 77 80 79 76 77 71 72 75 69 59 65 72 74 73 77 77 78 77 74 74 75 79 83 79
61 61 61 61 62 61 61 61 61 61 60 61 62 61 61 61 64 78 79 79 77 78 83 83 82 78 69 71 73 68 66 73 79 80 81 76 79 80 75 70 73 71 75 79 77
60 60 61 61 61 61 61 61 61 61 60 61 62 61 61 59 67 83 80 78 77 80 82 81 77 69 67 68 76 68 76 78 80 85 80 79 80 77 79 78 80 78 79 78 77
60 60 60 60 61 61 61 61 61 60 60 61 61 61 58 63 75 79 80 78 79 80 80 78 73 71 67 71 75 71 75 79 82 80 79 82 78 79 78 80 81 80 80 77 77
59 59 59 60 60 60 60 60 60 60 60 61 61 61 61 66 83 81 80 79 80 78 79 79 77 77 72 72 70 76 77 78 79 81 80 77 77 80 77 80 78 79 77 77 77
59 59 59 59 59 60 60 60 60 60 60 61 61 63 64 74 84 80 79 77 79 78 78 80 81 74 73 73 77 77 72 75 77 77 77 80 72 71 75 79 77 77 77 71 71
58 59 59 59 59 59 59 59 59 60 60 61 61 59 65 83 79 81 75 76 79 75 79 82 80 74 71 76 74 70 64 61 74 75 77 76 63 70 76 75 73 73 73 73 72
58 58 58 58 58 58 57 58 61 61 61 62 57 59 68 79 80 81 80 81 80 78 79 90 78 70 71 64 59 60 57 60 68 76 75 73 64 72 75 72 69 70 71 74 73
57 57 57 57 58 57 57 58 60 59 61 65 69 64 74 78 82 83 82 85 80 77 77 74 68 62 61 57 52 56 59 63 63 70 71 70 66 69 71 72 70 70 70 73 73
57 57 57 57 57 57 53 56 63 63 60 65 67 70 77 85 87 81 85 83 79 74 64 67 61 56 61 63 65 65 63 62 69 74 70 66 66 71 70 68 68 68 66 69 70
57 57 57 56 56 56 52 64 62 66 60 72 73 74 80 81 76 80 86 75 72 65 67 63 57 65 70 69 67 65 61 61 68 74 69 65 62 65 66 65 66 69 67 67 69
56 56 56 55 55 58 60 64 69 62 57 66 71 72 74 78 74 76 82 76 70 66 65 60 67 74 71 68 66 62 60 62 65 68 66 65 58 60 65 65 67 69 69 69 69
56 56 55 53 59 55 63 67 66 64 50 62 65 74 76 78 72 85 84 78 70 66 67 64 72 72 67 67 67 57 70 69 68 61 56 64 51 57 61 61 64 67 66 68 69
55 55 55 54 49 57 68 62 65 67 44 71 69 81 72 75 76 76 84 77 69 69 66 64 67 66 67 69 71 66 71 69 66 58 54 57 52 55 57 59 61 64 66 69 70
55 55 54 53 48 57 61 61 65 52 45 66 74 70 69 70 76 76 77 79 76 69 67 67 74 71 71 76 74 76 68 61 55 52 48 53 53 52 55 60 61 66 69 71 70
54 53 51 55 56 58 59 62 49 43 65 64 63 65 62 66 70 72 69 66 62 54 53 63 67 72 77 67 70 65 55 47 46 45 46 52 53 56 63 67 68 69 69 70 71
53 53 52 53 51 57 59 55 40 56 55 67 67 64 63 65 66 68 64 61 65 61 54 53 54 66 73 69 66 62 58 48 41 42 47 54 49 57 66 69 69 72 70 70 69
52 46 47 52 55 55 55 43 46 52 64 64 64 59 59 65 66 66 62 62 66 64 58 51 55 72 74 74 72 61 56 59 49 44 47 48 56 64 66 67 68 70 70 66 66
43 44 49 58 58 56 50 44 49 61 65 62 54 59 54 60 59 58 60 67 67 70 65 59 54 66 74 74 71 67 67 55 49 43 39 47 50 52 59 62 66 66 64 65 68
46 50 59 57 59 54 44 45 55 65 66 60 55 56 57 58 57 54 59 68 71 71 69 59 56 65 68 62 63 62 57 53 52 48 45 42 48 58 61 62 63 65 66 66 67
40 49 60 59 49 43 46 54 57 60 63 62 61 61 57 59 56 57 59 65 73 71 62 62 54 53 60 68 72 65 62 56 50 49 45 47 51 61 63 63 64 64 66 66 68
38 41 58 60 43 42 49 57 59 58 59 58 60 63 62 56 53 59 62 72 72 68 62 62 53 51 56 59 64 61 61 55 52 49 46 46 51 60 60 60 61 62 66 67 67
42 45 50 51 46 46 46 52 55 66 62 64 63 62 59 55 56 56 59 70 72 72 68 66 51 55 56 56 60 60 63 62 55 49 48 50 53 55 58 58 59 61 63 66 68
43 41 43 41 46 44 44 52 55 56 61 60 57 58 55 49 52 55 58 62 69 69 65 61 53 54 56 63 65 65 65 63 59 57 55 57 57 59 60 58 59 61 63 65 64
40 40 41 40 43 45 45 45 52 54 54 55 53 59 57 52 56 56 55 52 58 64 60 57 54 52 54 64 64 63 66 66 66 65 59 58 57 59 58 59 59 60 62 63 63
41 42 41 43 42 43 43 49 53 54 57 59 59 55 56 58 59 63 61 61 61 54 56 55 52 50 47 56 59 54 62 65 64 67 66 59 61 57 58 59 60 60 61 62 64

GFSSW_sfc_temp_012.txt.gz
Temp
62 61 62 62 62 62 62 62 62 62 61 61 61 61 61 61 61 59 65 78 74 77 80 77 76 75 76 74 76 74 61 56 61 64 69 70 70 78 81 75 77 79 75 77 79
61 61 61 62 62 62 61 61 61 61 61 61 62 61 61 61 60 62 76 79 77 77 78 75 73 75 70 71 73 67 59 64 70 72 72 75 74 76 75 71 72 74 78 78 77
61 61 61 61 62 62 61 61 61 61 61 61 61 62 61 60 63 75 79 78 77 77 79 79 79 75 68 69 71 66 64 70 74 77 77 72 75 78 74 69 72 70 72 75 74
60 60 61 61 61 61 61 61 61 61 60 60 61 61 61 57 65 79 79 77 77 77 78 78 75 67 65 66 73 66 74 74 76 77 76 74 74 74 75 77 79 76 76 75 74
60 60 60 60 61 61 61 61 61 60 60 60 61 61 56 62 73 78 79 77 76 77 76 75 70 68 65 68 72 68 73 76 78 76 76 79 76 75 75 78 79 78 77 74 74
59 59 59 60 60 60 60 60 60 60 60 60 61 61 59 63 79 78 77 77 77 75 75 76 74 74 69 69 68 72 74 74 76 77 77 74 74 77 74 77 76 76 74 75 74
59 59 59 59 59 60 60 59 59 59 60 60 61 62 63 73 80 78 77 75 76 75 75 77 77 72 70 70 74 73 69 72 74 74 73 77 70 71 73 76 74 74 74 75 74
58 58 59 59 59 59 59 58 59 61 60 61 61 58 65 79 77 79 73 73 75 72 76 78 77 71 68 74 71 65 63 60 72 74 75 74 64 70 72 73 71 73 73 72 72
58 58 58 58 58 58 58 57 60 61 61 62 55 57 66 77 77 78 77 77 76 74 75 88 75 66 69 61 58 59 54 58 67 73 72 71 65 69 72 72 69 70 70 72 72
57 57 57 57 57 57 57 58 61 60 61 65 68 61 70 74 78 79 77 81 77 75 74 72 65 60 58 56 51 53 55 58 60 69 68 68 67 66 70 70 68 68 69 70 70
57 57 57 57 57 57 54 56 60 60 59 62 64 68 74 81 83 77 80 80 77 73 62 64 59 54 59 60 62 61 59 58 64 70 64 64 65 66 67 67 67 67 66 68 69
57 56 56 56 56 56 52 61 61 61 55 68 69 70 75 78 73 77 83 73 69 63 64 61 55 64 66 65 63 61 57 59 65 69 65 60 63 63 64 64 66 68 67 68 67
56 56 56 55 55 57 56 61 63 59 53 64 68 67 71 76 73 74 79 74 67 63 62 58 63 69 68 64 62 58 56 58 62 66 63 61 57 60 64 64 67 68 68 69 68
56 55 55 53 58 54 62 64 61 61 50 60 63 71 72 74 70 82 80 76 68 64 63 62 68 68 64 63 64 52 66 66 65 59 54 60 50 56 57 60 62 66 65 66 67
55 55 54 54 51 56 63 61 61 65 43 68 65 76 68 72 75 72 80 74 67 66 64 63 63 63 63 66 68 64 68 65 63 55 52 56 52 56 57 59 61 64 65 66 68
55 54 54 51 47 56 60 60 65 53 44 63 68 65 65 66 71 73 74 77 73 67 64 65 70 68 68 72 72 73 64 59 53 50 47 51 51 52 55 59 62 65 68 68 68
54 53 51 54 57 57 56 61 51 43 62 60 59 62 59 61 65 68 66 64 60 53 50 61 64 69 73 64 66 64 54 46 46 44 45 50 50 56 61 65 66 67 67 68 68
52 52 51 52 51 54 58 55 40 55 54 63 62 59 57 62 63 65 62 59 62 59 52 52 52 63 69 66 63 58 56 47 41 41 47 51 48 57 65 66 68 68 67 68 67
51 44 45 50 53 53 55 43 47 51 61 60 60 56 56 61 63 62 60 59 63 63 56 50 54 68 71 70 70 58 54 57 46 44 45 48 55 63 64 64 65 65 67 67 67
42 43 49 54 54 54 50 43 47 57 61 59 51 55 51 57 56 56 57 63 64 66 63 57 51 62 71 69 67 63 65 53 47 41 40 46 48 52 59 60 63 63 63 65 67
43 50 56 53 54 52 43 43 52 61 63 57 52 52 53 55 54 52 56 64 67 66 65 57 55 57 65 60 60 59 54 52 50 47 43 42 48 57 61 61 62 64 65 66 66
41 47 56 57 48 40 43 49 56 57 60 57 56 55 55 57 53 53 56 62 68 65 59 58 51 48 58 65 66 62 59 55 49 46 43 45 50 59 60 62 63 63 65 66 65
41 42 56 56 41 41 47 53 56 56 56 55 55 59 58 54 51 56 59 67 69 64 60 60 50 45 52 57 60 60 58 54 50 47 45 46 51 61 59 60 62 63 65 65 65
43 45 49 49 45 45 45 49 52 62 59 60 58 57 54 51 53 55 58 66 68 66 66 64 48 50 48 54 57 57 61 58 54 48 47 49 54 59 59 59 59 61 63 64 65
42 39 41 40 43 43 45 50 51 50 57 57 54 55 51 44 49 53 56 60 66 66 59 58 52 49 53 59 62 62 62 61 57 56 54 56 56 60 60 59 59 60 63 64 65
39 39 40 39 41 42 43 42 50 52 50 52 51 56 52 49 50 51 56 51 56 60 55 54 52 50 52 61 63 62 65 63 63 61 58 58 57 59 59 59 59 60 63 63 64
39 40 40 41 40 41 41 46 51 51 55 57 56 52 51 55 58 59 59 58 55 54 55 52 51 49 47 55 57 53 61 63 63 64 63 57 62 58 56 59 59 59 63 63 63

GFSSW_sfc_temp_015.txt.gz
Temp
62 62 62 62 62 62 62 62 62 62 62 62 61 62 61 61 61 67 77 86 83 77 82 85 87 87 88 86 87 85 79 72 74 76 82 84 83 84 88 83 83 84 83 85 85
61 61 62 62 62 62 62 62 62 62 62 61 61 62 61 61 66 73 83 79 77 78 86 85 83 85 86 85 86 85 81 77 83 83 84 86 83 84 84 81 80 81 83 85 84
61 61 61 62 62 62 62 62 62 61 61 61 61 62 61 63 73 86 80 78 77 79 88 88 88 86 82 84 83 81 81 81 85 86 87 87 84 87 84 80 84 82 80 82 82
60 61 61 61 61 62 62 62 62 61 61 61 61 61 61 64 75 87 79 78 77 85 89 86 85 82 80 80 84 79 83 83 87 88 85 84 86 84 84 89 89 88 85 83 81
60 60 60 61 61 61 61 61 61 60 60 60 61 61 63 77 83 84 79 79 83 86 86 84 83 81 79 81 82 80 83 86 88 86 85 86 84 85 84 91 89 87 84 82 83
59 59 59 60 60 60 60 60 60 60 60 60 61 61 68 77 86 84 84 84 86 86 86 86 84 84 81 81 80 83 83 84 87 86 86 84 83 84 85 87 85 83 82 84 84
59 59 59 59 60 60 60 60 59 60 60 61 61 64 72 82 87 86 87 86 86 88 85 87 88 85 84 81 84 83 81 84 85 86 85 86 80 80 83 83 82 82 81 82 83
58 59 59 59 59 59 59 59 59 61 60 61 61 66 76 84 86 84 86 85 86 88 88 89 89 85 83 84 83 79 80 77 84 85 84 84 78 80 81 82 80 80 80 81 81
58 58 58 58 58 58 58 57 60 62 62 62 66 70 78 79 81 87 88 86 85 86 88 90 88 81 82 78 77 76 74 73 78 83 84 82 80 76 81 80 79 79 79 80 80
57 57 57 57 57 57 57 58 61 63 65 67 70 72 79 80 85 85 87 88 86 85 84 83 81 79 77 77 69 71 71 72 72 80 82 79 80 80 79 80 79 79 78 79 79
57 57 57 57 56 56 60 68 75 74 72 76 76 76 80 86 89 85 88 87 86 83 76 76 75 72 75 74 74 72 71 70 76 80 76 77 77 78 77 78 78 77 76 77 76
57 56 56 56 56 56 61 73 70 71 68 73 73 75 80 84 80 83 90 82 80 74 75 75 71 76 75 73 72 71 70 73 78 78 77 76 77 77 76 77 78 78 76 78 75
56 56 55 55 55 64 66 71 71 71 67 72 75 75 79 83 80 81 86 81 77 73 73 71 74 74 75 73 71 72 71 71 72 77 77 73 74 75 75 75 77 77 79 78 77
55 55 55 53 63 62 71 70 70 71 65 70 73 79 79 82 79 87 89 85 76 74 71 73 77 74 72 71 75 70 75 75 74 73 70 73 68 73 73 75 75 77 78 77 77
55 55 54 54 60 65 70 69 72 72 55 73 74 84 80 79 82 79 88 84 75 73 74 72 73 71 71 74 77 73 77 74 73 73 70 70 70 76 71 77 77 77 77 78 78
55 54 54 57 57 65 67 69 75 63 53 69 76 74 75 79 79 80 82 86 82 75 74 75 79 78 78 79 79 80 74 71 69 71 65 66 69 73 77 76 76 77 79 79 79
54 53 53 58 68 64 66 73 62 55 69 66 69 73 73 73 75 76 75 74 72 65 66 71 74 78 80 75 77 76 72 66 62 62 63 65 66 73 76 77 76 78 78 80 80
52 52 54 58 62 63 71 68 50 61 62 70 69 70 69 73 74 72 72 69 73 72 67 66 66 73 77 77 74 73 74 66 55 60 65 64 64 75 77 79 78 79 80 82 81
51 57 58 63 61 62 69 57 59 59 64 65 68 66 67 71 72 73 72 72 75 75 68 65 66 76 77 79 80 70 69 73 64 60 64 68 71 77 75 77 75 77 79 80 79
50 58 62 62 62 69 65 52 59 63 66 67 62 65 63 66 69 71 69 74 74 76 80 71 65 75 78 81 77 76 76 68 68 56 55 63 62 70 73 76 77 76 78 79 76
55 62 63 63 65 67 59 57 60 67 68 65 63 63 64 64 67 67 68 73 75 73 77 75 70 71 75 74 73 72 72 68 70 66 63 61 68 76 74 77 77 77 78 78 76
55 57 66 66 61 55 58 58 57 66 69 68 67 65 65 65 66 67 68 71 76 76 71 74 70 64 70 75 77 76 73 72 68 60 63 65 69 77 74 75 77 77 77 75 75
54 57 66 66 55 55 57 61 64 65 65 66 65 67 68 65 63 66 68 75 76 75 72 71 66 63 66 72 73 73 72 71 67 67 61 63 69 76 74 73 74 76 76 72 73
56 56 61 60 57 56 55 58 60 67 65 67 66 68 65 63 65 63 68 73 75 75 66 72 65 66 66 69 73 69 70 70 72 67 66 69 72 78 78 73 72 75 75 72 72
54 50 51 54 55 55 56 57 57 58 64 65 63 62 61 60 62 63 66 70 75 69 71 73 65 65 70 70 72 74 73 70 70 72 71 72 70 79 78 74 74 76 73 71 71
53 53 53 53 50 54 52 53 56 58 60 60 61 62 61 60 62 61 62 66 68 73 70 66 66 64 67 69 71 71 75 73 73 71 71 72 72 79 71 71 71 72 71 71 70
50 51 51 47 51 54 54 55 56 58 62 64 61 61 60 62 64 66 66 66 66 62 66 66 66 64 64 66 69 64 72 73 75 76 77 71 77 74 72 70 71 71 72 72 73

GFSSW_sfc_temp_018.txt.gz
Temp
62 62 62 62 63 63 63 63 63 63 63 62 62 62 62 62 62 76 88 89 89 80 81 96 97 98 99 96 97 97 90 83 84 85 88 97 93 93 96 91 91 93 92 95 94
62 62 62 62 63 62 62 62 62 62 62 62 62 62 62 62 79 88 85 80 80 79 96 94 93 97 97 95 98 96 92 86 93 93 92 94 92 93 91 90 87 88 91 94 93
61 61 61 62 62 62 62 62 62 62 62 62 62 62 62 67 84 93 80 80 79 83 98 97 97 96 92 95 94 94 90 92 93 95 97 95 95 96 93 89 93 89 89 91 91
61 61 61 61 62 62 62 62 62 61 61 61 61 62 63 79 83 93 79 79 78 96 97 95 95 92 90 89 93 88 92 92 95 97 96 94 97 94 94 96 97 96 94 93 91
60 60 60 61 61 61 61 61 61 61 61 61 61 62 75 89 91 92 79 81 94 96 95 93 92 91 88 90 91 89 91 93 97 97 96 96 93 93 94 99 98 97 94 93 93
60 60 60 60 60 61 61 61 60 60 61 61 61 61 84 85 96 95 96 95 97 97 95 96 92 93 90 89 89 91 91 93 96 95 94 92 94 92 93 95 96 93 93 95 94
59 59 59 60 60 60 60 60 60 60 61 61 62 75 84 89 96 97 98 97 97 98 94 95 96 93 93 89 92 92 88 93 95 95 94 95 91 89 94 93 92 92 93 93 93
59 59 59 59 59 59 59 59 59 62 61 62 63 81 87 93 98 93 97 95 97 99 98 97 98 95 92 94 93 89 90 85 93 93 93 93 85 90 93 92 90 90 90 90 90
58 58 58 58 58 58 57 58 61 62 63 63 78 83 87 84 90 98 98 94 96 97 97 97 97 92 92 88 86 88 82 82 85 92 92 90 86 90 93 91 90 89 88 89 87
57 57 57 57 57 57 57 59 62 63 71 78 82 80 88 88 94 95 98 96 93 93 91 91 93 89 89 87 78 80 81 83 81 88 90 88 88 93 91 90 89 90 87 87 87
57 57 57 57 57 56 67 80 80 80 81 87 87 85 88 93 96 93 96 93 95 91 84 87 84 83 83 85 84 82 81 80 85 88 86 86 87 91 90 90 89 88 85 86 86
57 56 56 56 56 56 71 86 79 80 80 87 86 86 89 92 86 92 97 90 87 83 84 83 81 86 85 83 82 82 80 81 86 87 86 87 86 91 90 88 90 88 85 87 86
56 56 56 55 56 69 83 80 85 83 79 83 86 87 89 91 88 88 94 91 86 83 83 81 83 84 83 81 80 82 80 80 80 85 89 84 83 86 90 87 88 88 90 90 86
56 56 55 53 66 79 82 82 86 84 77 78 82 87 88 92 84 97 97 91 85 82 82 83 87 82 81 80 83 79 84 82 81 81 78 85 74 82 88 87 86 88 88 90 87
55 55 54 53 71 80 80 85 87 82 64 80 82 94 91 87 89 87 98 91 83 81 82 80 80 79 78 82 85 81 84 82 82 81 79 81 77 83 86 85 87 88 88 89 89
55 54 54 65 74 81 83 84 82 71 61 75 83 81 81 86 86 87 87 93 91 83 83 83 88 86 86 86 86 86 83 83 83 83 72 77 77 82 85 83 87 88 89 89 90
54 53 56 71 81 81 83 83 71 65 77 74 78 83 84 81 82 84 81 80 79 72 74 82 83 87 88 82 86 83 80 71 69 70 70 77 75 79 87 88 87 88 89 90 90
52 52 58 73 79 79 82 75 61 71 71 77 77 79 78 83 83 82 80 77 84 81 80 74 71 81 87 84 82 81 81 72 61 66 73 76 71 80 88 89 89 89 91 91 91
51 74 76 80 77 78 77 66 70 71 73 73 75 74 75 79 80 80 80 80 84 84 75 75 74 84 85 87 86 79 74 86 75 76 71 77 79 87 88 87 88 89 90 90 90
68 77 76 76 78 78 74 64 71 74 74 73 70 73 72 77 77 78 78 84 82 87 89 81 71 84 85 87 85 82 87 74 77 63 61 72 72 80 82 86 87 86 88 89 88
69 73 74 80 79 75 68 72 71 75 76 73 72 72 74 74 78 79 79 80 84 85 88 86 78 77 82 80 80 79 78 80 81 77 69 66 73 86 85 88 86 86 89 87 86
72 69 78 80 70 75 71 70 62 75 77 76 76 74 74 73 75 76 76 80 84 86 78 85 80 73 78 86 87 86 82 81 73 69 76 73 75 92 90 89 88 88 88 88 88
72 73 80 78 66 67 68 71 73 73 73 74 73 75 75 73 69 75 77 82 83 84 81 81 77 70 73 81 82 79 83 83 81 77 72 70 75 91 90 86 86 87 86 84 84
69 66 72 75 73 68 66 68 68 73 73 74 74 75 73 72 75 72 76 81 82 83 68 78 77 73 72 74 81 76 81 83 80 74 76 77 79 85 88 87 83 86 84 83 82
71 64 64 65 68 68 67 67 68 66 73 75 71 73 72 68 71 72 75 78 82 70 80 81 71 77 80 81 80 81 80 81 77 80 75 79 79 85 86 84 87 86 82 81 81
66 66 68 68 63 65 58 64 65 67 70 69 70 72 73 70 73 72 72 75 76 80 79 78 72 75 75 81 80 77 81 82 81 82 81 82 80 89 84 85 85 83 81 80 80
67 68 64 55 64 65 66 65 65 67 70 73 70 71 70 72 73 75 77 76 76 72 73 73 74 71 69 77 77 71 78 81 82 84 84 78 84 86 86 82 82 82 82 81 81

GFSSW_sfc_temp_021.txt.gz
Temp
63 63 63 63 63 63 63 63 63 63 63 63 63 63 63 63 63 83 94 90 92 83 82 103 103 105 107 104 105 106 91 85 88 90 93 101 98 101 103 97 96 98 98 100 99
62 62 62 63 63 63 63 63 63 63 63 63 63 62 63 63 82 95 81 82 83 80 99 100 99 103 101 101 103 99 85 90 98 98 95 98 98 99 97 96 92 94 98 99 98
62 62 62 62 63 63 62 62 63 62 62 62 62 63 63 68 88 97 80 81 81 84 103 104 104 102 98 102 100 101 92 97 98 99 100 99 99 102 97 93 98 93 94 96 95
61 61 62 62 62 62 62 62 62 62 62 62 62 63 63 84 84 96 80 81 80 98 103 101 100 97 96 94 99 93 98 98 100 100 100 98 102 99 98 99 103 101 99 96 95
60 61 61 61 61 62 62 62 61 61 61 62 62 63 77 92 94 94 80 83 98 103 100 99 98 98 93 96 96 94 96 98 100 101 100 101 99 97 98 103 102 103 99 96 96
60 60 60 60 61 61 61 60 60 60 61 62 63 61 87 88 103 100 102 101 103 102 100 102 99 100 97 95 94 98 96 98 101 99 100 97 98 98 99 102 102 99 98 99 98
59 59 59 60 60 60 60 60 60 60 62 63 63 80 91 94 104 105 104 104 104 105 99 102 102 99 99 95 99 98 92 98 99 99 98 101 94 94 100 100 98 98 98 98 98
59 59 59 59 59 59 59 58 60 62 64 63 64 87 92 102 107 101 105 102 105 106 105 104 104 101 98 101 97 93 95 88 98 97 98 98 86 96 100 99 97 97 97 96 96
58 58 58 58 58 58 58 58 61 65 64 66 81 91 92 87 98 105 106 100 102 103 103 103 103 99 99 92 90 93 85 88 90 97 95 94 89 97 100 98 96 95 94 95 94
58 58 57 57 58 57 57 58 65 65 71 87 91 87 95 94 102 103 105 103 99 99 96 96 97 93 95 92 81 85 87 89 85 94 94 92 92 98 99 98 96 95 93 93 92
57 57 57 57 57 57 66 84 84 82 89 92 93 93 94 100 102 99 103 99 99 95 88 93 89 86 91 93 91 89 86 85 90 94 89 90 90 94 98 98 96 94 91 92 92
57 57 56 56 56 56 69 90 88 88 83 97 97 95 97 101 92 98 104 93 91 86 92 88 85 93 91 90 88 88 85 85 90 93 90 90 90 95 97 96 97 96 91 93 93
56 56 56 55 55 68 90 90 95 95 84 93 95 94 96 98 93 94 99 96 90 87 88 85 89 91 88 88 85 87 85 85 84 90 94 90 86 90 96 96 96 97 97 95 92
56 56 55 53 65 90 88 92 97 94 78 85 87 93 98 97 90 102 102 97 91 87 89 89 94 87 87 86 88 83 90 87 86 84 80 89 76 86 92 92 93 94 95 96 93
55 55 54 53 74 86 89 96 95 91 65 88 89 101 99 92 96 94 103 97 87 87 87 85 87 85 83 86 90 85 90 87 87 84 84 85 80 86 91 88 92 95 95 96 94
55 55 54 73 79 90 94 94 90 72 64 81 89 87 88 91 92 95 94 99 97 89 89 89 94 91 90 91 91 92 87 87 87 86 75 82 82 81 87 87 91 94 95 94 94
54 53 57 77 85 92 93 87 72 67 86 81 83 89 87 86 88 87 86 84 82 76 78 85 87 92 92 86 91 89 83 73 72 73 71 84 80 82 91 93 92 93 94 95 95
53 52 62 78 88 88 86 77 63 79 81 86 86 88 83 88 88 86 84 81 88 87 84 78 76 88 92 88 85 85 83 75 63 68 69 82 75 82 93 95 95 95 97 96 95
51 78 81 86 87 87 80 68 72 80 83 81 82 80 82 87 87 85 84 84 88 89 78 80 78 91 90 93 91 85 79 90 78 80 76 80 84 91 93 93 93 94 95 94 95
69 81 85 87 87 83 75 66 80 83 81 82 76 82 77 81 81 83 82 89 88 92 93 86 76 89 89 92 92 87 92 78 80 65 63 75 76 80 84 88 91 91 92 94 94
71 77 81 89 88 79 70 76 82 84 83 79 78 79 82 81 83 83 83 87 92 91 93 90 82 82 87 83 83 84 81 83 85 80 67 63 67 88 87 91 90 92 94 94 93
78 73 85 88 73 78 75 81 64 82 84 83 81 80 80 81 80 81 82 87 92 93 85 90 85 76 81 92 93 90 85 84 75 71 78 76 71 91 94 94 93 94 94 94 94
75 80 86 85 70 76 80 79 79 81 81 81 81 82 82 77 74 82 83 89 89 89 86 89 80 72 75 85 89 83 87 87 85 81 72 70 74 92 92 93 93 93 94 91 91
74 70 77 79 82 73 75 72 73 82 82 83 82 82 79 78 81 78 81 84 87 90 72 81 81 76 74 72 81 78 83 86 83 75 76 79 81 86 89 91 90 92 92 90 88
78 74 74 69 74 75 76 75 74 72 80 81 78 78 78 74 77 75 83 84 86 73 83 85 73 80 82 85 86 84 83 85 81 82 76 80 70 70 87 90 92 92 89 87 86
69 71 78 77 71 72 64 71 72 77 76 74 74 80 80 74 77 76 82 81 81 86 84 85 73 78 77 84 85 81 84 84 85 84 84 85 77 63 91 92 91 90 87 85 85
75 78 73 63 71 70 73 73 73 77 77 80 80 80 76 78 84 84 84 82 82 79 79 79 76 73 69 80 81 74 81 83 85 88 86 80 86 92 90 88 88 90 89 86 87

GFSSW_sfc_temp_024.txt.gz
Temp
63 63 63 63 63 63 63 63 64 64 64 64 63 63 63 63 63 79 93 91 93 84 83 100 105 105 107 102 106 106 80 73 89 90 92 100 95 102 104 97 98 100 98 97 97
62 62 63 63 63 63 63 63 63 63 63 63 63 63 63 63 79 93 84 83 85 81 96 101 101 104 100 102 103 88 71 76 97 98 95 99 98 99 94 86 82 94 98 97 97
62 62 62 63 63 63 62 62 63 62 62 62 63 63 63 66 85 95 79 82 83 84 98 104 104 102 97 102 101 85 70 82 97 100 101 99 99 102 95 82 71 86 92 94 94
61 61 61 62 62 62 62 62 62 62 62 62 63 63 64 78 83 96 82 82 81 95 100 102 101 96 95 94 101 87 93 99 100 101 100 97 101 99 100 96 93 96 96 95 93
61 60 61 61 61 61 61 61 61 61 61 62 63 63 75 88 95 95 81 84 96 99 101 100 98 97 93 97 98 95 97 99 101 101 100 101 98 97 98 102 104 100 97 94 94
60 60 60 60 60 60 60 60 60 60 61 63 64 62 83 87 106 102 102 99 101 103 103 102 101 102 96 96 95 99 98 98 100 100 100 97 95 99 99 104 100 98 95 96 96
59 59 59 59 60 60 60 60 60 61 62 64 65 78 89 93 108 106 106 105 106 105 102 104 104 99 100 94 101 98 92 96 98 100 97 98 88 91 101 102 98 97 97 97 96
59 59 59 59 59 59 59 59 60 62 64 66 65 83 88 106 109 105 107 104 107 108 106 106 105 100 98 101 97 92 93 85 97 99 99 97 76 96 101 99 97 97 97 97 95
58 58 58 58 58 58 58 58 60 64 66 67 80 86 90 92 99 105 107 102 104 105 105 106 102 96 99 90 87 90 82 86 88 98 96 94 88 97 102 99 96 95 95 95 94
58 57 57 57 57 57 57 58 68 65 72 84 90 86 95 94 103 105 108 105 100 100 98 96 95 90 92 89 77 82 85 88 86 94 94 91 90 97 100 99 96 95 94 93 93
57 57 57 57 57 56 64 89 85 81 86 89 92 93 97 103 106 101 105 100 101 96 87 94 87 83 89 93 91 88 86 85 90 95 90 88 89 93 99 98 97 92 91 91 92
57 57 57 56 56 56 64 85 90 91 81 96 96 98 100 102 93 98 105 93 91 85 91 89 82 92 95 92 89 88 85 84 91 95 90 88 88 95 97 96 97 94 90 92 93
56 56 56 55 55 68 86 92 99 99 82 91 98 96 97 99 92 95 99 95 90 86 88 84 90 94 90 88 86 87 84 85 85 91 93 89 84 89 96 97 97 98 94 94 92
56 56 55 53 65 88 89 96 100 99 75 85 91 95 99 98 90 104 103 96 92 86 89 88 95 89 88 86 89 81 92 88 86 83 76 90 73 84 90 90 93 95 95 94 92
56 55 55 53 70 83 91 99 98 93 61 90 91 106 101 92 96 96 104 97 87 88 90 85 88 86 84 87 91 85 92 88 87 82 81 83 79 79 88 87 89 94 94 95 92
55 55 54 73 72 84 96 96 91 70 61 83 90 88 90 91 94 97 95 99 98 90 91 89 96 93 90 93 92 94 88 86 86 83 71 79 80 79 80 77 90 94 93 93 93
54 54 55 74 83 95 94 85 67 63 86 82 83 89 87 86 88 90 87 84 81 75 76 86 88 93 94 87 91 89 82 70 69 70 68 69 74 76 89 91 92 92 92 93 93
53 53 64 77 90 92 87 76 60 75 79 91 89 88 82 88 87 88 85 81 87 86 82 76 74 88 93 87 84 84 82 72 60 65 65 77 63 73 93 95 95 96 94 93 92
52 79 79 86 85 88 78 65 68 77 87 85 86 81 82 87 87 86 83 83 87 88 77 79 79 94 94 94 91 83 77 88 76 78 72 78 81 87 91 92 93 93 93 92 91
63 80 86 92 89 82 72 63 77 87 86 85 77 81 77 83 82 84 82 88 87 93 93 85 75 89 91 93 92 87 91 76 78 63 61 72 69 58 65 61 90 90 90 91 91
68 75 86 93 88 75 63 70 78 88 85 81 79 80 83 82 84 82 82 89 93 92 94 89 82 82 88 82 81 83 80 82 81 77 66 64 63 69 64 62 87 90 92 92 91
73 69 86 91 71 74 68 75 74 85 87 84 84 83 81 84 83 82 82 87 95 95 86 90 84 75 81 91 93 89 84 83 73 69 75 73 72 81 79 85 92 92 93 93 93
69 77 87 85 65 70 76 79 83 83 82 82 81 84 85 79 75 81 84 90 93 91 80 86 79 71 74 83 89 84 86 85 83 79 70 66 54 70 87 90 93 92 93 90 91
71 70 75 77 78 72 72 75 78 84 83 85 83 86 82 77 80 77 82 87 89 88 75 82 80 75 71 74 77 77 82 84 81 73 74 76 73 77 73 73 69 85 91 90 88
72 74 77 69 71 73 75 77 75 75 82 84 80 81 78 74 76 75 82 86 87 77 85 84 72 77 80 83 84 83 82 84 80 81 74 78 75 71 66 64 63 70 88 88 86
70 70 74 75 75 74 68 72 74 78 79 76 75 81 81 75 78 77 80 81 80 86 81 84 72 76 73 81 83 80 84 84 84 84 83 83 80 77 68 71 67 72 87 85 84
75 77 73 66 73 70 71 72 73 78 82 83 80 79 79 80 85 84 85 84 82 77 78 76 75 71 66 78 79 72 80 83 84 86 85 78 80 71 63 62 65 86 87 86 86

GFSSW_sfc_temp_027.txt.gz
Temp
63 63 63 63 63 63 63 63 63 63 63 63 63 63 63 63 62 70 81 88 87 83 83 93 94 95 95 92 97 87 68 62 70 77 82 88 85 93 97 91 92 92 88 88 90
62 62 62 62 62 62 62 62 62 62 62 62 62 63 63 63 72 81 87 82 82 80 92 92 92 94 84 88 89 77 70 74 83 87 85 93 87 89 86 86 84 85 89 91 91
61 61 62 62 62 62 62 62 62 62 61 62 62 63 63 62 76 88 80 81 81 81 93 94 94 93 86 86 85 79 72 85 86 91 94 87 91 91 83 76 80 81 84 88 87
61 61 61 61 61 62 62 62 61 61 61 61 62 63 63 69 75 93 82 81 81 86 92 92 92 84 81 82 90 77 86 90 91 92 93 90 92 89 86 84 89 88 89 88 85
60 60 60 60 61 61 61 61 61 60 61 61 63 63 65 72 85 90 82 82 88 91 90 91 88 86 80 87 90 85 87 89 93 92 92 95 90 90 89 91 91 91 90 87 85
59 59 59 60 60 60 60 60 60 60 61 62 64 62 69 75 96 93 89 90 91 91 93 95 91 92 86 87 84 90 90 90 92 93 93 88 86 90 91 92 89 89 87 88 86
59 59 59 59 59 60 60 60 60 60 61 63 65 73 77 82 99 94 89 92 94 95 92 98 96 88 87 83 93 90 80 86 88 90 87 89 81 86 92 93 90 89 89 88 86
59 59 59 59 59 59 59 59 60 61 62 65 66 71 74 97 91 99 95 94 97 96 96 97 95 88 83 89 88 81 77 70 83 90 89 85 71 86 90 91 87 89 90 88 81
58 58 58 58 58 58 57 58 60 62 65 66 67 68 76 92 93 96 97 95 96 95 94 104 89 81 84 75 69 73 65 72 78 89 86 83 74 86 91 90 86 87 86 86 83
57 57 57 57 57 57 56 59 65 64 68 78 83 72 83 88 95 98 98 99 93 92 91 88 81 72 73 67 59 67 68 74 73 83 85 80 79 85 89 88 86 84 83 84 84
57 57 57 57 57 56 56 68 70 69 69 75 77 84 92 96 100 95 99 93 93 86 74 81 70 66 74 78 79 79 76 74 79 87 80 75 78 82 88 87 84 82 80 82 84
57 56 56 56 56 56 54 67 78 80 70 86 89 90 96 97 88 93 98 84 83 74 79 74 68 80 87 85 81 78 74 72 80 86 79 76 78 82 84 84 84 83 81 83 82
56 56 56 56 55 57 70 79 89 85 67 81 88 88 90 90 88 88 92 88 82 77 77 70 79 90 87 81 79 73 70 74 73 81 80 76 71 75 83 85 85 85 84 84 82
56 56 55 53 60 70 76 86 88 87 58 74 79 88 92 91 84 98 97 90 84 77 79 77 87 87 81 80 78 65 83 83 80 71 60 74 56 68 75 77 81 83 82 82 83
56 55 54 53 55 67 79 87 86 77 48 83 84 98 90 85 87 89 99 89 79 80 77 75 80 79 78 81 84 75 85 80 78 68 63 68 59 68 72 71 70 79 83 83 82
55 55 54 61 57 68 80 85 77 57 51 79 85 82 80 83 86 91 89 90 90 82 82 80 90 84 83 88 86 87 79 75 70 63 53 63 61 61 69 68 68 79 85 84 83
54 54 52 64 68 77 82 73 54 50 77 74 74 80 77 77 81 84 81 75 69 61 63 76 80 83 88 78 81 76 63 52 50 51 52 65 63 59 78 76 76 74 82 84 83
53 52 56 65 74 77 72 59 47 68 69 81 81 80 74 78 78 81 77 70 77 74 66 62 62 79 86 77 71 70 66 53 46 48 55 65 57 64 77 81 76 85 83 84 79
52 63 65 71 70 72 62 50 56 68 80 79 79 74 72 79 79 77 74 74 78 78 63 62 67 88 88 87 80 69 61 71 58 57 55 59 63 71 72 75 80 77 73 79 79
53 63 72 80 79 69 57 53 65 79 82 79 69 75 68 75 74 72 71 79 80 84 79 71 63 79 87 84 81 70 74 60 57 47 46 56 56 57 61 65 70 76 75 78 79
57 62 77 84 77 62 53 59 70 80 81 75 70 70 72 73 75 72 74 82 85 84 83 74 66 70 80 70 69 69 64 63 61 57 50 48 54 67 64 65 64 69 72 79 79
63 59 79 81 58 60 56 65 67 76 81 76 77 74 71 73 69 72 74 77 88 88 74 77 66 59 68 79 84 77 71 65 54 54 56 55 55 71 66 66 65 66 69 79 82
56 66 77 75 53 58 64 71 74 74 75 74 74 77 76 70 63 72 77 83 85 78 68 71 61 55 61 69 75 69 72 67 64 58 54 51 53 70 70 68 68 65 67 72 79
57 57 64 65 67 61 60 64 68 80 79 79 76 77 72 69 68 67 72 83 84 80 74 73 65 60 56 61 67 65 73 74 63 54 56 57 58 63 66 67 68 69 67 69 73
61 62 65 57 61 63 63 66 66 69 77 75 70 73 69 60 66 65 71 75 80 73 76 70 59 62 68 74 75 74 76 77 67 66 59 65 63 62 63 72 71 72 67 66 69
59 59 63 61 65 65 61 62 68 72 72 70 67 75 71 61 64 63 67 64 64 72 69 69 58 61 63 73 74 72 76 76 76 75 71 65 61 60 63 66 68 70 69 68 66
65 65 61 59 62 62 63 66 70 72 74 78 76 70 68 69 73 73 72 70 66 63 64 64 60 58 55 69 68 59 69 70 70 74 70 62 62 66 63 64 64 68 72 70 68

GFSSW_sfc_temp_030.txt.gz
Temp
62 62 62 62 62 62 62 62 62 63 63 62 62 62 62 62 63 68 77 85 83 79 83 90 90 90 88 84 88 84 70 66 73 75 75 82 83 89 91 84 87 88 83 85 83
61 61 61 62 62 62 62 62 62 62 62 62 62 62 62 62 68 74 85 83 81 80 88 87 85 87 81 84 83 74 61 71 80 81 81 86 87 86 83 80 79 81 85 87 83
61 61 61 62 62 62 61 61 62 61 61 61 62 62 62 62 73 83 81 81 80 81 87 88 88 85 79 81 82 74 68 78 83 86 85 82 86 86 81 73 77 77 80 84 82
60 61 61 61 61 61 62 62 61 61 61 61 62 63 62 65 71 89 81 81 80 83 87 87 84 77 75 76 85 75 83 86 86 87 89 84 86 84 84 82 85 84 84 84 80
60 60 60 60 60 61 61 61 61 60 61 61 62 63 61 70 81 87 82 81 84 86 85 84 82 79 74 79 83 78 84 85 88 86 87 91 85 84 84 87 87 87 85 83 81
59 59 59 59 60 60 60 60 60 60 61 62 63 63 66 69 91 88 88 84 86 84 85 85 86 85 80 80 77 85 84 84 85 87 88 85 84 86 84 88 86 85 83 83 82
59 59 59 59 59 60 60 59 59 60 61 62 64 70 70 79 92 88 86 84 87 85 86 90 89 84 82 79 85 84 76 82 85 85 85 84 77 79 85 87 84 84 84 84 83
58 58 58 59 59 59 59 58 59 61 62 63 65 66 70 90 88 90 84 87 89 87 88 91 89 82 77 83 81 77 72 66 81 83 87 83 70 81 86 84 81 84 84 84 80
58 58 58 58 58 58 57 58 61 63 64 65 62 65 73 89 89 89 90 88 88 89 89 99 85 75 79 70 65 66 62 66 74 84 85 79 71 82 86 85 81 83 83 82 79
57 57 57 57 57 57 57 58 62 64 66 74 78 67 79 84 89 92 92 92 88 85 85 81 75 68 66 63 56 62 64 68 69 81 80 75 73 80 83 84 82 82 81 80 80
57 57 57 57 57 56 53 61 69 69 67 68 72 76 85 92 94 89 93 88 86 80 68 74 68 62 68 70 74 73 69 67 73 83 77 74 75 78 81 83 80 76 77 78 80
57 56 56 56 56 56 50 63 70 72 65 78 80 81 87 89 83 87 93 81 76 70 72 68 64 74 79 79 76 73 68 69 74 82 75 71 74 79 78 80 80 78 77 79 76
56 56 56 55 55 56 61 70 78 71 61 72 79 79 82 84 82 83 86 81 75 71 71 66 74 83 81 77 75 66 65 69 70 75 72 70 67 70 76 78 81 81 81 81 78
56 56 55 53 59 57 65 74 74 74 53 65 71 81 84 85 79 92 89 84 77 73 75 72 81 81 78 75 74 60 75 77 74 66 59 70 54 64 65 69 77 78 80 79 77
55 55 55 54 48 59 72 73 73 71 45 77 74 88 83 80 80 83 92 83 76 77 75 72 76 74 74 77 78 72 78 74 73 63 59 63 57 61 65 65 67 74 79 79 77
55 55 54 53 48 58 66 69 69 54 47 71 80 76 74 75 81 85 84 86 86 77 76 75 84 80 79 83 80 80 73 67 61 57 51 60 59 58 63 67 70 78 78 79 78
54 54 51 57 59 62 66 64 52 45 68 67 68 73 70 71 76 77 77 74 68 61 61 71 75 80 83 73 76 73 58 49 49 48 49 58 57 58 67 72 75 72 75 77 79
53 52 50 55 54 61 62 57 43 61 62 72 72 68 68 70 71 74 72 67 70 68 61 59 60 74 80 74 69 65 61 50 44 45 52 60 54 60 71 73 73 72 74 68 69
52 50 51 57 58 59 57 45 50 59 72 71 70 65 65 71 72 70 68 67 73 70 61 58 62 79 82 82 77 65 59 64 55 48 50 53 59 68 70 73 74 71 72 70 72
44 49 55 67 63 59 52 47 55 70 73 69 59 65 61 68 65 63 65 72 74 77 72 65 59 71 81 82 76 71 72 58 52 45 43 52 55 56 63 69 70 65 66 67 73
48 53 64 68 64 55 47 49 61 73 74 66 63 64 66 64 65 61 66 75 78 78 72 65 61 68 73 66 67 67 61 58 56 52 48 45 52 60 62 63 62 65 69 68 71
44 51 68 68 52 47 48 57 62 68 71 68 70 68 67 69 64 63 66 72 80 81 70 69 60 57 64 76 77 68 64 58 52 52 50 50 52 64 63 65 65 67 70 69 69
43 50 66 66 46 45 53 62 65 65 66 66 67 69 68 65 61 66 69 78 79 75 70 68 56 52 60 65 70 65 66 60 55 51 52 49 51 64 64 65 67 69 67 69 70
44 48 56 57 52 49 48 56 59 72 70 71 69 69 65 63 64 62 68 76 78 76 70 68 56 57 53 57 62 61 68 68 58 52 52 54 55 60 61 61 62 64 68 70 69
46 51 52 47 52 52 51 57 57 58 69 69 63 65 61 54 59 59 65 68 74 72 70 65 57 58 60 67 67 66 68 69 63 61 57 65 59 62 61 61 62 65 64 63 66
47 48 51 49 54 55 52 55 60 63 63 66 65 69 62 55 56 57 60 59 58 66 63 61 57 56 58 70 68 66 70 69 68 68 63 60 59 57 63 60 65 65 65 64 65
49 51 50 49 51 52 57 61 64 64 67 68 67 62 60 63 65 65 62 62 59 58 59 57 56 53 50 64 63 57 65 66 65 64 61 57 61 60 59 61 59 61 63 65 66

GFSSW_sfc_temp_033.txt.gz
Temp
62 62 62 62 62 62 62 62 62 62 62 62 62 62 62 62 62 65 76 84 82 80 82 87 88 87 83 82 84 80 67 64 69 72 74 76 76 85 87 81 83 83 79 80 82
61 61 61 62 62 62 62 62 62 62 62 62 62 62 62 62 65 73 83 81 81 80 86 84 83 83 79 81 81 72 64 69 75 78 77 83 82 82 79 77 75 77 79 80 79
61 61 61 61 62 62 61 61 61 61 61 61 62 62 62 62 71 81 80 81 80 81 83 84 84 82 77 76 77 70 68 75 80 81 83 78 82 82 77 71 74 73 73 76 76
60 60 60 61 61 61 61 61 61 61 61 61 62 62 62 63 68 86 80 80 80 81 84 83 83 77 74 75 80 72 80 80 81 81 81 81 82 80 81 79 82 81 77 77 75
59 59 60 60 60 61 61 61 60 60 61 61 62 63 61 68 79 84 81 80 81 83 82 81 78 76 72 75 79 76 80 82 84 81 83 84 82 81 80 81 83 83 80 76 76
59 59 59 59 60 60 60 60 60 60 61 61 62 63 64 67 88 85 84 82 83 81 81 81 81 82 76 76 74 81 82 82 82 84 84 82 80 84 78 83 81 81 79 78 77
59 59 59 59 59 59 59 59 59 60 61 62 63 67 67 77 88 84 80 80 83 82 81 86 84 80 77 75 80 79 74 79 79 78 79 83 74 76 80 82 79 79 80 80 79
58 58 58 58 58 59 58 58 59 61 62 63 64 63 67 86 83 85 79 84 83 82 83 87 84 79 75 80 77 72 68 65 79 79 81 81 68 76 81 80 77 79 80 80 77
57 57 57 57 57 57 57 57 60 63 64 65 60 63 70 85 82 85 84 84 85 85 83 95 83 72 76 67 64 64 60 64 71 79 79 77 70 77 81 80 76 78 79 79 77
57 57 57 57 57 56 56 58 61 62 65 71 75 64 75 80 86 87 86 86 83 82 82 79 70 65 63 63 56 60 61 64 66 76 76 72 72 74 79 79 77 78 77 78 77
57 57 56 56 56 56 53 62 68 66 65 67 68 72 78 86 88 85 89 85 81 78 65 70 65 59 64 67 70 68 65 64 71 78 74 69 70 74 78 77 76 75 74 75 77
56 56 56 56 55 55 50 64 65 63 61 74 75 76 81 83 77 83 90 77 74 66 68 66 60 70 73 73 71 68 65 66 71 76 71 68 72 71 74 78 79 77 73 75 74
56 56 55 55 55 56 58 64 69 62 58 68 74 74 77 80 77 79 85 80 72 67 67 62 70 78 76 72 71 65 62 65 66 71 71 68 66 65 71 74 77 75 76 78 76
56 55 55 53 58 54 62 68 66 65 52 63 67 76 79 82 75 88 87 83 74 70 70 68 75 76 74 73 72 60 73 72 69 63 58 65 53 61 63 65 70 73 75 76 75
55 55 54 54 48 57 67 63 65 68 44 71 69 83 73 77 76 79 86 80 72 72 69 67 70 73 72 75 76 70 74 69 68 60 55 59 54 59 63 62 66 71 75 76 76
55 54 54 51 47 56 60 61 67 53 45 66 74 70 69 70 75 79 79 82 80 72 70 71 78 77 77 79 77 75 69 63 56 53 49 56 55 56 60 63 67 72 74 75 74
54 53 51 54 58 57 59 63 51 44 65 65 62 64 64 66 70 73 71 68 65 58 57 68 71 77 81 70 72 68 57 47 48 47 48 54 54 57 65 68 70 68 71 68 69
53 52 51 52 50 57 60 57 42 58 58 67 67 63 65 66 66 70 67 64 68 67 60 56 58 72 76 71 67 61 59 49 42 43 49 56 50 59 67 70 70 72 71 69 70
52 47 47 53 54 55 57 45 49 56 67 66 65 59 58 66 67 66 64 65 70 69 61 55 60 74 77 78 75 62 57 60 50 44 47 50 58 66 66 66 69 67 69 67 67
44 47 52 59 57 57 52 46 52 63 68 65 56 60 55 61 63 62 61 69 69 73 71 64 57 66 77 75 73 69 68 56 50 44 41 49 50 54 59 60 63 63 63 66 68
47 53 61 59 59 54 46 47 56 66 69 61 57 59 61 60 62 58 62 70 74 72 69 61 58 63 70 63 65 64 58 54 52 49 45 43 51 58 61 61 62 64 65 65 67
45 50 61 61 51 41 46 52 59 63 65 64 62 62 62 63 59 59 62 70 75 72 66 65 57 53 62 69 71 66 60 56 51 49 46 47 51 63 62 64 64 64 65 65 67
44 45 60 62 45 43 48 57 61 60 62 61 62 65 65 61 56 63 65 74 73 72 66 65 54 50 57 62 66 65 62 56 51 49 47 48 52 61 61 62 65 64 64 66 67
46 49 53 53 48 49 46 51 56 67 65 66 64 63 61 59 61 59 65 73 74 69 67 66 52 56 54 57 61 60 64 63 56 49 49 52 55 57 61 61 63 65 64 63 67
47 47 49 46 50 50 49 52 53 55 63 64 57 62 59 51 56 56 61 65 71 67 64 62 55 54 57 65 66 64 64 65 58 56 54 56 55 57 59 59 62 63 63 63 65
46 46 50 46 48 50 49 50 55 58 57 60 57 62 59 54 56 53 56 57 56 65 59 58 55 55 55 65 66 64 67 66 64 62 59 57 54 55 57 60 61 61 62 63 64
45 49 49 47 46 46 49 53 56 59 63 65 63 59 59 61 64 61 59 59 56 54 58 56 54 52 50 59 62 56 61 61 60 58 55 54 56 57 56 60 60 61 62 63 65

GFSSW_sfc_temp_036.txt.gz
Temp
62 61 62 62 62 62 62 62 62 62 62 62 62 62 62 62 62 65 74 83 80 80 80 85 85 84 82 80 81 77 66 62 67 69 71 75 75 81 83 78 81 80 75 77 77
61 61 61 61 62 62 62 61 62 62 62 62 62 62 62 62 64 70 83 81 80 80 84 82 81 82 78 77 77 71 62 69 75 76 74 80 79 79 76 75 73 72 77 77 76
60 61 61 61 62 61 61 61 61 61 61 61 62 62 62 61 71 78 81 80 79 79 81 82 81 79 75 74 75 69 67 72 77 79 81 77 80 81 75 70 72 69 72 74 74
60 60 60 61 61 61 61 61 61 61 61 61 62 62 62 62 65 83 80 79 80 79 82 81 80 74 71 71 77 70 76 77 78 77 78 78 79 77 78 77 80 76 75 74 72
59 59 60 60 60 61 61 61 61 60 61 61 62 62 62 69 78 81 80 79 79 81 80 79 77 74 70 72 76 71 76 78 78 81 79 81 79 79 78 78 79 77 76 74 73
59 59 59 59 60 60 60 60 60 60 60 61 62 62 64 65 85 83 81 77 80 79 80 78 78 78 74 73 71 76 78 78 78 79 79 78 76 81 76 79 76 75 74 74 74
58 58 59 59 59 59 59 59 59 60 61 62 63 66 65 75 84 82 79 77 79 79 79 82 83 78 75 73 77 74 73 76 76 78 76 79 71 74 77 79 75 75 75 75 75
58 58 58 58 58 59 59 58 59 61 62 63 63 63 66 82 80 82 78 79 80 78 79 84 81 75 72 77 74 70 67 63 76 76 78 77 66 77 77 76 74 76 76 76 74
58 58 58 57 58 58 57 57 60 63 64 64 59 63 69 83 79 81 82 80 81 79 79 91 79 69 73 66 63 63 59 61 69 75 74 74 68 75 76 76 73 75 75 76 74
57 57 57 57 57 56 56 58 61 62 64 68 73 63 73 76 82 83 80 83 80 79 78 76 67 64 63 62 56 58 59 61 63 72 72 68 69 70 74 75 73 74 74 74 75
57 57 56 56 56 56 53 63 64 63 63 64 65 69 75 83 83 81 82 82 78 75 63 67 63 58 61 63 66 64 61 61 66 74 68 66 67 71 72 73 72 71 71 72 74
56 56 56 56 56 55 51 63 62 61 58 69 70 72 77 79 74 79 84 76 72 64 66 64 57 67 69 69 66 63 60 62 68 72 68 65 66 69 70 73 75 73 72 74 72
56 56 55 55 55 56 55 63 63 59 54 66 70 70 73 77 75 76 81 74 69 65 63 60 66 74 72 68 67 61 59 61 64 67 66 65 64 66 68 69 74 75 74 75 74
56 55 55 53 58 52 61 61 59 60 51 61 64 72 74 77 72 83 83 79 70 68 67 64 72 72 68 68 69 57 70 70 67 62 57 63 52 60 61 64 68 69 72 73 72
55 55 54 54 47 56 64 57 58 65 42 68 66 77 69 74 74 75 82 76 70 69 67 65 67 66 67 70 72 68 71 67 65 57 54 58 53 58 61 62 64 68 70 70 65
55 54 54 50 45 54 57 57 64 52 44 63 68 65 64 67 72 74 75 77 76 69 67 68 75 72 73 75 74 73 67 61 54 52 49 54 53 55 58 60 64 68 70 68 68
54 53 51 53 58 54 56 62 50 43 61 61 59 61 58 60 66 70 68 65 62 55 54 64 67 72 76 68 68 66 56 47 47 46 47 51 52 57 62 66 68 66 67 70 67
52 52 51 52 50 53 59 57 40 55 54 63 63 59 61 65 63 67 65 61 63 61 55 54 56 68 75 70 65 58 57 49 42 42 48 53 50 59 65 67 69 71 70 68 67
51 47 47 52 52 53 57 44 48 52 63 62 62 56 55 62 65 62 61 61 66 66 58 53 58 72 74 73 72 60 56 57 47 42 46 49 57 63 64 65 67 66 67 67 68
43 48 52 55 55 56 52 45 50 59 63 60 52 56 52 57 58 59 59 65 66 69 67 61 56 64 72 72 70 66 65 55 49 44 41 47 49 54 59 61 63 65 65 66 68
46 52 58 53 55 54 45 44 53 63 63 58 54 55 58 56 58 54 60 68 70 66 67 58 59 62 64 61 61 61 56 51 50 47 44 43 50 57 59 60 60 64 66 66 68
45 49 58 57 50 39 45 49 57 59 61 60 59 59 58 59 56 56 61 65 71 68 65 63 57 54 61 66 68 63 59 55 50 47 43 46 51 61 62 65 64 64 65 66 67
44 44 57 58 44 42 46 53 57 57 58 57 58 63 60 56 53 59 62 70 69 68 64 63 52 49 56 59 63 63 59 53 50 48 45 47 52 63 61 62 63 63 64 65 67
46 47 51 50 45 45 44 49 52 63 61 62 60 59 56 54 54 56 60 68 69 65 67 67 51 53 51 57 60 58 61 59 54 50 48 50 56 60 62 61 62 62 64 64 65
45 43 45 45 46 44 46 50 51 52 58 58 54 59 56 49 53 55 59 63 68 65 61 61 56 52 55 62 63 64 63 62 57 55 55 56 55 61 60 60 61 62 62 64 65
44 44 45 43 46 47 45 49 53 54 54 55 54 61 59 56 58 54 55 54 56 63 57 56 52 55 54 63 65 64 64 63 62 60 58 57 57 59 57 60 62 63 63 63 63
41 44 45 46 47 48 48 53 54 53 60 62 62 56 56 60 61 58 58 57 58 57 59 57 54 53 49 58 61 56 58 59 57 57 57 55 59 57 58 60 61 63 62 62 62

GFSSW_sfc_temp_039.txt.gz
Temp
62 62 62 62 62 62 62 62 62 63 63 63 62 62 62 62 63 73 87 90 88 79 82 93 95 93 94 92 90 88 83 77 79 79 82 88 86 87 90 85 85 84 83 85 83
61 61 61 62 62 62 62 62 62 62 62 62 62 62 62 62 73 84 87 81 81 80 93 91 91 92 93 91 90 90 83 79 85 87 86 88 88 87 85 83 80 79 82 83 82
61 61 61 61 62 62 61 62 62 62 61 61 62 62 62 64 83 90 80 80 80 84 91 91 90 91 90 91 88 84 84 85 87 90 90 89 87 90 85 80 84 81 78 81 81
60 60 61 61 61 61 61 62 61 61 61 61 62 62 63 71 77 91 80 79 80 89 92 91 90 89 87 86 88 84 86 87 90 89 88 87 90 86 87 89 90 87 83 82 80
59 60 60 60 60 61 61 61 61 60 61 61 62 62 73 85 87 87 81 82 90 92 90 89 88 87 86 86 86 85 87 88 90 88 89 90 88 88 86 89 88 85 82 82 82
59 59 59 59 60 60 60 60 60 60 60 61 62 62 80 80 91 88 89 90 92 92 91 91 89 90 86 86 86 86 86 88 88 90 89 87 87 89 88 86 83 82 82 84 83
59 59 59 59 59 60 60 59 59 60 61 62 63 71 78 85 91 91 91 92 92 93 91 93 92 90 88 86 87 86 87 90 90 90 89 90 82 84 89 86 82 82 82 82 83
58 58 58 58 59 59 59 58 59 61 62 63 63 75 80 91 91 90 91 93 92 92 91 93 93 90 87 88 86 83 84 81 87 87 89 89 82 90 88 85 82 82 82 82 82
58 58 58 58 58 57 57 57 60 63 65 65 75 79 81 88 89 93 94 92 93 94 92 93 91 84 86 84 83 82 78 77 82 86 86 85 84 84 86 85 82 82 82 82 82
57 57 57 57 57 57 56 58 63 65 69 72 77 77 86 85 90 92 91 93 91 90 89 88 84 84 83 83 73 75 76 77 75 84 85 82 83 85 83 84 82 83 82 82 83
57 57 57 56 56 56 59 76 79 78 77 79 79 78 82 90 90 90 91 90 90 87 80 79 80 77 80 79 79 77 75 73 79 83 81 81 82 84 83 83 82 81 80 82 84
57 56 56 56 55 56 60 73 70 70 71 77 75 77 82 86 82 88 93 86 83 77 78 78 75 79 79 79 78 77 74 76 80 82 82 81 81 82 81 82 84 83 81 83 79
56 56 55 55 55 64 66 72 72 72 69 75 78 78 82 86 83 84 90 85 80 75 76 74 79 79 79 78 77 77 76 76 77 79 79 79 80 78 81 82 82 84 84 85 76
55 55 55 53 64 62 72 71 69 72 67 72 75 81 82 85 82 90 93 88 81 77 75 76 80 78 78 77 80 75 81 80 77 79 74 76 70 77 76 77 79 79 82 77 75
55 55 54 54 60 68 71 69 72 72 55 74 77 86 82 83 84 83 89 87 78 77 77 75 77 77 76 79 81 79 81 78 76 76 74 73 73 77 77 77 76 77 79 75 77
55 54 54 55 56 67 67 69 74 66 54 70 78 77 76 80 82 83 85 89 86 79 77 78 83 82 82 81 81 79 77 74 73 74 69 67 69 75 76 74 75 76 76 76 77
54 53 52 58 69 64 67 76 64 57 70 69 71 75 74 75 77 79 78 77 75 67 68 74 77 83 84 79 80 79 76 68 65 66 66 67 67 74 77 78 77 77 77 77 76
52 52 54 57 61 62 72 70 53 62 63 71 72 72 70 75 76 76 74 72 75 74 69 69 67 78 83 82 79 75 76 69 56 61 66 66 67 76 78 78 77 79 79 76 77
51 57 59 63 60 61 70 57 59 61 68 68 71 68 69 73 74 75 75 74 77 77 70 68 70 80 81 83 82 72 72 74 65 61 66 68 72 79 77 78 75 74 76 76 77
52 60 64 63 62 68 66 54 61 65 69 70 64 68 65 69 71 72 70 76 77 79 83 74 68 77 79 82 79 78 76 70 70 58 58 65 64 72 76 79 75 73 76 76 76
58 64 65 64 66 67 59 59 61 69 68 68 66 66 68 68 69 69 72 77 79 78 81 78 73 73 76 75 75 73 73 68 72 66 65 61 69 76 75 76 77 76 78 79 79
60 61 67 66 63 54 58 58 57 68 71 71 70 69 68 69 68 68 71 73 79 80 74 78 74 68 73 77 76 77 75 74 70 60 63 67 72 79 76 76 77 79 78 77 77
59 61 68 68 58 58 58 61 64 67 68 70 69 71 71 69 65 69 70 77 77 79 75 74 69 65 68 74 74 74 70 69 67 68 63 65 71 77 77 74 75 76 75 75 76
59 60 64 63 59 59 58 59 60 68 68 70 69 71 69 68 69 68 71 75 75 77 67 75 68 69 66 70 73 69 70 71 73 69 65 71 73 79 80 75 74 74 75 75 75
57 55 56 58 59 58 59 59 58 59 66 68 67 68 69 66 67 68 70 73 74 69 72 76 69 68 70 71 73 74 72 70 71 73 72 73 72 78 71 69 73 74 73 74 74
56 57 57 57 54 57 52 57 57 61 62 64 64 70 68 66 70 68 68 70 70 73 71 69 66 68 69 72 74 71 73 72 72 71 72 72 72 71 69 71 72 73 73 72 74
54 55 55 51 56 59 58 57 58 61 67 69 68 66 66 70 72 72 73 70 69 69 68 68 65 65 63 68 71 65 71 73 71 70 73 71 76 71 71 71 72 72 72 72 72

GFSSW_sfc_temp_042.txt.gz
Temp
62 62 62 62 62 62 62 62 63 63 63 63 63 63 62 62 63 83 97 94 93 81 82 103 102 101 100 99 101 101 91 88 87 86 90 98 93 96 99 92 92 93 93 96 93
61 61 62 62 62 62 62 62 62 62 62 62 62 62 62 62 85 98 87 84 82 81 101 101 98 100 97 100 101 97 91 88 95 95 94 96 95 95 93 91 89 89 92 94 92
61 61 61 62 62 62 62 62 62 62 62 62 62 62 62 68 92 97 81 81 81 88 101 101 101 101 97 101 98 97 93 95 96 97 98 97 95 99 94 89 94 91 89 91 91
60 61 61 61 61 62 62 62 62 61 61 61 62 62 63 84 84 99 82 81 82 99 102 100 100 98 96 94 98 92 96 96 98 98 97 95 99 95 96 97 98 97 94 93 91
60 60 60 61 61 61 61 61 61 61 61 61 62 62 81 93 94 99 83 86 100 102 99 98 97 97 94 96 95 94 95 97 100 98 98 98 95 95 95 101 98 97 94 93 93
59 59 59 60 60 60 60 60 60 60 61 62 62 61 91 88 101 100 100 100 102 102 100 101 97 98 96 95 95 96 96 97 99 97 97 95 97 97 98 101 95 93 93 94 94
59 59 59 59 60 60 60 60 60 60 61 63 64 79 89 93 102 103 102 102 103 102 99 101 101 98 98 94 97 97 94 98 98 98 97 99 91 91 101 98 94 93 93 94 93
59 59 59 59 59 59 59 59 59 61 62 65 64 87 91 101 104 99 104 103 104 105 102 102 103 100 97 98 97 94 94 88 95 96 97 96 87 97 100 97 93 93 93 92 92
58 58 58 58 58 58 57 57 60 64 66 67 84 91 90 92 97 103 104 100 102 103 102 101 101 97 97 92 90 92 85 84 88 95 94 92 89 95 99 97 94 93 92 92 92
58 57 57 57 57 57 57 59 65 66 74 84 88 86 95 92 98 99 103 101 98 98 97 96 97 93 94 91 79 83 84 86 84 92 94 91 91 96 96 96 93 93 91 92 92
57 57 57 57 57 56 67 90 88 87 88 90 90 88 91 97 99 98 101 98 98 95 88 91 88 85 90 92 90 88 85 83 88 92 89 89 89 92 94 94 92 91 89 91 92
57 57 56 56 56 56 70 88 80 79 81 92 90 89 94 95 89 95 101 92 90 85 88 86 84 90 89 88 88 87 85 84 88 90 90 89 88 91 92 91 92 93 90 91 91
56 56 56 55 55 71 84 82 85 84 81 88 89 90 92 94 90 93 98 94 88 85 86 84 88 88 86 86 85 87 85 84 84 88 92 89 86 87 90 91 91 93 95 93 90
56 56 55 53 66 81 85 83 86 85 78 82 85 90 91 94 88 99 101 94 88 84 84 86 92 86 85 84 88 83 91 87 86 84 80 89 77 84 87 87 88 90 92 93 92
55 55 54 53 74 83 82 87 89 84 63 81 85 95 92 90 91 91 101 94 85 84 84 83 84 85 83 87 91 85 90 88 86 84 82 83 80 84 89 86 86 88 90 89 88
55 54 54 66 75 83 84 86 85 72 62 77 85 84 84 88 89 90 91 97 94 85 86 86 90 89 89 88 90 90 87 86 86 86 75 79 79 80 85 84 86 88 87 86 87
54 53 56 72 82 82 85 84 72 65 79 76 79 84 85 83 86 87 84 83 81 74 75 83 85 91 91 86 88 88 84 73 71 73 73 80 78 81 88 88 86 87 87 87 87
53 52 59 73 79 80 84 77 61 72 74 80 80 82 78 84 84 84 83 80 87 84 82 75 73 85 91 88 84 85 85 75 62 68 74 78 73 80 88 88 88 89 88 87 86
51 76 78 82 77 79 79 66 69 72 76 75 80 76 78 81 81 83 82 82 86 86 76 77 77 89 89 91 91 82 79 88 76 78 73 79 80 88 89 87 86 86 86 85 86
73 79 79 77 78 79 74 64 72 75 77 77 72 76 73 78 78 79 80 86 84 89 91 82 74 87 87 90 88 87 91 77 79 65 63 73 74 80 84 86 86 84 85 86 86
72 75 76 82 80 77 68 72 72 77 77 74 73 73 76 75 79 79 80 84 89 88 91 88 81 80 84 82 83 82 82 82 84 78 71 67 73 87 86 85 86 86 87 86 88
77 72 80 80 72 75 70 71 59 76 79 77 77 76 75 76 76 77 79 84 89 92 82 88 83 75 80 87 87 87 84 84 76 69 76 74 76 92 88 87 86 88 87 88 87
75 76 81 79 67 68 70 71 72 73 75 76 75 77 79 76 71 77 79 85 86 88 84 87 79 71 74 82 84 81 84 85 83 80 72 71 75 91 90 87 85 86 85 84 85
73 68 74 77 77 70 66 68 68 75 74 77 76 78 77 75 79 75 79 83 84 87 70 81 81 74 74 77 84 76 79 82 83 75 76 78 79 86 85 85 84 84 83 84 83
75 68 68 68 70 71 69 67 66 67 75 75 74 75 75 71 76 75 80 82 82 72 81 85 73 79 82 83 82 82 81 79 78 81 76 79 80 82 80 79 83 84 82 82 82
70 69 73 71 66 68 59 67 66 70 70 71 70 77 77 72 76 74 79 79 80 82 81 84 75 80 77 83 83 79 82 81 81 82 82 83 80 83 82 81 81 82 82 81 81
71 71 68 58 68 68 69 67 66 69 73 77 75 74 73 77 83 83 84 81 80 78 78 78 78 73 71 80 79 73 80 81 83 85 84 78 80 83 80 79 80 80 81 81 81

GFSSW_sfc_temp_045.txt.gz
Temp
63 63 63 63 63 63 63 63 63 63 64 63 63 63 63 63 63 86 99 94 96 83 84 105 105 104 105 102 106 107 71 68 91 89 94 102 99 102 104 99 98 99 99 99 98
62 62 62 63 63 63 63 63 63 63 63 63 63 63 63 63 89 102 86 84 85 85 102 104 101 105 101 102 106 100 72 85 100 99 98 101 100 100 99 97 94 94 99 98 98
61 61 62 62 63 63 62 62 63 63 62 62 63 63 63 68 93 101 82 83 84 86 108 108 108 105 99 105 104 102 86 99 100 102 102 102 99 103 98 94 98 94 94 96 96
61 61 61 62 62 62 62 62 62 62 62 62 62 63 64 89 86 101 85 85 84 102 107 105 104 100 97 97 103 96 100 100 103 103 101 99 104 99 100 100 104 102 99 97 95
61 61 61 61 61 61 61 62 61 61 61 62 62 63 87 95 99 101 86 86 103 108 106 104 101 101 96 101 100 98 99 101 103 103 102 103 99 98 99 105 105 103 99 97 97
60 60 60 60 61 61 61 61 61 61 61 62 63 62 92 91 108 109 108 108 109 108 107 106 104 105 100 99 98 101 100 101 103 102 102 99 100 101 102 106 102 100 98 99 98
59 59 59 60 60 60 60 60 60 60 61 63 65 84 96 97 109 111 110 109 109 109 105 107 107 103 104 98 104 102 96 100 102 101 100 102 95 95 104 105 100 99 99 99 98
59 59 59 59 59 59 59 59 60 61 63 66 67 92 94 108 112 107 111 109 111 111 108 108 109 105 102 106 100 96 98 91 99 99 101 100 83 82 105 102 99 99 98 97 97
58 58 58 58 58 58 58 58 60 64 66 69 86 96 94 92 103 111 111 105 108 109 109 107 106 102 103 94 91 95 83 79 92 100 98 97 91 99 105 102 99 98 97 97 96
58 58 58 57 58 57 57 58 68 67 74 92 97 91 99 97 104 106 111 107 103 104 101 100 100 95 96 93 81 86 88 88 87 95 97 95 94 100 102 102 99 99 97 96 95
58 57 57 57 57 57 67 98 91 87 94 94 96 97 97 104 106 103 108 103 103 99 91 98 91 87 92 95 95 93 90 88 92 96 93 93 93 96 99 101 99 98 96 95 96
57 57 57 57 56 56 69 93 89 88 85 100 99 99 101 102 95 100 108 96 95 89 95 92 86 95 98 95 93 91 88 88 93 95 94 93 92 96 98 98 100 100 98 96 97
57 56 56 55 56 69 92 90 97 96 86 95 99 98 100 102 95 98 102 99 93 89 91 87 92 96 92 91 88 90 88 88 87 92 96 92 88 91 95 98 99 100 99 99 97
56 56 55 53 66 93 91 94 99 96 79 87 90 96 99 99 93 105 106 99 93 88 91 91 97 90 89 88 91 84 95 92 89 87 81 92 77 87 92 93 95 97 97 97 97
56 55 55 53 78 89 91 98 99 94 65 90 91 102 102 94 97 97 106 100 90 90 90 87 90 89 86 89 94 88 95 91 90 87 86 86 82 87 92 89 93 95 96 97 95
55 55 54 73 81 93 96 97 93 75 64 83 92 89 90 93 95 97 97 102 100 91 92 91 96 95 93 95 95 97 91 90 90 88 77 84 84 84 87 88 92 94 93 92 92
54 54 57 79 87 94 95 90 74 68 86 82 85 90 90 88 90 91 88 87 85 77 79 87 89 95 96 89 94 92 86 75 73 74 73 86 81 85 91 93 93 93 92 92 91
53 52 64 83 92 91 89 80 64 79 82 88 87 89 84 90 89 90 88 84 90 89 85 79 77 89 95 91 87 87 87 77 66 70 75 83 75 83 94 96 96 96 93 92 91
51 79 85 90 90 89 82 69 72 80 85 82 87 81 84 88 88 88 86 86 90 91 80 81 80 95 95 96 94 87 81 92 80 82 77 82 85 91 94 94 94 93 91 91 90
73 87 88 90 90 86 77 66 80 84 84 84 76 84 79 84 83 85 84 90 90 94 95 88 77 91 93 95 95 90 94 80 82 66 66 74 77 80 85 89 91 91 91 90 92
74 81 86 92 90 81 71 76 82 86 84 81 81 81 82 82 84 84 84 90 93 93 95 92 84 86 90 85 85 86 84 86 88 82 72 63 72 90 88 90 91 92 92 91 92
82 76 88 90 75 79 75 81 60 81 85 84 82 82 81 83 81 83 83 88 96 95 87 92 86 78 83 93 95 93 88 87 78 73 80 77 70 93 93 93 93 93 91 94 94
79 82 89 87 72 76 80 77 79 80 81 81 80 84 84 80 75 82 85 92 92 92 88 91 82 74 77 87 90 85 89 89 88 84 74 72 73 95 93 92 93 92 91 90 90
78 73 79 81 84 76 76 73 74 82 81 83 81 84 80 78 82 79 83 88 91 92 74 85 84 77 75 79 87 81 85 88 85 78 78 78 78 76 86 89 89 89 89 89 88
80 77 78 72 76 77 76 75 73 73 80 82 78 79 78 74 77 78 84 87 89 78 87 88 75 81 84 87 88 86 84 85 82 84 79 67 73 66 85 87 90 90 87 87 87
73 75 81 81 73 73 64 72 72 76 77 75 74 80 82 75 78 77 82 84 83 89 85 89 76 80 79 86 87 82 86 86 86 87 85 84 74 68 81 89 87 86 86 85 86
82 81 77 66 74 73 75 73 73 76 78 80 81 79 78 81 86 88 89 87 86 82 82 82 79 76 72 83 83 76 83 85 86 88 88 80 82 87 85 85 85 85 86 86 87

GFSSW_sfc_temp_048.txt.gz
Temp
63 63 63 63 63 63 63 63 63 64 64 64 63 63 63 63 64 83 96 95 94 80 85 103 103 105 106 102 105 104 79 80 84 78 84 85 82 100 102 97 98 100 98 97 97
62 62 62 62 63 63 63 63 63 63 63 63 63 63 63 63 85 97 89 84 82 84 100 102 102 105 100 101 103 94 75 80 93 100 95 92 86 88 84 87 92 95 98 98 97
62 62 62 62 62 62 62 62 62 62 62 62 62 63 63 67 89 98 83 84 85 86 102 105 107 104 98 102 101 88 82 93 97 101 103 95 89 88 83 78 90 91 92 95 95
61 61 61 62 62 62 62 62 62 62 62 62 62 63 63 85 84 100 82 82 83 98 103 105 103 98 95 94 103 92 94 100 102 103 102 100 101 88 93 92 96 99 97 96 94
60 60 61 61 61 61 62 62 61 61 61 62 62 63 86 92 97 100 83 86 100 101 102 103 100 99 93 98 101 97 98 102 104 103 102 103 100 99 92 101 105 101 98 96 95
60 60 60 60 60 60 61 61 61 61 61 62 63 62 89 88 111 108 108 106 104 106 105 106 102 105 99 98 97 101 100 101 103 103 102 98 99 100 100 105 103 99 97 97 97
59 59 59 60 60 60 60 60 60 61 62 63 64 81 93 95 112 113 110 109 112 109 105 109 109 102 102 96 104 102 94 99 99 102 99 103 91 90 92 88 97 99 98 98 97
59 59 59 59 59 59 59 59 60 61 63 65 67 86 91 111 114 111 111 109 112 112 109 111 109 103 100 103 100 95 95 82 87 90 101 99 82 92 95 82 91 98 98 98 97
58 58 58 58 58 58 58 58 61 64 66 68 82 90 92 96 103 110 112 106 110 110 110 110 105 98 100 92 88 92 83 80 85 95 98 96 86 93 97 93 99 98 97 97 96
58 58 58 58 58 57 57 60 71 69 76 89 94 89 98 98 107 108 112 109 103 104 102 100 97 92 93 89 77 78 71 80 74 91 97 93 92 98 101 101 99 99 97 96 96
58 57 57 57 57 57 65 90 90 85 90 92 95 94 100 105 108 104 109 105 103 99 89 96 89 84 89 92 93 91 78 73 77 88 92 91 92 95 99 100 99 99 95 95 95
57 57 57 57 56 57 64 87 91 93 83 98 100 101 105 105 95 101 109 96 94 87 93 90 85 93 96 96 93 91 87 83 89 96 93 91 91 97 98 98 99 99 97 96 83
57 57 56 56 56 68 88 94 101 100 84 92 99 99 100 103 94 98 103 98 92 88 89 86 91 98 94 91 89 88 86 86 87 93 95 91 87 90 96 98 99 100 100 98 79
56 56 55 53 65 91 92 98 102 100 76 85 93 98 102 102 93 105 107 99 93 88 90 89 96 93 91 88 90 82 93 92 89 86 78 91 74 84 90 92 95 96 98 96 88
56 56 55 54 72 87 94 102 101 95 61 92 94 108 103 94 98 97 107 100 89 90 91 86 90 89 87 89 93 87 95 91 90 85 84 84 80 79 89 82 90 93 95 93 91
55 55 54 74 73 88 99 100 95 73 62 85 93 90 90 94 94 100 98 102 100 91 93 90 99 95 93 95 95 96 91 89 89 85 73 81 81 77 81 82 89 91 92 92 92
55 54 55 75 85 98 97 90 71 65 86 82 86 91 89 88 90 93 89 87 83 76 78 87 89 95 96 89 94 91 84 72 69 71 70 85 81 80 88 92 92 88 90 91 90
53 53 64 80 93 95 90 78 61 76 80 92 90 91 85 89 89 90 87 83 89 87 82 77 75 89 95 89 86 86 84 74 63 66 64 77 70 80 91 94 94 93 92 90 89
52 79 80 89 89 91 80 66 69 78 88 87 88 82 83 88 89 87 86 85 89 90 78 78 80 95 95 95 93 85 79 89 78 80 73 71 72 89 93 92 92 90 90 89 89
64 80 87 95 94 86 74 63 77 88 88 87 76 84 78 83 84 85 84 90 89 94 95 86 76 90 94 96 95 89 94 78 80 64 63 74 71 69 78 86 89 89 89 89 89
69 77 89 96 92 79 68 73 80 89 88 81 79 79 81 82 86 84 84 90 94 93 96 91 83 83 91 85 84 86 83 84 85 80 62 62 57 74 63 71 88 90 91 91 91
78 73 91 93 73 76 72 79 76 87 88 84 84 82 81 84 82 83 83 89 97 96 87 91 85 76 81 93 95 91 86 85 74 71 77 75 71 87 80 91 93 91 91 92 94
72 82 90 89 69 74 79 81 85 83 83 82 80 84 86 81 75 82 85 93 95 93 85 90 81 72 75 85 91 85 88 88 85 81 72 63 71 87 86 84 88 90 90 91 91
73 73 80 81 81 75 75 77 77 84 82 84 83 85 82 79 83 78 82 91 92 92 78 84 82 76 71 76 85 79 84 87 84 75 76 75 68 71 75 69 67 89 89 89 89
75 75 80 71 75 76 78 78 76 75 82 83 78 80 78 73 76 77 83 86 91 83 88 86 74 79 82 85 86 84 83 85 81 82 76 75 69 70 69 70 72 88 88 87 87
72 73 77 78 77 76 68 72 73 77 78 76 74 79 80 74 76 75 81 82 81 88 85 87 74 78 75 83 84 82 82 67 82 86 84 84 69 70 75 77 78 85 85 85 86
81 82 76 69 75 73 74 74 75 79 81 82 80 79 77 81 86 88 89 87 85 81 79 79 77 73 68 80 80 74 82 85 86 88 87 78 77 74 72 75 78 83 86 86 87

GFSSW_sfc_temp_051.txt.gz
Temp
62 62 62 62 63 63 63 63 63 63 63 63 63 63 63 63 63 74 86 93 90 80 82 96 93 93 94 90 94 92 71 68 76 73 79 84 81 91 95 90 93 94 89 88 91
62 62 62 62 63 62 62 62 62 63 63 63 63 63 63 62 73 85 91 82 79 79 95 94 94 95 86 89 89 84 74 76 85 87 84 86 84 85 85 86 86 87 90 91 91
61 61 61 62 62 62 62 62 62 62 62 62 63 63 62 63 76 90 82 81 80 81 96 96 96 95 87 89 87 82 78 87 91 93 91 82 85 92 85 78 84 83 85 88 88
61 61 61 61 62 62 62 62 62 62 62 62 62 63 63 69 75 97 81 81 80 89 95 94 94 86 82 82 92 81 89 94 95 94 88 83 83 83 85 83 91 90 89 88 86
60 60 60 61 61 61 61 61 61 61 61 62 62 63 69 75 87 96 81 81 89 93 92 92 89 87 82 87 91 88 90 94 96 95 91 89 84 86 82 92 90 93 91 87 85
60 60 60 60 60 60 60 61 61 61 61 62 63 63 70 76 101 97 92 92 95 93 93 94 92 94 88 88 85 91 93 95 93 93 95 90 89 89 81 87 90 89 87 89 87
59 59 59 60 60 60 60 60 60 61 62 63 64 75 79 82 101 99 93 95 97 96 93 99 99 88 89 85 93 93 84 85 88 88 88 91 82 80 87 91 92 86 90 89 87
59 59 59 59 59 59 59 59 60 62 63 64 66 73 73 101 98 103 100 98 100 99 98 100 99 90 85 91 90 84 79 69 83 91 91 86 72 79 86 87 86 87 90 89 69
58 58 58 58 58 58 58 58 61 64 64 67 67 70 77 95 97 99 98 98 99 99 98 107 91 81 85 77 72 75 63 71 79 88 87 85 75 83 86 87 84 83 86 78 70
58 58 58 58 58 57 57 61 67 66 69 82 86 73 85 91 97 101 100 102 96 94 93 90 82 74 73 67 60 66 69 74 75 84 86 81 80 86 88 85 83 85 87 74 70
58 57 57 57 57 57 56 70 75 73 73 77 79 85 93 99 101 94 100 97 93 88 75 83 71 66 73 78 82 81 75 74 79 87 79 77 78 83 87 87 84 77 79 74 70
57 57 57 56 56 57 54 69 77 81 71 87 90 92 97 98 90 95 99 86 84 75 81 76 68 81 87 86 84 81 75 73 80 88 80 76 80 82 85 86 86 84 75 71 70
57 56 56 56 56 59 71 80 90 86 69 82 89 88 91 92 89 90 92 89 83 77 78 71 79 91 88 83 81 74 73 74 74 82 87 78 73 77 84 78 84 86 76 74 70
56 56 56 53 60 71 78 86 90 87 60 75 81 88 93 92 85 99 98 91 84 78 80 77 87 87 83 81 80 65 83 85 83 74 63 76 58 69 67 69 73 83 76 75 74
56 56 55 54 57 67 81 90 88 80 48 85 86 99 92 87 88 90 99 89 81 81 78 74 80 80 79 81 84 76 85 81 80 70 64 71 61 58 63 60 66 79 79 79 78
56 55 54 63 57 69 81 86 80 58 51 78 87 83 81 85 88 92 90 91 90 83 83 80 90 84 82 88 87 87 80 75 72 65 55 64 63 61 61 60 69 79 82 82 82
55 54 53 65 68 80 82 75 55 51 78 75 76 81 78 78 82 85 82 76 70 61 63 76 80 85 89 79 82 78 63 53 51 52 52 64 63 62 74 72 76 77 81 82 80
54 53 56 65 75 79 73 61 49 69 71 83 82 81 76 79 79 83 77 72 78 74 66 62 62 79 87 78 72 71 67 53 48 51 57 70 62 68 81 82 85 84 81 82 79
52 63 64 71 71 74 63 52 56 67 80 80 80 74 72 80 80 79 76 73 79 77 65 61 67 86 88 87 81 71 62 73 59 58 55 60 66 76 72 66 77 81 81 79 78
50 63 71 82 81 72 58 53 65 78 82 81 69 74 67 74 72 72 72 81 81 85 79 71 61 77 87 86 83 76 77 62 58 48 47 57 58 59 63 61 64 73 71 78 78
54 61 78 87 81 64 54 60 71 81 81 76 72 70 71 71 73 72 72 81 85 85 81 75 65 72 77 73 71 70 65 65 64 59 52 49 54 65 61 62 63 65 67 78 79
66 60 81 83 60 62 60 67 68 78 83 79 76 74 70 73 70 71 72 79 88 86 76 77 66 60 67 81 85 78 71 67 56 55 56 54 55 71 66 67 67 60 60 66 78
59 67 80 78 55 60 66 72 76 76 78 75 73 76 76 69 61 71 75 87 87 80 69 68 61 54 61 69 72 68 74 67 64 60 56 52 53 70 69 66 64 59 62 67 80
59 60 68 69 70 63 62 66 70 81 78 78 73 75 71 67 69 67 73 84 87 83 75 74 63 59 56 62 68 69 76 72 62 54 58 57 58 62 63 63 65 68 70 72 80
61 63 67 60 64 66 66 68 69 70 76 74 67 71 68 58 64 65 72 76 82 76 77 71 59 60 67 74 76 74 76 73 70 59 56 60 62 61 62 67 69 71 75 77 79
58 62 67 65 69 66 63 64 69 72 70 69 67 74 71 59 63 62 67 64 66 73 69 69 59 59 62 73 75 73 77 76 72 76 73 68 61 65 65 66 70 74 77 77 78
67 69 63 61 64 64 64 68 72 74 75 77 74 70 69 71 74 72 74 70 69 64 66 65 61 58 54 67 69 61 70 72 70 69 70 62 66 67 67 69 69 75 77 77 78

GFSSW_sfc_temp_054.txt.gz
Temp
62 62 62 62 62 62 62 62 63 63 63 63 63 62 62 62 64 75 84 89 88 78 79 89 85 87 85 81 87 84 66 64 69 71 76 82 82 88 91 85 88 88 84 85 87
62 62 62 62 62 62 62 62 62 62 62 62 62 62 62 62 70 78 89 82 79 78 90 89 88 86 77 80 83 75 64 71 79 81 80 86 84 83 83 82 80 81 86 88 87
61 61 61 62 62 62 62 62 62 62 62 62 62 62 62 62 75 84 85 81 78 80 90 91 91 86 79 79 82 78 73 81 85 87 87 84 83 85 80 75 81 77 81 85 83
61 61 61 61 62 62 62 62 62 62 62 62 62 62 62 65 72 93 81 79 78 87 89 89 86 78 75 77 84 77 85 89 90 87 87 83 82 82 83 81 87 85 85 84 75
60 60 60 61 61 61 61 61 61 61 61 62 62 62 63 71 80 93 82 80 85 87 87 86 82 79 75 80 83 80 86 90 94 89 86 87 82 83 83 87 88 87 86 77 71
60 59 60 60 60 60 60 60 60 61 61 62 63 63 67 70 95 91 89 85 87 86 86 87 85 86 82 80 77 83 87 88 87 88 86 82 81 81 84 88 85 86 83 70 71
59 59 59 59 60 60 60 60 60 61 62 63 63 71 71 78 93 91 88 87 89 88 87 91 90 82 82 80 87 84 78 82 84 86 84 84 75 77 83 85 84 84 84 70 72
59 59 59 59 59 59 59 59 60 62 63 64 65 68 69 91 88 93 87 90 91 88 90 93 91 84 79 84 81 78 71 68 80 85 85 83 68 80 83 81 79 84 79 71 70
58 58 58 58 58 58 57 58 61 64 64 66 64 67 71 90 90 92 91 90 91 92 91 101 88 78 82 71 66 67 62 68 76 84 82 80 73 81 84 83 79 79 75 71 70
58 57 57 57 57 57 57 59 63 64 66 75 82 69 78 86 91 94 93 95 90 88 87 85 75 70 67 63 57 62 62 68 70 80 84 77 74 82 84 82 79 76 74 71 69
57 57 57 57 57 57 53 62 71 71 70 71 73 77 85 92 94 91 94 90 87 82 70 76 68 63 69 70 74 71 69 69 75 82 78 76 73 80 79 80 78 74 70 70 69
57 57 57 56 56 56 50 63 71 74 67 80 82 83 89 90 84 90 93 80 78 72 74 69 63 75 78 77 75 73 70 69 74 82 76 75 75 74 80 79 81 75 71 70 69
57 56 56 55 55 56 62 71 80 73 62 73 80 80 83 85 83 85 88 82 77 71 71 65 74 82 80 77 74 68 68 68 71 76 78 73 68 71 76 78 80 79 75 72 69
56 56 55 53 59 58 66 76 74 74 54 66 73 81 85 84 80 92 91 86 77 74 74 70 80 80 77 75 75 60 76 77 75 67 59 71 55 62 64 68 71 73 72 71 70
56 56 55 54 48 58 73 73 74 72 45 76 76 89 82 80 81 84 93 82 76 77 73 71 74 74 73 77 78 73 80 75 74 65 60 64 56 60 60 63 68 70 74 72 71
56 55 55 54 48 58 66 70 70 55 46 70 80 76 75 76 81 85 84 84 84 77 74 74 81 79 78 82 80 81 74 68 62 58 53 58 59 56 58 64 65 73 76 74 73
55 54 53 57 58 63 67 65 52 45 69 68 69 69 72 72 74 78 76 70 67 60 59 71 74 77 83 74 76 74 59 50 50 50 51 58 57 62 68 68 72 74 76 76 76
53 52 51 55 53 61 62 57 42 60 62 73 73 71 68 71 72 76 70 67 70 67 60 58 59 72 81 75 69 65 61 51 45 46 53 62 55 63 70 71 74 72 70 71 71
52 50 51 56 59 61 57 44 49 58 71 71 70 63 64 70 72 70 68 67 72 71 62 56 61 77 81 80 78 68 59 65 55 48 51 54 57 68 70 69 68 68 71 72 73
45 49 55 69 64 60 52 46 54 69 72 69 59 65 61 66 65 64 63 72 75 77 72 66 58 71 81 78 76 74 73 58 52 47 44 52 55 55 59 62 65 64 66 65 70
45 54 67 71 67 57 46 49 62 73 74 66 64 62 62 63 62 60 64 74 77 78 72 66 62 72 73 66 66 67 62 58 58 53 49 45 51 59 59 63 60 64 67 68 71
47 51 71 75 56 50 50 59 64 70 73 69 70 68 64 65 61 62 64 71 79 75 69 69 61 58 68 72 78 71 66 59 53 54 51 51 49 64 62 62 65 65 70 72 73
46 52 69 70 51 51 57 65 69 69 70 67 68 69 67 61 57 64 68 79 80 76 64 63 55 52 59 63 69 64 66 62 57 52 50 49 47 64 64 62 66 66 68 69 71
45 50 59 60 55 53 52 59 61 74 72 71 69 67 64 61 59 60 66 76 79 75 70 67 54 55 53 57 65 63 70 65 60 52 51 53 50 56 60 62 62 62 66 68 71
47 51 57 51 55 55 55 59 60 61 70 70 61 64 60 51 58 59 64 67 74 71 70 64 57 55 60 66 69 66 69 71 64 59 57 56 54 58 61 63 63 65 66 67 70
49 53 58 54 57 55 53 55 61 65 62 64 62 69 62 52 55 57 59 55 60 68 64 61 56 55 57 68 68 66 70 71 70 67 66 63 58 65 66 64 64 67 68 70 73
55 57 56 54 54 55 55 64 68 69 67 68 66 62 63 64 65 62 62 62 61 57 60 58 56 53 50 61 63 56 65 66 67 67 65 59 64 68 62 65 66 68 72 74 74

GFSSW_sfc_temp_057.txt.gz
Temp
62 62 62 62 62 62 62 62 62 63 63 63 62 62 62 62 63 71 79 89 84 78 82 80 79 81 82 77 82 79 65 62 67 68 73 78 77 85 87 81 84 84 80 81 82
61 61 61 62 62 62 62 62 62 62 62 62 62 62 62 62 67 75 86 82 79 78 85 82 80 80 73 74 77 72 61 67 76 78 77 80 82 83 80 78 76 78 81 81 79
61 61 61 61 62 62 62 62 62 62 62 62 62 62 62 61 73 82 82 80 78 79 88 88 86 83 75 76 77 71 69 76 80 84 83 78 81 84 77 72 76 75 75 78 77
60 61 61 61 61 62 62 62 62 61 61 62 62 62 62 65 70 89 80 79 78 85 86 85 82 75 73 73 79 72 80 82 84 84 82 80 80 79 79 80 84 82 80 78 72
60 60 60 60 61 61 61 61 61 61 61 62 62 62 64 70 79 85 80 80 83 85 84 83 78 77 72 76 80 73 81 85 86 85 82 84 79 80 80 82 84 84 83 74 73
59 59 59 60 60 60 60 60 60 61 61 62 62 62 66 68 90 86 85 83 84 82 82 83 82 82 78 77 74 80 81 82 83 81 82 80 77 79 80 83 82 82 80 73 73
59 59 59 59 59 60 60 60 60 61 62 63 63 68 68 76 88 86 84 82 83 84 83 86 86 78 78 76 81 81 75 78 80 81 79 81 74 74 80 82 80 80 78 74 72
58 58 58 59 59 59 59 59 60 61 62 64 64 65 67 86 84 87 82 84 85 83 85 88 86 80 77 80 78 75 68 65 75 78 80 80 67 77 79 79 77 79 78 72 71
58 58 58 58 58 58 57 58 61 63 65 65 61 64 70 86 84 86 87 86 85 85 84 95 83 75 76 68 64 64 60 63 71 80 79 75 69 75 80 79 77 78 74 71 68
57 57 57 57 57 57 57 58 62 62 66 71 78 66 76 81 87 90 84 88 85 83 84 80 72 67 64 62 56 59 61 64 66 76 77 73 74 74 79 79 77 78 73 70 68
57 57 57 57 57 56 53 62 69 67 67 69 71 74 79 87 89 86 88 87 82 77 68 71 66 61 68 67 69 68 66 64 73 78 74 72 70 75 75 79 77 77 71 69 67
57 57 56 56 56 56 50 62 66 65 62 76 77 77 84 85 78 85 87 77 75 69 69 66 61 71 74 73 70 68 65 66 71 78 72 70 68 70 72 76 78 75 70 69 67
56 56 56 55 55 56 57 65 70 62 59 70 75 76 78 81 77 80 85 77 74 68 67 63 70 78 75 72 69 64 63 68 68 72 71 68 64 66 70 72 75 74 73 70 68
56 56 55 54 58 53 61 68 67 64 53 64 68 77 79 81 76 88 87 83 71 71 69 67 75 75 71 70 70 57 72 73 71 64 58 66 54 60 62 65 68 71 70 69 68
56 56 55 54 47 56 67 65 67 68 43 72 72 83 75 78 81 82 85 79 73 73 70 68 70 69 69 73 73 69 73 71 69 60 55 61 56 59 60 64 64 67 70 69 70
55 55 55 52 46 55 61 62 66 54 45 66 74 70 70 71 78 79 80 82 80 73 69 71 75 75 74 78 77 76 69 62 57 54 50 55 56 56 59 61 64 67 68 70 69
55 54 53 55 57 57 59 63 51 44 64 64 64 66 62 65 69 75 72 67 65 57 57 66 69 73 78 70 71 68 56 48 49 48 49 54 55 55 61 65 66 63 62 60 68
53 53 50 52 50 57 60 57 41 57 57 67 68 67 62 66 69 71 67 64 66 63 56 57 57 69 77 71 66 61 59 49 43 44 50 56 51 53 65 69 68 66 66 70 73
52 45 47 51 55 57 57 44 48 54 66 66 66 61 61 66 66 65 63 64 68 67 61 53 57 72 76 75 74 62 57 61 49 44 48 51 55 63 65 65 66 65 68 71 71
44 44 50 59 60 57 51 45 51 62 67 65 56 61 58 62 62 60 62 68 69 71 64 63 56 68 75 74 71 68 68 56 49 44 42 49 52 52 58 61 64 66 67 68 69
45 50 62 60 60 55 46 46 56 68 69 61 57 57 61 61 58 56 61 69 71 72 68 59 57 65 69 64 64 64 57 55 53 49 47 44 49 58 62 63 63 64 67 67 68
44 49 61 62 53 46 47 54 61 65 66 65 63 62 60 63 58 58 60 66 75 69 62 61 57 55 62 68 71 65 61 58 51 49 46 48 51 61 63 62 63 64 68 68 70
43 47 61 63 48 48 51 59 64 63 64 62 62 65 64 61 54 61 64 73 74 70 60 61 52 50 56 60 65 61 61 57 52 49 47 48 52 61 62 62 63 64 66 67 70
43 48 54 57 51 54 51 55 58 69 66 66 65 63 59 55 56 56 62 71 73 71 66 64 50 54 51 55 61 61 64 62 55 50 49 52 53 57 59 59 62 64 63 64 68
43 49 52 48 54 54 55 57 57 58 66 64 58 64 61 51 53 54 59 63 70 68 66 61 54 51 56 62 64 64 65 65 58 56 55 57 55 59 63 62 64 64 64 65 66
49 50 55 53 52 52 50 55 59 63 62 61 58 63 60 55 58 54 57 53 56 64 59 57 53 52 53 62 63 63 67 66 65 62 60 57 56 61 62 61 62 64 64 64 66
50 54 53 51 53 49 51 56 60 61 64 65 64 62 60 64 66 62 62 61 59 54 57 55 52 50 49 56 59 54 61 63 63 62 59 54 61 60 59 62 63 63 66 66 68

GFSSW_sfc_temp_060.txt.gz
Temp
62 62 62 62 62 62 62 62 62 63 63 63 63 63 62 62 63 67 79 87 81 78 81 78 78 79 77 74 78 76 63 60 65 67 72 72 73 80 83 78 81 81 76 78 78
61 61 61 62 62 62 62 62 62 62 62 62 62 63 62 62 66 72 85 80 78 79 80 78 75 76 70 71 73 68 59 66 74 75 75 79 78 78 76 75 75 74 78 78 76
61 61 61 62 62 62 62 62 62 62 62 62 62 63 62 61 72 81 82 79 79 78 85 85 83 78 70 70 72 68 66 72 78 79 80 75 79 80 74 69 74 71 72 74 75
60 60 61 61 61 61 62 62 61 61 61 62 62 62 62 63 67 85 79 78 79 81 85 83 79 73 70 71 78 69 76 78 80 80 79 76 78 78 77 77 82 77 76 75 74
60 60 60 60 60 61 61 61 61 61 61 62 62 62 64 67 78 80 80 79 79 82 83 80 76 74 70 73 75 71 77 79 82 80 78 81 77 79 78 80 81 79 77 74 74
59 59 59 60 60 60 60 60 60 60 61 62 62 62 64 66 85 81 81 79 81 81 80 81 80 80 75 74 71 77 78 78 79 80 79 76 76 78 78 79 78 76 75 75 73
59 59 59 59 59 60 60 60 60 60 61 62 63 66 67 75 85 83 81 80 81 80 80 82 83 76 74 74 78 77 74 76 77 77 76 78 72 73 77 79 76 76 73 73 73
58 58 58 58 58 59 59 59 60 61 62 63 63 63 67 82 79 82 79 80 82 80 80 82 83 76 73 78 76 71 66 63 74 76 78 75 66 76 75 76 74 76 72 71 70
58 58 58 58 58 58 58 58 60 63 65 65 61 63 69 83 81 82 83 83 81 80 79 92 79 71 73 65 62 63 59 60 69 76 74 73 67 76 75 75 73 75 70 70 69
57 57 57 57 57 57 57 58 61 62 65 69 74 65 74 78 82 84 80 83 82 78 79 77 69 65 62 61 54 56 59 61 63 70 71 69 69 75 74 74 73 74 70 69 69
57 57 57 57 56 57 53 62 65 64 63 68 68 72 76 83 85 81 83 82 79 76 65 67 64 59 66 65 66 64 61 61 70 73 69 68 68 72 74 72 72 70 68 67 68
57 56 56 56 56 56 50 63 63 62 57 70 71 73 79 80 75 81 85 75 72 67 66 65 58 70 70 68 66 64 61 62 69 72 68 65 68 67 69 70 71 71 67 66 67
56 56 56 55 55 55 54 61 63 59 55 67 71 72 74 78 74 78 83 76 71 65 65 61 67 74 71 67 65 59 60 62 66 69 67 65 63 64 69 70 71 70 69 68 67
56 56 55 53 57 50 58 61 61 60 52 62 66 74 74 75 72 83 85 81 69 69 67 63 70 72 68 67 66 54 67 71 65 62 56 63 53 59 61 61 64 65 65 66 67
56 55 55 54 45 53 63 56 59 64 42 68 68 78 69 73 74 77 80 78 71 69 67 65 66 66 66 69 69 67 69 65 66 58 53 58 55 58 59 57 63 65 67 68 68
55 55 54 50 45 52 57 57 63 52 43 63 70 66 64 67 74 75 75 78 76 70 65 67 72 72 71 73 73 71 66 60 54 52 49 54 54 55 55 60 61 63 65 69 70
55 54 53 53 54 53 55 61 50 42 61 60 60 63 60 63 66 71 69 66 64 56 55 62 65 70 74 67 67 64 55 47 47 47 48 51 53 56 59 63 63 62 63 67 72
53 52 50 51 48 53 57 56 40 53 54 63 64 61 58 62 63 67 64 62 62 61 53 54 55 66 72 70 66 60 57 48 42 42 48 53 49 57 63 66 66 64 67 70 71
52 44 44 48 52 53 55 44 47 52 61 62 61 57 58 63 62 62 61 61 66 65 59 51 56 69 72 71 72 58 55 57 47 42 46 48 54 61 63 61 62 62 66 67 68
42 42 48 53 54 54 51 45 49 58 62 61 52 57 52 59 59 57 57 65 64 68 63 59 54 63 72 70 68 63 65 54 48 43 40 46 50 53 56 58 61 62 64 66 69
43 48 57 53 52 53 44 44 54 62 64 57 54 55 55 57 55 54 56 66 67 65 64 57 57 60 65 60 61 60 55 51 50 47 45 43 49 58 61 62 61 64 67 65 67
41 48 56 55 50 40 45 51 58 62 63 63 59 58 57 59 56 56 57 62 70 65 60 57 54 51 61 64 66 62 58 54 50 47 44 47 51 62 61 63 63 65 67 66 69
40 43 56 57 45 43 47 56 60 60 61 58 58 62 60 56 52 58 61 70 70 65 58 58 51 48 54 58 60 60 58 53 49 47 45 47 52 61 59 61 64 64 65 66 68
42 45 52 52 48 47 49 52 55 65 63 62 62 59 56 53 53 54 59 67 69 66 66 62 48 51 50 54 57 56 61 58 54 49 48 50 56 61 60 59 63 64 63 65 67
43 47 53 50 50 48 50 55 55 56 61 61 54 60 58 49 51 51 56 62 67 66 60 59 52 48 53 58 60 61 63 62 56 55 55 56 55 61 62 63 64 63 63 64 66
47 48 51 51 49 51 49 52 56 59 58 57 55 61 59 54 57 55 56 52 54 61 56 54 51 49 51 60 61 60 63 64 62 58 58 57 57 61 63 62 64 65 63 63 65
49 51 47 48 49 48 51 55 59 59 63 64 62 58 58 61 63 59 60 60 56 54 55 53 51 49 47 54 57 53 58 61 63 61 60 55 62 63 63 61 63 64 63 65 66

GFSSW_sfc_temp_063.txt.gz
Temp
62 62 62 62 62 62 62 62 63 63 63 63 63 63 63 62 63 71 85 92 83 78 83 85 85 83 83 81 84 85 79 76 79 79 84 87 85 88 90 85 86 87 85 87 86
61 61 61 62 62 62 62 62 62 62 62 62 63 63 62 62 73 83 87 79 78 79 85 84 81 82 81 81 84 82 78 79 87 89 87 89 88 87 85 83 82 82 84 85 84
61 61 61 61 62 62 62 62 62 62 62 62 62 63 62 64 83 92 80 79 79 84 90 91 88 85 81 84 84 81 81 88 89 91 92 89 88 91 86 79 85 82 83 83 83
60 61 61 61 61 62 62 62 62 61 61 62 62 62 63 75 78 92 79 79 79 91 91 90 86 84 83 83 87 80 86 87 90 93 89 85 90 87 88 90 93 89 87 84 82
60 60 60 60 61 61 61 61 61 61 61 61 62 62 78 83 86 86 79 80 85 90 91 90 87 87 83 86 85 83 87 89 92 89 88 87 87 88 87 89 91 87 85 84 84
59 59 59 60 60 60 60 60 60 61 61 62 62 62 82 78 92 87 85 84 89 89 90 91 90 90 86 84 83 88 88 89 90 87 86 84 86 86 87 87 84 83 84 85 85
59 59 59 59 59 60 60 60 60 60 61 62 63 70 79 85 92 90 90 90 91 92 90 92 93 90 88 84 88 88 85 90 89 88 86 88 83 83 85 86 82 82 83 84 83
58 58 59 59 59 59 59 59 59 61 62 64 64 74 81 91 91 88 89 91 91 93 93 94 93 90 87 89 87 84 82 80 87 87 84 87 81 90 85 84 81 81 81 81 81
58 58 58 58 58 58 57 58 60 63 65 65 73 79 81 87 89 95 93 93 91 91 91 94 92 85 86 82 80 79 77 75 80 87 85 85 82 91 86 84 81 80 79 80 79
57 57 57 57 57 57 57 58 63 64 69 73 78 77 86 87 92 93 91 93 91 91 88 87 84 82 81 81 71 73 74 77 75 83 86 83 82 90 87 83 81 81 79 79 79
57 57 57 57 57 56 58 75 79 77 77 80 79 78 83 91 92 91 93 90 91 88 82 80 80 76 80 79 78 77 74 74 80 83 80 81 80 85 82 82 80 81 77 78 79
57 57 56 56 56 56 60 74 69 70 68 77 76 78 83 88 82 89 94 88 85 80 79 78 75 82 79 78 77 75 74 76 80 81 81 81 81 77 78 78 82 80 77 78 77
56 56 56 55 55 63 62 72 72 72 68 75 79 81 83 86 82 85 90 87 83 78 78 76 80 79 79 78 76 78 74 76 76 79 80 79 77 74 74 75 79 82 80 79 77
56 56 55 54 62 59 68 70 70 70 66 73 76 82 81 84 81 90 94 90 82 79 77 78 81 78 77 76 78 74 80 78 76 75 73 76 71 71 70 68 72 74 76 78 77
56 55 55 54 57 64 70 68 71 70 53 76 78 87 82 82 84 85 89 89 81 78 79 77 76 76 75 78 79 78 79 76 75 75 73 73 74 75 70 71 67 69 75 77 80
55 55 55 55 55 64 66 68 73 64 51 70 78 78 77 80 82 84 85 89 87 80 78 79 82 82 82 82 81 81 77 73 72 75 68 69 72 74 76 75 73 73 75 77 79
55 54 53 56 66 63 66 73 62 54 69 68 71 75 73 74 77 80 78 77 76 69 70 77 77 82 83 78 79 78 75 68 65 66 66 66 69 75 77 75 76 74 75 77 78
54 53 54 57 60 63 70 68 52 61 64 71 72 73 70 73 75 77 74 73 75 75 71 68 67 77 82 81 78 76 76 69 57 61 67 66 67 77 76 76 76 78 77 78 79
52 57 56 61 59 61 68 57 59 61 68 67 71 68 69 72 72 72 75 75 79 77 72 68 68 78 79 82 83 73 71 75 65 61 65 70 71 79 76 74 73 74 74 75 78
49 54 61 61 61 65 64 56 61 65 69 69 63 67 64 68 70 70 71 75 75 77 79 75 68 77 80 82 78 79 78 69 69 58 57 63 64 72 74 75 72 72 73 76 78
55 58 63 62 62 66 58 59 63 69 70 67 65 65 66 66 69 70 70 75 76 75 77 76 74 73 77 76 76 73 73 68 71 67 64 62 68 78 77 78 75 76 78 77 79
54 58 63 64 62 56 59 61 59 70 71 70 70 69 67 68 68 69 70 74 76 77 72 75 74 69 74 77 78 78 76 74 69 61 64 66 71 81 79 78 77 80 78 78 80
52 54 65 64 57 58 60 63 66 68 69 68 67 70 71 68 64 69 71 77 77 76 73 73 68 67 68 73 74 74 73 73 68 68 62 66 72 74 74 75 77 78 78 77 79
51 55 61 62 59 59 60 61 62 69 68 70 69 71 68 67 68 67 70 75 76 74 65 72 65 67 67 69 73 70 71 71 73 68 67 71 73 80 78 75 76 76 78 77 78
53 56 56 57 59 60 61 61 60 60 68 68 66 67 67 64 66 66 70 74 76 69 72 72 66 66 69 70 71 73 73 71 70 72 72 73 72 78 75 73 77 78 76 74 77
52 53 57 57 58 58 55 59 59 63 64 65 63 68 67 65 68 66 70 69 71 75 71 69 66 66 69 70 71 71 73 72 72 70 71 71 72 74 76 78 77 75 75 73 75
56 57 55 54 57 58 60 61 62 64 68 71 69 66 64 70 73 73 74 72 71 70 68 67 67 66 64 66 69 67 69 72 72 70 68 71 69 70 71 71 72 74 75 76 77

GFSSW_sfc_temp_066.txt.gz
Temp
62 62 62 62 63 63 63 63 63 63 63 63 63 63 63 63 63 80 94 96 89 79 84 95 95 93 94 93 93 96 90 86 88 88 91 98 93 96 99 94 93 94 93 97 96
62 62 62 62 63 62 62 62 63 63 63 63 63 63 63 63 85 95 87 80 79 79 96 93 91 92 94 93 96 93 90 89 96 96 95 97 95 96 92 93 90 91 93 97 94
61 61 61 62 62 62 62 62 62 62 62 62 63 63 63 67 91 98 79 79 80 82 101 101 99 95 92 97 95 95 89 96 98 99 100 98 97 100 94 90 94 92 91 93 93
61 61 61 61 62 62 62 62 62 62 62 62 62 63 63 85 84 99 79 79 79 99 100 97 95 92 92 91 96 89 97 98 100 101 99 95 100 95 97 97 101 100 97 94 93
60 60 60 61 61 61 61 61 61 61 61 62 62 63 83 94 95 91 79 81 92 99 97 96 94 95 91 95 94 92 96 99 101 101 98 97 95 95 95 101 100 100 96 95 96
60 60 60 60 60 60 60 61 61 61 61 62 62 61 89 87 101 96 96 92 98 99 99 99 97 99 95 93 92 96 97 98 101 99 95 94 96 94 94 99 96 96 95 96 96
59 59 59 59 60 60 60 60 60 60 61 62 64 78 90 93 103 102 99 97 102 102 98 102 101 97 97 93 97 96 91 97 97 98 97 97 94 92 97 96 94 94 95 95 95
59 59 59 59 59 59 59 59 59 61 63 65 65 87 90 101 104 98 103 101 103 104 102 103 102 98 95 99 95 91 94 86 95 95 96 97 87 97 97 95 91 93 93 92 92
58 58 58 58 58 58 58 58 60 63 66 66 83 90 90 86 95 104 104 100 102 102 101 100 100 96 95 89 87 90 82 86 89 94 95 93 88 97 97 94 91 91 91 91 91
58 57 57 57 57 57 57 58 66 65 73 83 88 85 94 93 99 101 105 102 99 99 95 94 95 90 91 88 77 82 84 86 84 91 93 91 92 96 95 94 92 91 90 90 91
57 57 57 57 57 57 64 90 86 84 87 90 91 91 92 98 101 100 102 98 99 96 87 92 86 83 87 90 88 85 83 82 88 94 88 90 90 91 92 93 92 90 89 89 91
57 57 57 56 56 56 68 85 76 77 77 92 91 91 95 97 88 97 102 93 91 86 91 86 82 90 89 88 86 85 82 82 88 91 89 90 88 88 88 89 93 92 90 90 92
57 56 56 56 55 69 78 81 84 83 77 87 92 92 95 94 90 94 98 95 90 86 88 83 88 89 86 86 82 84 83 82 83 89 91 88 85 86 88 87 90 94 95 93 91
56 56 55 53 66 78 82 82 86 83 74 82 85 91 91 94 88 101 103 97 92 86 88 87 93 88 85 83 87 80 89 85 84 82 78 89 77 84 88 86 86 90 93 92 91
56 56 55 54 69 77 80 87 87 82 59 84 88 96 93 89 92 92 103 97 87 87 88 84 84 83 82 84 88 83 88 85 84 83 84 83 79 84 86 85 87 87 88 90 92
56 55 55 67 73 78 83 85 83 69 58 77 86 84 84 88 89 91 91 97 97 89 89 88 92 90 88 90 89 90 85 86 84 85 74 81 80 81 87 88 90 86 86 88 89
55 54 55 68 78 80 82 82 67 61 77 76 79 84 84 84 85 87 85 83 82 75 76 84 85 91 91 85 90 86 83 72 70 72 71 80 78 82 90 91 88 88 86 86 88
54 53 62 71 79 77 80 73 58 71 74 80 79 81 78 83 83 85 84 81 87 86 81 76 73 86 90 86 83 84 83 74 63 68 73 79 73 83 92 93 88 87 88 87 87
52 77 74 80 75 74 74 63 65 72 76 75 79 74 78 80 79 81 82 82 87 87 77 77 76 88 89 92 90 83 77 89 77 79 74 79 82 89 93 92 89 87 86 86 88
65 72 77 76 75 75 70 61 72 76 77 77 70 75 73 76 77 79 80 86 85 90 92 84 74 86 88 90 88 85 90 76 79 64 63 74 74 78 84 88 87 85 86 86 88
68 69 74 79 77 73 65 69 74 79 78 74 72 72 75 73 76 78 79 82 85 86 90 88 81 81 85 82 82 81 80 82 84 78 69 67 75 89 88 89 88 88 90 89 89
68 66 75 78 68 73 68 72 63 76 81 77 76 75 73 75 74 76 77 81 84 87 81 88 83 75 80 88 89 88 84 84 75 70 77 75 77 95 94 92 90 91 90 91 91
65 69 77 76 65 67 72 70 74 75 76 75 74 77 79 74 69 76 78 84 84 84 82 83 79 71 74 82 84 81 85 85 84 80 73 71 77 94 91 89 88 88 89 87 88
62 63 71 72 73 67 67 68 69 76 75 78 76 79 75 73 78 73 77 82 84 84 67 78 79 74 73 76 83 77 82 84 82 75 76 78 81 84 84 85 86 87 88 86 87
66 66 65 67 68 67 68 68 67 68 75 76 73 74 73 68 72 73 79 81 83 70 81 82 72 76 80 79 81 81 83 83 79 81 77 78 81 79 80 82 84 86 86 84 85
62 63 69 67 66 63 60 65 66 71 72 72 70 76 76 71 74 73 78 79 79 82 82 81 74 76 75 79 79 78 81 82 82 82 81 81 79 83 84 85 82 83 84 83 83
68 69 64 63 67 64 69 68 69 72 74 77 76 75 73 75 81 83 85 82 81 78 76 76 76 73 70 77 77 72 78 80 81 81 81 78 78 81 78 78 78 79 82 82 84

GFSSW_sfc_temp_069.txt.gz
Temp
63 63 62 63 63 63 63 63 63 63 64 64 63 63 63 63 63 86 98 98 93 79 83 101 101 102 103 101 104 105 90 90 91 91 95 104 99 103 105 99 98 99 100 101 100
62 62 62 63 63 63 63 63 63 63 63 63 63 63 63 63 89 98 89 80 79 79 97 99 97 101 100 101 103 99 93 92 100 101 98 102 100 101 98 99 94 96 100 101 99
61 61 62 62 63 62 62 63 63 63 63 63 63 63 63 68 93 102 79 79 80 82 107 106 105 101 99 104 102 100 93 100 101 103 104 102 101 104 99 95 99 95 96 97 97
61 61 61 62 62 62 62 62 62 62 62 62 63 63 63 90 86 101 80 79 80 100 106 104 102 97 97 97 102 94 101 101 103 105 103 100 105 100 101 101 105 103 100 98 96
60 60 61 61 61 61 61 61 61 61 62 62 62 63 86 94 100 93 79 81 95 99 102 101 99 99 94 99 100 97 100 102 105 105 103 103 100 99 99 106 105 105 100 98 98
60 60 60 60 60 60 61 61 61 61 61 62 63 62 89 90 108 99 101 95 102 103 103 104 101 104 98 97 97 100 99 100 104 102 102 99 101 101 100 104 102 101 99 100 99
59 59 59 59 60 60 60 60 60 61 61 63 64 81 94 96 110 107 104 101 106 106 102 107 107 101 102 97 103 101 94 99 101 102 100 102 96 90 102 102 99 100 100 100 100
59 59 59 59 59 59 59 59 60 61 62 65 66 89 92 109 113 106 107 105 108 110 108 109 108 102 100 102 99 94 95 88 99 99 102 99 88 100 103 101 97 99 99 98 99
58 58 58 58 58 58 58 58 60 63 66 69 84 94 92 91 101 108 109 104 106 108 108 107 104 99 99 92 88 91 84 88 92 101 97 97 91 100 104 101 97 98 97 97 97
58 58 58 58 58 58 57 59 71 67 73 90 95 90 99 97 106 108 111 108 104 103 100 97 97 92 94 90 79 84 86 90 88 95 97 94 93 99 102 101 99 97 96 96 96
58 57 57 57 57 57 66 93 90 85 91 92 96 95 99 104 106 103 109 104 103 99 89 95 89 85 90 93 93 91 87 86 91 97 93 92 92 97 99 101 99 97 95 96 97
57 57 57 57 57 57 69 90 85 86 80 96 97 99 103 103 93 101 109 96 94 88 94 91 85 93 96 93 90 88 85 85 91 95 94 92 91 98 98 98 100 99 97 97 97
57 57 56 56 56 69 88 88 94 94 81 90 98 97 99 103 94 97 103 99 93 88 91 86 92 95 92 89 86 87 85 85 86 92 95 91 87 91 98 97 98 100 102 99 97
57 56 56 54 65 87 88 91 96 94 74 83 92 97 100 102 92 104 107 99 94 89 91 91 96 92 90 86 89 83 92 91 88 85 79 92 76 88 94 94 96 98 100 100 98
57 56 55 53 72 83 89 95 96 90 59 88 93 106 103 93 96 98 107 101 89 91 91 87 90 88 85 88 92 86 94 89 88 85 84 85 82 87 93 90 94 98 97 99 99
56 56 55 77 81 87 92 93 90 70 59 82 92 89 90 93 95 98 99 103 100 92 93 91 99 95 92 94 93 95 90 88 88 86 75 83 83 84 87 90 95 97 96 96 96
55 55 56 73 82 92 91 85 69 62 83 79 84 89 88 87 89 92 89 88 84 78 79 87 89 95 95 88 93 90 84 73 72 74 73 87 83 84 93 97 96 96 95 94 95
54 54 66 78 89 88 86 75 59 73 76 88 85 88 83 89 89 90 87 84 90 88 83 78 75 88 94 89 85 86 85 75 65 71 76 85 76 84 96 99 99 95 97 94 94
53 84 85 88 87 85 77 64 66 74 83 80 83 78 80 86 86 87 86 85 89 91 79 78 79 95 95 96 93 85 81 91 80 82 77 82 86 92 97 96 98 95 93 92 93
66 78 84 89 86 81 72 61 74 84 83 81 72 79 75 81 81 82 83 89 88 94 96 86 76 91 93 95 94 90 93 79 81 65 64 76 78 81 87 90 94 93 93 92 93
67 76 83 89 85 76 66 71 77 85 83 78 76 77 79 78 81 81 83 89 92 92 95 91 84 83 90 85 84 85 83 85 86 82 71 69 75 90 90 93 92 93 94 93 94
75 71 85 87 71 76 72 76 70 81 86 81 81 79 77 80 77 79 81 85 91 93 85 91 86 77 83 92 94 92 86 85 75 71 79 78 77 95 96 96 95 96 95 96 96
70 76 86 83 67 73 78 77 80 78 79 79 78 81 83 77 72 79 83 89 89 89 85 90 81 73 76 86 91 85 88 89 87 84 74 72 75 93 95 94 93 94 94 94 94
69 69 78 77 80 72 72 73 73 81 79 81 80 82 79 76 81 75 80 87 88 90 72 83 83 77 73 77 85 80 84 87 85 77 77 80 81 84 87 88 90 91 93 91 92
72 72 74 70 71 75 74 72 70 72 80 80 76 77 76 71 75 76 81 84 88 72 84 86 74 81 83 84 84 84 84 85 83 83 78 78 72 68 84 85 87 91 91 89 90
68 70 75 72 73 70 65 68 69 74 76 74 74 77 80 74 75 74 80 81 81 87 84 87 74 80 78 85 84 82 86 86 86 86 85 85 69 85 86 88 87 87 89 87 88
77 76 70 65 73 71 72 68 70 74 77 80 80 79 77 80 85 87 90 88 86 82 80 79 77 74 70 80 81 74 81 84 86 87 86 77 80 87 83 82 82 84 86 86 88

GFSSW_sfc_temp_072.txt.gz
Temp
63 63 62 63 63 63 63 63 63 64 64 64 64 64 63 63 63 84 94 98 93 78 82 101 99 103 105 100 104 106 89 84 90 91 93 103 98 104 105 98 100 100 99 98 98
62 62 62 62 63 62 62 62 63 63 63 63 63 63 63 63 86 96 96 81 80 79 98 99 98 102 98 100 104 99 88 91 99 100 97 102 100 101 99 93 93 96 98 98 98
62 62 62 62 63 62 62 62 62 62 62 62 63 63 63 66 92 101 80 80 80 83 105 106 105 103 96 101 101 99 90 98 100 102 103 101 101 105 99 85 85 92 93 95 95
61 61 62 62 62 62 62 62 62 62 62 62 63 63 63 87 83 102 80 79 80 99 102 103 101 96 94 93 102 94 99 100 102 104 102 100 103 101 101 100 104 100 98 96 94
60 60 61 61 61 61 62 62 62 62 62 62 62 63 84 92 96 94 80 81 93 95 98 100 97 96 92 96 99 96 98 102 103 103 103 103 99 99 100 105 107 102 99 96 95
60 60 60 60 60 61 61 61 61 61 62 62 63 62 85 85 108 100 101 94 101 98 100 102 100 102 97 95 94 99 99 99 101 101 103 98 100 101 97 105 103 99 97 97 97
59 59 59 59 60 60 60 61 61 61 62 63 64 79 89 92 112 108 104 101 104 103 100 106 106 100 99 93 101 99 93 96 98 101 100 103 94 95 101 103 100 99 98 98 98
59 59 59 59 59 59 60 60 60 62 62 64 66 84 86 109 114 111 108 104 107 109 107 109 109 102 98 100 96 92 92 85 96 100 101 99 86 97 103 101 98 99 98 98 98
59 58 58 58 59 59 58 59 61 63 65 68 80 87 88 99 103 110 109 102 105 106 108 109 105 96 97 89 85 89 80 84 90 101 98 96 89 99 105 101 98 98 97 97 96
58 58 58 58 58 58 58 59 71 70 73 88 92 87 96 96 105 108 111 107 102 102 99 98 95 89 90 86 75 80 83 87 86 96 97 93 91 98 103 101 99 98 96 96 95
58 58 57 57 57 57 63 85 89 85 89 88 93 91 99 106 110 105 108 103 102 98 87 93 85 80 86 90 91 89 86 85 90 96 93 91 91 95 100 101 99 97 95 95 95
58 57 57 57 57 58 65 86 89 89 78 92 93 96 102 106 96 100 108 95 92 85 91 88 82 90 94 93 91 89 84 83 89 95 92 90 89 95 98 98 100 99 96 96 96
57 57 57 56 56 68 88 89 97 96 79 84 93 93 97 102 95 96 103 98 91 86 87 84 89 95 92 90 87 86 83 84 84 91 94 90 85 89 97 100 100 101 100 98 97
57 57 56 54 68 83 85 95 98 97 70 78 87 93 97 99 91 104 105 98 92 86 89 88 95 92 90 87 89 80 91 89 87 84 76 90 73 84 91 94 96 98 100 99 97
57 57 56 55 70 78 90 95 96 90 53 84 91 105 100 93 95 96 106 98 88 88 89 84 89 88 86 88 92 85 92 89 88 83 81 82 78 83 92 89 92 96 99 100 98
56 56 56 74 72 81 93 95 89 67 55 78 91 90 90 93 93 97 97 101 99 90 91 89 98 94 92 94 93 94 89 88 87 83 71 79 79 80 86 89 93 91 97 99 97
56 55 56 69 77 90 91 84 65 58 79 76 80 88 87 86 89 90 88 87 83 76 76 85 87 94 96 88 93 90 83 70 67 69 68 83 80 82 91 94 95 90 95 96 97
54 54 67 76 86 88 85 72 55 70 73 84 84 86 81 87 87 87 85 82 89 86 80 75 72 87 94 89 84 85 83 71 60 66 72 82 75 83 97 100 98 98 95 95 95
53 79 84 87 86 87 75 61 63 70 79 78 80 75 78 85 85 85 83 82 87 88 77 76 76 93 93 95 91 83 78 88 76 78 73 78 83 92 96 96 97 94 94 93 93
62 73 80 94 91 82 70 59 70 80 82 82 71 77 72 78 79 80 80 88 86 92 93 84 73 87 91 95 94 88 91 75 78 62 61 73 76 78 83 89 93 91 92 92 93
67 74 87 94 89 75 64 68 75 83 83 78 75 74 76 76 77 76 76 85 89 91 93 89 82 80 88 82 83 84 81 82 82 78 67 65 73 87 86 90 91 93 94 92 93
73 68 88 91 71 73 69 74 69 80 85 82 81 78 75 77 75 75 75 79 86 87 84 89 84 75 79 90 94 89 84 83 73 68 75 73 74 89 93 95 95 95 93 93 94
66 74 90 86 65 70 77 78 80 79 80 79 77 80 81 75 70 77 79 86 88 86 80 85 79 70 74 83 88 84 86 86 84 80 70 68 74 91 90 91 92 92 93 92 93
68 68 79 80 78 72 70 72 73 82 79 80 78 80 78 75 79 74 77 84 89 88 73 83 79 73 69 75 82 76 84 86 83 73 74 76 69 73 71 73 82 89 90 91 92
70 71 76 61 72 74 74 73 71 71 80 81 75 76 74 69 73 73 79 82 86 78 85 83 71 76 81 83 83 80 80 83 80 81 75 78 68 69 69 66 68 86 88 89 90
66 68 73 70 72 71 67 69 70 72 71 71 72 75 76 72 73 71 77 78 77 83 76 81 71 76 74 82 82 79 83 83 83 84 83 83 70 78 75 79 82 84 87 87 88
76 75 70 63 70 71 71 70 72 75 76 78 76 75 72 77 83 86 87 85 84 79 74 70 74 71 67 67 68 68 80 77 83 85 83 75 74 76 75 76 76 81 85 86 87

GFSSW_sfc_temp_075.txt.gz
Temp
63 62 62 62 63 63 62 63 63 63 63 63 63 63 63 63 62 72 83 92 88 79 81 95 93 93 93 91 94 94 73 70 78 82 84 86 86 91 93 93 93 95 89 89 91
62 62 62 62 62 62 62 62 62 63 63 63 63 63 63 62 72 83 92 83 80 79 92 93 91 95 86 89 92 83 74 80 89 88 86 94 94 91 86 84 82 87 91 92 91
61 61 62 62 62 62 62 62 62 62 62 62 63 63 62 63 78 90 81 80 79 80 97 98 97 95 87 89 90 88 78 89 92 92 93 88 94 94 82 77 83 83 86 89 88
61 61 61 62 62 62 62 62 62 62 62 62 62 63 62 72 74 95 80 78 79 89 93 94 93 85 82 81 92 84 91 92 92 94 93 89 92 92 90 87 91 91 89 89 86
60 60 60 61 61 61 61 62 61 62 62 62 62 63 71 75 85 88 80 80 85 88 91 90 87 86 81 86 89 84 89 93 93 93 95 97 91 93 93 95 96 93 91 87 86
60 60 60 60 60 60 61 61 61 61 62 62 63 62 69 73 98 90 91 85 90 88 89 92 89 92 87 86 83 88 90 91 93 93 95 93 92 93 91 96 94 91 88 89 87
59 59 59 59 60 60 60 60 61 61 62 63 64 73 77 80 98 94 93 89 91 91 89 95 96 89 88 83 91 89 82 87 88 91 91 95 84 85 93 95 91 90 90 89 88
59 59 59 59 59 60 60 60 61 62 62 64 65 71 69 96 97 99 96 93 96 95 95 98 97 89 82 88 86 80 77 69 86 90 93 88 74 90 92 91 88 91 91 89 87
59 59 59 59 59 59 58 59 61 64 65 67 65 68 73 96 92 98 99 95 96 96 95 104 94 81 84 74 68 72 66 71 79 91 91 86 76 89 93 91 88 89 89 89 86
58 58 58 58 58 58 57 60 66 67 68 78 83 71 83 87 96 99 99 100 95 93 91 89 81 73 72 66 58 65 67 72 75 86 89 82 80 88 89 91 88 87 87 87 85
58 58 58 58 58 58 57 63 78 71 74 74 77 81 89 97 102 97 100 96 94 88 76 82 70 64 71 76 79 79 76 73 79 86 80 78 77 84 88 87 86 85 85 85 84
58 58 57 57 57 58 55 64 78 77 68 83 85 86 91 94 86 94 99 86 83 75 79 74 69 79 85 84 82 80 74 71 78 86 80 78 78 83 85 87 88 86 85 86 84
58 57 57 56 57 62 73 76 87 84 67 76 82 82 86 89 85 88 92 88 81 76 77 72 78 88 85 81 79 75 69 72 72 80 80 76 71 75 85 85 89 88 89 88 84
57 57 56 55 64 68 71 86 87 86 56 69 75 82 84 88 81 95 97 90 83 77 79 77 85 84 83 80 82 64 81 82 79 72 60 74 56 68 76 80 83 86 86 87 84
57 57 56 55 56 64 76 83 87 77 42 77 81 96 87 80 84 87 98 90 80 80 79 75 80 80 79 81 84 74 83 79 78 68 61 69 58 65 71 74 77 82 86 87 84
57 57 56 63 57 67 76 80 75 53 46 71 82 79 79 82 83 88 89 93 91 82 82 80 89 86 83 88 87 87 78 74 70 63 53 63 61 67 70 75 77 83 86 87 83
56 55 55 63 62 77 74 71 51 47 72 68 71 77 77 76 80 82 80 79 73 65 67 76 79 86 89 80 83 78 62 51 49 50 53 65 61 70 76 82 82 85 84 85 84
55 55 58 66 65 66 69 57 45 62 66 76 76 76 71 77 79 81 77 73 80 76 66 65 63 79 87 80 72 72 65 52 46 48 57 67 60 71 85 84 85 86 85 86 84
54 65 70 75 73 74 61 48 53 62 72 71 72 68 68 76 76 77 73 73 79 81 69 66 66 84 86 88 83 70 65 70 57 58 53 61 69 80 85 85 82 82 84 82 83
52 60 68 81 80 70 56 51 60 70 72 72 62 68 63 69 70 70 69 78 75 84 83 75 61 77 84 88 87 77 77 62 57 47 46 58 61 62 73 76 80 80 80 79 83
54 61 77 85 79 62 51 57 67 76 77 71 67 66 68 67 68 67 68 77 80 79 81 75 72 69 80 75 71 73 73 65 63 58 51 49 56 74 74 76 77 78 80 81 83
62 56 79 80 59 61 58 65 65 74 78 75 74 71 68 69 66 66 67 74 82 80 71 74 67 65 71 82 85 80 75 73 56 54 56 56 57 72 79 77 77 79 79 81 84
55 62 78 77 54 59 66 70 74 74 74 73 71 74 73 66 59 68 71 80 84 80 72 69 62 56 56 69 80 75 78 71 64 60 58 52 57 74 72 73 73 75 80 83 82
56 56 66 68 68 62 61 63 67 78 75 75 71 72 68 64 67 62 69 79 83 81 73 71 62 58 52 60 70 70 73 72 62 55 61 61 60 65 65 68 69 69 69 69 82
59 60 65 57 61 63 65 65 65 65 74 72 66 69 66 57 61 62 69 73 79 79 76 68 57 64 66 73 77 73 72 73 71 65 63 66 60 61 65 67 66 68 65 67 71
55 59 62 59 62 62 62 62 66 69 67 65 63 68 69 59 62 61 68 63 66 74 71 67 57 57 61 73 69 71 74 75 73 71 71 69 63 68 68 70 72 67 69 68 78
64 65 60 56 60 60 62 64 66 69 71 73 71 67 65 69 74 74 74 71 71 68 64 59 56 52 53 63 66 60 63 69 66 64 64 55 58 66 68 71 69 70 74 75 76

GFSSW_sfc_temp_078.txt.gz
Temp
62 62 62 62 62 63 62 62 63 63 63 63 63 63 63 62 62 68 78 89 86 79 79 88 85 86 85 81 86 86 67 66 70 77 78 81 81 89 91 87 90 89 85 86 83
62 62 62 62 62 62 62 62 62 62 63 63 63 63 63 62 66 74 86 83 81 78 88 88 86 87 79 82 83 76 64 73 81 88 84 86 87 86 85 81 80 81 86 87 79
61 61 61 62 62 62 62 62 62 62 62 62 63 63 63 62 74 85 80 80 78 80 91 91 90 87 79 81 80 76 73 83 88 89 86 82 87 90 81 76 80 77 81 84 82
61 61 61 61 62 62 62 62 62 62 62 62 62 63 62 67 70 91 81 79 78 85 88 87 85 77 75 76 83 77 85 85 85 88 87 86 87 83 86 84 87 85 85 84 82
60 60 60 61 61 61 61 61 61 61 62 62 62 63 68 70 78 88 80 80 83 85 84 83 79 77 74 79 82 77 83 86 87 88 90 91 88 87 85 89 89 87 86 83 82
60 59 60 60 60 60 61 61 61 61 61 62 62 62 66 67 91 85 84 81 85 83 83 83 83 85 80 80 76 82 83 85 86 88 88 86 86 90 85 89 86 85 83 84 83
59 59 59 60 60 60 60 60 61 61 62 63 63 68 70 76 90 86 85 82 85 84 82 87 89 81 82 78 84 81 76 82 85 85 84 85 81 81 87 88 84 84 84 84 83
59 59 59 59 59 60 60 59 61 62 63 63 64 66 66 87 86 88 85 85 88 86 87 90 88 82 78 82 79 74 68 63 80 83 87 82 70 83 88 84 81 83 84 84 83
59 59 59 59 59 59 58 59 61 64 65 65 61 63 67 87 85 87 88 87 88 88 87 97 86 79 78 68 63 63 61 64 74 85 81 80 74 84 88 84 81 83 83 84 82
59 59 58 58 58 58 58 59 63 62 68 71 78 65 76 81 88 93 88 91 87 85 85 82 76 69 66 61 55 58 60 64 67 80 80 76 76 82 85 84 82 83 83 83 81
58 58 58 58 58 58 55 62 67 66 72 68 72 73 80 89 93 88 91 87 86 80 70 75 66 61 68 69 72 69 67 66 74 81 75 72 73 80 82 85 83 83 82 81 81
58 58 58 57 57 58 52 61 65 71 60 75 79 80 84 86 78 85 89 78 77 72 73 68 63 75 77 76 74 72 68 68 74 79 74 74 74 78 80 81 82 82 81 80 79
58 58 57 56 57 59 59 65 74 70 58 68 76 75 76 80 77 80 83 79 75 71 73 67 74 81 77 75 73 70 64 68 69 75 72 69 68 70 78 80 82 84 83 81 78
58 57 56 55 60 54 63 71 74 70 49 60 66 75 75 76 73 89 90 82 75 73 74 70 80 77 76 74 75 64 77 76 74 65 58 69 55 63 73 74 75 81 81 80 79
57 57 56 56 49 54 68 68 71 66 40 70 73 82 76 74 77 81 91 80 73 74 70 70 74 74 72 75 79 72 80 77 75 62 56 63 55 61 64 69 71 77 81 80 80
57 57 56 54 48 56 64 62 63 51 41 65 75 73 72 76 76 81 81 82 82 74 73 73 81 80 77 82 81 81 73 66 61 56 51 58 57 65 64 70 74 76 82 81 80
56 55 54 59 54 60 59 60 48 41 64 61 63 69 68 67 72 75 72 70 64 58 59 69 71 78 82 74 79 72 58 51 49 49 50 59 56 64 70 76 79 77 81 81 81
55 54 53 57 52 57 59 54 39 56 58 68 67 67 60 67 70 73 67 64 69 65 60 59 59 71 82 72 71 68 62 50 45 45 54 60 55 66 78 83 85 84 83 81 79
54 49 53 61 61 58 55 42 46 55 66 63 63 58 59 68 68 67 65 65 70 69 59 59 59 79 80 82 75 70 62 66 55 48 49 54 62 73 76 73 75 78 79 78 77
45 46 52 67 64 58 49 45 52 64 67 65 54 59 56 62 61 60 61 72 73 76 72 66 57 70 80 78 82 73 74 57 52 45 45 52 54 61 69 69 74 73 74 76 77
46 49 63 67 66 54 43 45 58 68 69 62 61 58 61 59 59 58 60 71 74 73 74 61 57 61 70 69 70 67 66 65 61 54 50 46 52 67 69 73 75 76 76 76 77
45 46 65 68 53 47 46 55 61 67 71 68 65 63 59 60 58 59 60 65 77 71 67 68 59 51 63 76 78 71 68 66 62 54 49 51 54 69 65 67 73 75 76 76 77
41 46 64 66 46 45 52 60 65 64 66 65 63 65 63 58 53 60 65 74 77 73 62 65 56 50 58 65 73 69 72 68 61 57 62 54 55 68 66 65 68 67 68 71 70
42 44 53 55 52 49 50 54 58 70 67 66 62 64 59 58 58 57 62 71 76 76 70 65 52 52 47 55 64 63 69 70 63 54 56 56 59 63 62 60 63 65 66 68 69
43 46 49 43 49 50 48 55 57 58 65 63 60 61 55 50 55 56 61 66 72 72 71 66 54 53 57 64 68 65 65 68 65 61 58 59 62 58 60 57 60 63 66 68 68
44 46 49 46 49 50 49 52 58 61 60 59 58 63 60 49 52 53 57 56 59 67 64 63 55 54 55 64 66 61 68 68 61 59 62 60 56 62 63 63 63 63 65 67 67
50 50 48 46 46 46 48 54 58 61 64 66 63 59 59 61 63 65 63 62 63 61 64 59 53 50 51 58 61 52 58 59 56 58 56 50 54 59 61 63 62 65 68 68 69

GFSSW_sfc_temp_081.txt.gz
Temp
62 62 62 62 62 62 62 62 62 63 63 63 63 63 62 62 62 63 74 86 81 78 81 80 80 81 82 77 82 82 65 61 66 70 76 77 78 86 88 82 85 85 81 81 79
62 62 62 62 62 62 62 62 62 62 62 62 62 62 62 62 64 70 83 81 78 79 84 81 80 79 73 75 77 71 61 68 77 78 79 82 81 84 81 79 77 80 78 79 76
61 61 61 62 62 62 62 62 62 62 62 62 62 62 62 62 72 83 81 78 78 79 87 86 86 83 75 77 78 74 69 78 81 82 81 79 83 84 78 72 76 74 72 75 73
61 61 61 61 62 62 62 62 62 62 62 62 62 62 62 64 69 89 80 78 78 83 85 83 80 73 71 72 80 72 80 80 81 83 80 79 81 81 83 81 84 80 76 74 72
60 60 60 61 61 61 61 62 62 61 61 62 62 62 66 66 75 84 80 79 82 84 83 81 76 74 70 74 77 75 78 81 81 82 85 85 81 83 82 84 85 82 77 74 74
60 60 60 60 60 60 61 61 61 61 61 62 62 62 64 65 86 83 81 80 81 80 79 80 79 80 75 75 74 78 79 80 81 83 83 82 82 82 80 83 82 81 78 77 76
60 59 59 60 60 60 60 60 61 61 62 62 63 66 68 74 85 81 80 81 82 80 79 82 81 76 75 73 79 76 73 76 80 79 77 82 79 77 81 82 79 80 80 80 79
59 59 59 59 59 60 60 60 60 61 62 64 63 63 65 83 81 84 78 79 82 81 82 84 83 78 73 78 75 69 65 61 74 78 80 80 67 83 82 80 77 79 80 80 79
59 59 59 59 59 59 58 59 61 64 65 64 59 61 67 83 79 82 83 80 81 81 82 92 81 73 75 65 60 60 57 59 68 79 76 74 70 80 82 80 77 78 79 80 79
59 58 58 58 58 58 58 59 62 62 65 69 75 63 74 76 82 86 84 84 82 78 79 79 72 66 62 60 53 55 57 57 62 72 74 72 72 76 80 80 78 78 79 79 79
58 58 58 58 58 58 54 64 63 62 66 61 67 70 76 83 87 81 84 83 79 75 67 72 64 59 66 65 67 64 61 61 68 76 68 71 70 72 78 79 77 78 78 78 79
58 58 57 57 57 57 53 61 64 62 53 69 72 74 80 80 73 80 84 74 72 66 69 65 60 70 73 71 69 65 62 62 68 75 68 68 69 74 76 78 79 79 78 79 77
58 57 57 56 56 57 53 61 65 56 54 64 69 70 72 73 71 74 80 76 71 65 66 65 69 77 74 70 67 62 59 65 62 72 68 67 64 68 72 76 80 81 81 81 78
57 57 56 55 58 52 60 63 62 61 49 59 67 73 74 72 69 83 83 78 70 67 67 67 74 73 71 69 68 57 72 71 69 62 58 66 52 62 68 67 73 80 80 80 78
57 57 56 56 49 53 66 58 63 62 40 67 69 78 75 69 75 77 83 74 69 69 66 63 69 67 67 71 72 67 73 70 69 62 53 59 51 59 60 68 69 72 79 80 79
57 56 56 52 45 53 58 56 59 50 40 61 69 67 66 67 71 77 76 76 76 69 67 68 74 72 73 78 74 76 68 62 56 52 47 56 55 56 61 67 72 72 78 80 78
56 55 53 56 53 55 55 59 48 41 60 58 58 64 60 62 67 70 68 62 61 54 53 62 67 73 77 68 70 68 56 52 45 45 47 57 53 59 66 72 74 75 76 78 79
55 54 52 55 50 55 56 54 38 53 54 63 62 61 58 63 65 67 63 59 64 60 54 53 56 67 74 69 65 62 56 47 41 45 53 56 50 61 73 75 75 78 80 79 78
53 48 48 54 56 53 55 42 45 51 61 59 59 53 54 63 61 61 59 59 65 64 54 50 54 72 73 75 72 63 57 63 56 44 45 51 58 68 72 73 71 72 76 77 78
45 44 52 59 58 56 49 44 47 58 62 60 50 54 50 58 56 56 58 65 66 72 63 58 52 61 73 73 74 69 72 58 55 42 39 48 53 55 66 69 70 69 71 76 77
47 49 61 60 59 53 43 43 54 63 64 57 55 53 55 55 55 54 59 66 69 69 68 60 54 59 63 62 62 62 60 62 61 53 45 42 49 62 65 65 67 69 71 74 74
43 48 62 61 51 41 44 51 58 63 65 62 60 58 55 57 55 54 58 63 72 70 62 59 51 49 58 68 72 69 64 61 54 50 45 47 50 69 62 63 67 69 72 72 73
40 41 57 61 44 43 49 56 61 60 61 60 59 61 60 54 50 56 62 71 73 70 61 60 50 45 51 59 67 61 65 68 60 54 52 47 55 66 63 62 65 66 69 71 71
42 45 50 50 46 45 46 50 54 65 62 63 59 59 55 53 53 53 58 68 71 71 68 62 48 51 47 55 62 58 64 64 62 50 52 53 55 57 59 57 59 62 65 67 67
42 43 45 42 46 44 44 50 52 52 61 59 56 57 53 47 51 50 56 58 69 68 66 60 52 50 54 59 65 62 63 64 56 56 52 52 50 55 55 56 58 61 63 63 65
43 43 45 42 44 45 45 45 51 54 54 56 53 59 54 47 52 50 51 50 56 65 59 55 53 50 53 62 64 60 61 61 59 61 58 56 54 61 60 61 60 61 64 63 61
45 45 45 44 42 42 43 48 52 54 57 61 60 55 55 56 61 61 60 59 59 52 54 53 52 48 46 60 56 53 55 56 55 55 57 51 55 60 57 59 59 60 63 65 64

GFSSW_sfc_temp_084.txt.gz
Temp
62 62 62 62 62 62 62 62 62 63 63 63 63 63 62 62 62 62 73 83 79 78 81 78 78 78 78 74 78 78 62 59 65 67 72 73 74 81 84 79 82 82 77 78 76
62 62 62 62 62 62 62 62 62 62 62 62 62 62 62 62 62 68 81 79 78 79 79 78 75 76 69 72 73 68 59 66 74 75 76 79 79 80 78 75 76 74 76 77 76
61 61 62 62 62 62 62 62 62 62 62 62 62 62 62 61 71 79 79 78 79 78 83 83 82 77 70 72 73 70 66 73 77 79 80 75 77 82 76 71 75 72 70 73 72
61 61 61 61 62 62 62 62 62 62 62 62 62 62 62 62 66 83 79 78 78 78 81 80 77 70 68 70 77 69 76 78 78 78 78 77 76 79 79 79 84 79 74 73 71
60 60 61 61 61 61 61 62 62 61 61 62 62 62 64 64 74 80 80 78 77 80 79 77 73 70 67 70 73 72 75 77 80 79 78 81 79 79 79 83 81 78 75 72 72
60 60 60 60 60 61 61 61 61 61 61 62 62 62 63 62 84 80 81 79 81 80 78 79 77 76 71 72 71 75 76 77 77 79 81 78 78 79 80 80 77 75 73 73 73
60 60 60 60 60 60 60 61 60 60 61 62 62 63 65 71 81 79 75 74 78 80 78 80 80 73 72 70 77 74 69 74 76 75 76 76 74 73 81 79 75 74 74 74 73
59 59 59 59 59 60 60 59 60 61 63 64 63 60 64 79 78 80 74 76 78 77 78 81 81 75 72 74 72 66 62 59 71 74 76 76 66 76 76 76 74 75 75 74 74
59 59 59 59 59 59 59 59 61 64 64 64 58 59 65 81 76 77 78 78 78 76 76 90 78 70 70 63 58 58 55 56 65 74 72 71 67 75 76 76 73 75 76 76 75
59 58 58 58 58 58 58 59 62 62 63 69 73 61 72 73 78 82 80 80 78 75 73 74 70 63 60 58 51 52 54 55 59 70 70 66 68 73 75 75 74 75 75 76 76
58 58 58 58 58 58 54 62 60 60 63 60 63 67 72 78 82 77 80 78 75 71 63 67 60 56 64 63 65 62 59 59 62 70 66 63 65 72 73 73 73 74 75 75 76
58 58 58 57 57 57 53 59 58 57 51 64 65 67 73 75 69 74 81 70 68 63 64 60 54 66 71 67 65 62 60 57 63 68 65 67 66 72 72 72 75 75 75 76 75
58 57 57 56 56 55 52 60 61 55 51 62 67 67 71 69 67 69 75 71 67 61 62 60 64 73 70 66 64 60 56 59 60 64 65 64 60 64 70 71 75 77 79 78 76
57 57 56 54 58 51 57 58 57 57 48 59 65 70 72 69 67 78 78 75 65 64 64 60 69 69 66 65 66 55 67 67 63 58 52 62 49 59 63 67 69 75 76 78 77
57 57 56 55 49 51 62 54 55 58 41 65 67 77 71 64 72 75 78 69 65 66 64 61 65 63 63 67 68 63 70 67 64 55 50 55 50 57 59 63 66 70 76 79 80
57 56 56 50 44 51 54 52 58 50 41 58 65 63 62 64 67 73 71 72 71 64 63 64 71 69 68 72 70 71 64 59 52 50 45 54 52 51 59 67 69 69 74 79 80
56 55 53 54 52 53 53 57 48 41 58 55 56 60 54 58 63 66 64 61 56 49 49 58 63 67 72 63 65 63 53 44 44 44 45 51 51 53 65 70 71 72 71 76 79
55 54 52 53 49 52 55 54 39 51 51 60 59 57 53 60 60 62 60 56 60 56 50 49 50 64 70 66 62 59 54 46 39 41 46 52 49 59 70 71 72 73 72 76 78
53 47 47 53 53 49 55 43 44 49 57 57 56 50 51 57 58 57 56 56 60 60 50 47 52 67 70 71 70 59 54 60 53 44 45 49 55 64 68 70 71 70 72 70 76
44 45 52 56 54 55 49 42 45 55 59 56 47 51 47 53 53 53 54 61 63 66 61 56 50 59 68 68 68 65 67 55 53 42 39 47 49 54 63 65 66 68 69 69 72
46 52 58 54 56 53 43 42 51 61 61 55 51 51 52 52 51 50 53 63 65 67 62 53 51 57 61 59 59 62 56 59 60 53 43 42 47 58 60 59 59 62 67 70 71
43 49 59 57 50 39 44 48 56 59 61 58 57 55 52 53 51 52 54 59 69 66 59 55 48 48 58 67 66 66 62 59 52 48 50 47 52 59 59 59 60 61 65 69 70
40 41 55 57 43 42 47 53 56 57 58 57 55 58 57 52 48 53 58 66 68 65 58 59 48 44 51 59 62 58 62 61 57 50 50 46 53 59 59 58 60 61 64 66 67
42 45 49 48 43 43 42 47 51 61 59 59 56 57 53 49 49 51 54 63 69 66 67 61 48 48 46 51 58 56 58 60 53 46 48 52 54 55 54 55 58 61 65 65 65
42 41 43 41 44 41 41 46 49 49 56 57 54 54 50 44 48 48 53 56 63 65 62 57 48 49 54 57 59 59 57 59 54 53 54 54 52 56 56 57 60 63 62 62 63
43 42 42 40 41 41 41 42 47 51 49 52 49 56 53 47 51 49 50 48 53 58 54 53 52 48 52 60 59 57 57 57 56 56 54 54 53 60 61 62 63 64 63 61 62
42 43 44 42 40 40 41 44 49 50 54 56 55 52 52 55 59 60 58 58 58 49 49 49 47 45 45 53 55 50 53 54 55 55 53 50 55 59 58 59 60 60 62 62 63

GFSSW_sfc_temp_087.txt.gz
Temp
62 62 62 62 62 62 62 62 63 63 63 63 63 63 62 62 62 64 79 88 83 78 82 84 86 85 85 82 84 84 77 75 77 78 83 92 88 88 92 86 87 88 86 88 84
62 62 62 62 62 62 62 62 62 62 62 62 62 62 62 62 70 79 86 79 78 80 84 83 80 83 80 81 83 80 76 77 85 87 86 90 88 88 86 84 83 82 83 83 82
62 61 62 62 62 62 62 62 62 62 62 62 62 62 62 64 80 90 80 79 79 83 89 90 87 84 79 82 82 81 79 85 86 90 90 89 89 91 87 81 87 83 80 81 81
61 61 61 62 62 62 62 62 62 62 62 62 62 62 62 71 78 91 79 78 80 88 89 88 84 81 79 79 85 78 84 87 89 90 88 88 91 88 89 93 93 91 85 82 81
61 61 61 61 61 61 62 62 62 61 61 61 62 62 73 79 83 85 79 79 84 85 88 87 84 84 80 81 82 80 86 88 90 87 88 91 89 90 88 96 92 87 83 82 83
60 60 60 60 61 61 61 61 61 61 61 62 62 62 78 74 92 87 85 83 86 86 87 88 88 88 83 81 80 84 85 86 88 89 87 87 90 88 93 92 86 83 82 84 84
60 60 60 60 60 61 61 61 60 61 62 63 62 67 76 81 88 88 88 88 89 90 88 89 89 86 84 80 85 85 80 85 88 89 87 89 83 84 93 89 85 82 83 84 83
60 60 60 60 60 60 60 59 60 61 63 64 63 71 77 88 88 87 88 88 88 89 88 91 90 87 83 85 82 79 78 75 85 84 88 85 79 89 91 87 84 82 82 81 82
59 59 59 59 59 59 58 58 61 64 65 65 71 75 76 85 86 89 89 88 89 86 86 91 88 83 82 78 75 74 72 72 77 84 83 83 78 86 89 89 86 82 82 82 82
59 59 59 58 58 58 58 59 63 65 67 71 75 73 81 81 85 88 92 89 86 86 81 82 81 78 77 76 67 72 69 71 71 81 83 80 79 86 89 88 86 84 82 82 83
59 59 58 58 58 58 59 75 74 75 73 71 72 72 78 84 86 84 88 86 84 81 76 77 74 70 75 78 79 74 71 70 75 80 76 78 77 83 88 87 86 83 82 82 83
59 58 58 57 57 57 63 70 66 68 64 70 70 71 76 79 74 83 86 78 78 75 75 73 70 76 79 79 74 73 71 71 75 77 78 79 78 84 85 86 87 86 83 84 84
58 57 57 56 56 62 62 66 68 69 64 71 75 75 79 79 76 78 83 80 76 71 74 71 76 79 76 75 71 73 71 72 71 77 78 75 75 78 87 86 87 87 87 87 86
58 57 56 55 61 60 67 66 66 66 64 69 75 79 82 79 75 84 85 82 76 73 74 73 79 75 74 73 75 69 78 75 73 71 66 75 64 75 81 81 83 88 87 86 86
58 57 56 55 58 62 64 64 67 67 55 70 74 86 81 76 78 82 86 80 73 74 73 73 72 72 71 74 78 73 80 76 75 71 68 71 67 73 78 78 82 88 88 89 89
57 56 56 55 55 61 64 64 67 62 52 64 72 70 72 74 75 79 79 82 80 73 73 73 79 76 79 79 79 79 75 71 68 70 61 69 68 71 76 80 85 87 88 89 89
56 55 54 59 65 62 64 70 62 56 64 62 64 69 66 68 71 73 71 72 69 63 65 70 73 79 79 75 76 76 71 61 59 59 60 67 65 71 82 84 84 86 87 87 88
55 53 55 58 62 61 67 68 53 57 59 67 66 66 63 68 70 69 70 68 71 70 65 61 62 72 79 75 73 73 72 63 52 56 62 66 63 73 82 83 85 84 83 84 86
53 61 63 67 62 62 70 58 57 59 64 62 65 61 62 66 65 67 67 66 71 72 61 61 63 77 76 81 80 69 66 78 66 63 60 67 70 79 84 83 79 78 78 80 81
56 59 66 66 64 68 66 52 58 63 65 64 57 61 57 62 63 65 65 71 69 73 73 67 60 73 75 78 79 76 78 65 66 52 52 62 63 67 74 73 73 74 74 77 81
60 65 70 67 66 68 59 57 60 68 66 62 61 59 61 60 62 63 64 71 72 72 73 70 63 68 73 71 70 71 70 70 69 65 57 55 62 75 71 68 68 71 72 77 80
58 63 70 68 65 56 60 59 56 65 68 66 65 63 62 62 61 62 62 66 75 72 66 70 66 61 66 75 75 73 70 70 63 57 65 64 64 67 67 68 68 68 68 72 78
56 57 69 68 59 59 59 60 62 64 64 65 64 66 66 62 58 62 64 73 73 70 68 70 64 58 62 69 71 66 68 69 65 64 62 60 64 66 68 68 67 69 68 68 70
57 59 64 61 57 58 56 57 59 66 64 65 64 67 64 62 63 61 63 69 73 71 67 67 63 61 57 61 65 62 65 65 64 59 64 66 68 61 62 62 65 68 67 68 67
55 53 53 56 57 56 55 55 56 57 63 64 63 63 60 57 60 59 64 66 70 70 70 67 59 62 65 66 65 64 66 64 62 62 58 64 68 59 59 61 64 66 67 68 68
56 56 54 54 51 54 52 55 55 57 58 60 59 62 62 58 61 59 63 62 61 68 65 67 59 62 61 68 66 63 64 64 61 60 64 61 56 62 61 63 63 66 69 68 68
54 55 56 49 52 54 56 55 55 56 61 62 61 59 60 63 66 67 68 66 64 61 60 59 60 58 56 64 63 59 58 58 55 57 56 54 62 61 59 59 60 61 63 64 65

GFSSW_sfc_temp_090.txt.gz
Temp
63 62 62 62 63 63 63 63 63 63 63 63 63 63 63 62 62 76 88 92 89 79 84 95 95 94 95 92 94 95 86 85 87 87 90 101 98 101 100 97 95 96 96 98 96
62 62 62 62 63 63 62 62 63 63 63 62 62 62 62 62 84 92 88 79 78 79 95 92 90 92 90 92 94 90 88 88 95 96 94 97 98 98 94 93 91 93 94 96 93
62 62 62 62 63 62 62 62 62 63 62 62 62 62 62 68 89 97 80 79 79 82 99 100 97 93 89 94 93 92 85 95 96 98 99 98 98 100 96 92 96 92 91 91 92
61 61 62 62 62 62 62 62 62 62 62 62 62 62 63 84 83 97 80 78 79 98 99 96 94 89 88 88 95 86 93 95 96 99 97 95 100 98 100 100 102 102 97 93 92
61 61 61 61 61 62 62 62 62 61 61 62 62 62 77 88 92 95 80 80 91 97 96 94 91 91 88 92 93 89 93 96 98 98 96 97 95 96 98 105 102 101 96 94 94
61 61 61 61 61 61 61 61 61 61 61 62 63 61 85 81 99 97 96 92 97 95 96 97 95 97 91 91 89 94 94 94 97 96 96 93 95 98 100 103 98 96 95 96 96
60 60 60 60 61 61 61 61 60 61 62 63 64 76 86 89 99 100 98 98 99 99 96 100 99 93 93 89 95 92 87 92 95 97 96 97 90 92 101 100 97 94 95 96 95
60 60 60 60 60 60 60 59 60 61 64 65 64 84 86 98 101 96 100 99 101 101 98 101 100 95 92 95 90 86 89 83 93 92 95 91 83 96 102 98 97 96 95 94 94
60 60 59 59 59 59 58 58 61 64 66 65 79 86 85 89 93 98 100 95 97 97 96 97 96 91 93 84 83 86 79 83 85 92 91 89 85 94 98 98 97 98 94 93 94
59 59 59 59 58 58 58 59 66 65 72 82 85 81 91 86 93 96 100 97 92 93 89 89 90 85 86 84 73 79 82 84 80 88 90 87 87 93 98 98 97 100 95 93 93
59 59 59 58 58 58 64 89 86 84 88 80 82 81 88 93 95 92 95 93 93 89 83 87 81 78 83 86 86 85 82 80 84 90 86 85 86 90 96 98 97 98 95 93 93
60 59 58 58 57 57 71 81 74 75 75 83 82 83 88 89 84 90 95 86 85 81 88 83 76 86 89 86 84 83 79 79 85 89 84 85 84 90 94 95 98 98 96 95 95
60 59 58 57 57 70 79 76 80 79 76 82 86 85 88 88 84 87 91 88 84 81 84 79 85 87 83 82 80 81 78 79 79 86 88 83 80 86 93 96 98 100 99 98 96
59 58 57 54 66 76 80 78 82 79 76 75 82 86 90 90 82 93 93 87 84 80 82 82 88 84 82 80 83 76 86 84 80 79 73 84 70 81 88 91 95 98 100 98 97
59 58 56 55 70 77 76 81 82 78 64 76 81 93 91 84 86 87 94 88 80 81 80 79 80 80 78 81 85 79 87 84 81 78 78 78 74 79 87 85 90 97 100 102 100
57 57 56 65 71 77 80 81 80 70 60 71 79 79 81 84 83 87 87 91 88 81 82 81 89 84 83 86 86 87 82 82 81 79 68 75 75 76 83 86 91 97 98 98 99
56 55 57 71 78 79 80 80 71 66 73 69 72 77 76 77 78 81 79 79 76 70 72 79 82 87 87 80 85 82 77 66 64 65 64 79 76 77 87 90 89 89 91 93 96
55 53 60 73 79 78 80 76 61 66 68 75 74 76 72 76 77 78 77 76 80 77 74 69 67 80 85 81 78 79 77 68 57 62 68 77 68 77 89 92 90 90 91 93 94
53 82 81 83 79 79 77 68 68 67 71 70 74 70 70 74 73 75 75 74 77 78 67 68 69 84 85 86 84 77 72 82 72 73 68 73 78 86 89 90 92 90 90 91 92
69 78 84 81 80 79 75 60 69 73 73 73 66 70 65 69 71 72 72 78 75 80 82 74 64 80 82 87 86 81 85 71 72 58 55 66 70 73 80 84 88 88 88 86 89
73 76 80 84 82 78 71 70 70 75 74 70 68 68 68 67 70 70 70 77 79 78 81 79 72 72 80 77 75 77 75 77 75 70 56 56 65 84 82 85 81 84 82 81 86
74 72 83 85 74 77 75 69 58 73 76 73 73 71 69 69 68 69 68 73 80 79 72 78 72 66 71 82 83 79 70 71 65 61 71 69 69 85 80 81 80 81 78 75 77
71 75 87 82 69 73 70 70 71 71 72 71 70 72 73 69 63 69 71 79 80 77 73 74 69 62 67 77 77 73 72 74 70 70 64 62 69 80 79 79 76 75 75 70 70
70 69 76 80 77 69 67 67 67 73 71 72 72 74 71 69 72 66 70 75 79 78 67 73 69 65 61 66 74 68 71 75 66 59 58 65 66 73 72 71 70 73 70 67 67
73 68 65 70 70 69 67 66 66 66 72 73 71 71 68 64 68 67 72 74 77 74 76 74 62 68 71 73 74 72 71 73 69 69 57 55 67 71 69 66 68 73 73 74 75
66 68 70 71 64 65 58 66 65 68 67 68 67 69 70 65 67 64 69 69 68 74 72 74 62 67 65 72 73 70 73 74 72 71 70 71 69 73 66 68 68 66 69 70 71
71 71 67 58 64 64 68 66 65 65 70 71 69 68 68 71 73 75 76 75 74 69 67 66 65 62 59 70 70 63 70 69 68 68 67 64 63 69 64 66 68 68 70 71 69

GFSSW_sfc_temp_093.txt.gz
Temp
63 63 63 63 63 63 63 63 63 63 64 64 63 63 63 63 62 80 92 95 94 79 84 99 102 101 103 99 102 102 88 87 90 90 94 104 100 106 106 102 99 101 101 101 100
62 62 62 63 63 63 63 63 63 63 63 63 63 63 63 63 83 94 89 80 79 80 97 98 96 100 97 98 100 95 89 90 101 100 97 101 101 102 100 100 97 98 100 102 99
62 62 62 62 63 63 63 63 63 63 63 62 63 63 63 68 90 98 80 80 79 82 105 104 104 99 94 100 99 97 89 97 99 102 103 100 101 106 102 97 102 98 96 97 97
62 62 62 62 62 62 63 63 62 62 62 62 63 63 63 87 83 97 81 79 79 98 104 101 99 94 92 93 101 92 98 99 101 103 101 98 103 100 101 102 108 107 102 98 96
61 61 62 61 62 62 62 62 62 61 62 62 63 63 75 89 95 96 80 81 93 96 100 98 96 95 90 96 98 95 96 100 102 102 102 102 98 98 100 107 110 107 102 98 98
61 61 61 61 61 61 61 61 61 61 61 62 63 63 85 86 105 105 103 95 100 99 101 102 99 101 95 94 93 97 97 98 100 100 101 98 98 101 102 108 105 102 101 101 99
61 60 60 61 61 61 61 61 60 60 61 63 65 78 92 93 106 106 104 101 105 104 100 105 104 98 98 93 100 97 91 95 98 100 99 102 94 95 104 107 105 102 102 101 100
61 60 60 60 60 60 60 60 60 61 63 67 66 87 90 105 108 103 105 104 106 107 104 105 105 99 96 99 95 91 92 85 96 100 99 97 85 98 106 105 102 103 102 101 101
61 60 60 60 60 59 59 58 61 65 67 67 80 91 91 90 98 105 106 100 104 105 104 104 101 94 95 88 85 88 81 85 89 100 95 94 88 98 104 102 100 101 103 101 101
61 60 60 59 59 59 58 59 69 66 71 87 92 88 96 91 99 101 106 102 97 99 95 93 93 88 90 86 75 81 83 88 87 95 96 91 90 97 101 101 100 102 102 103 100
60 60 59 59 58 58 64 91 89 85 95 88 89 89 93 98 101 99 101 99 97 93 85 92 85 81 86 90 89 88 84 82 88 95 91 89 89 93 99 100 100 101 101 103 100
59 59 59 58 58 58 67 88 81 83 81 92 91 92 96 96 91 96 101 91 89 83 90 87 82 89 91 90 88 86 83 82 88 93 91 89 87 93 97 97 100 101 102 102 102
59 59 58 57 57 71 88 84 91 90 80 89 93 92 94 96 90 92 97 94 89 86 88 84 89 93 89 87 84 85 81 81 82 89 92 88 83 87 95 99 100 102 104 105 102
58 58 57 55 64 88 88 89 93 89 77 82 87 92 95 96 88 98 99 93 89 84 86 86 93 88 86 84 87 79 89 87 85 82 75 89 73 84 91 93 96 100 102 104 102
58 57 56 54 74 87 86 93 92 88 67 82 88 99 96 89 91 92 99 94 84 85 86 82 85 85 82 84 88 82 90 86 85 82 81 80 76 81 90 87 92 98 101 104 104
57 57 56 72 80 87 92 92 88 73 65 79 86 85 87 90 89 92 92 97 93 86 88 86 94 89 87 89 89 90 85 84 84 82 70 77 77 78 84 88 93 98 100 101 101
56 55 59 80 85 92 91 87 74 71 80 76 79 84 83 82 85 85 84 85 80 73 76 83 86 91 90 84 89 87 80 69 66 67 66 80 77 79 89 93 94 94 95 97 100
56 54 67 83 89 91 88 80 66 75 76 82 81 83 79 81 83 82 82 81 85 81 76 73 71 84 89 85 80 81 80 69 58 63 68 78 70 80 92 95 96 95 96 97 99
54 88 89 93 91 89 82 72 75 75 78 77 81 77 77 80 79 80 80 80 81 82 71 71 72 85 87 89 87 80 76 85 74 75 68 73 77 86 91 92 94 95 95 95 94
72 86 92 93 93 87 78 68 76 80 80 80 73 76 72 75 76 77 77 83 79 84 85 77 68 82 85 89 89 82 86 73 74 59 56 67 70 73 79 83 89 91 92 91 91
74 83 89 97 93 82 74 78 77 82 81 77 75 74 75 73 75 76 76 81 83 81 84 81 76 74 81 79 78 79 77 69 73 71 57 61 68 82 81 76 81 85 90 88 87
82 77 93 95 78 84 78 77 59 80 82 80 78 77 75 75 73 74 74 78 85 83 75 80 75 67 72 84 86 84 62 58 67 49 54 58 65 72 74 87 86 86 83 82 81
77 81 94 90 73 79 79 78 78 78 79 78 76 78 80 74 68 74 76 83 84 80 75 77 70 63 68 79 75 72 69 60 74 72 63 55 53 73 66 63 83 79 76 75 74
76 75 83 84 84 75 74 74 74 80 78 79 78 80 76 74 78 72 74 81 83 82 70 75 72 66 63 67 74 68 70 77 76 68 61 60 61 64 56 57 78 76 78 77 77
79 78 75 74 78 76 75 75 72 72 79 79 75 76 74 69 71 72 77 79 81 77 79 77 65 70 72 74 76 75 74 76 74 71 54 62 56 65 55 57 71 75 75 73 72
73 74 82 75 74 72 65 72 72 75 74 73 73 76 76 70 72 69 74 73 71 77 75 78 65 69 66 73 74 71 76 77 77 77 74 74 70 77 72 76 73 71 73 73 69
82 79 74 67 74 71 74 74 73 74 76 78 77 75 72 75 77 79 80 79 78 74 72 71 68 64 60 71 71 66 73 74 74 77 76 67 69 72 72 71 64 63 65 67 70

GFSSW_sfc_temp_096.txt.gz
Temp
63 63 63 63 63 63 63 63 63 63 63 63 63 63 63 63 63 77 88 95 94 79 83 99 98 99 103 98 101 102 84 80 80 65 88 103 99 106 108 99 102 102 100 97 98
63 63 63 63 63 63 63 63 63 63 63 63 63 63 63 63 79 89 95 82 80 80 95 97 94 99 95 96 98 94 85 86 94 83 93 100 100 102 102 101 97 97 101 99 98
62 62 62 62 63 62 62 63 63 63 62 62 63 63 63 66 85 97 82 81 79 84 102 104 103 99 93 97 97 96 87 95 97 100 101 99 99 104 99 95 99 94 95 95 95
62 62 62 62 62 62 62 62 62 62 62 62 62 63 64 81 80 99 81 80 79 97 98 102 99 94 91 90 99 91 97 98 99 101 100 97 102 99 100 100 107 102 98 96 94
62 61 61 61 61 61 62 62 62 61 61 62 62 63 74 85 91 94 81 82 93 95 96 98 95 94 89 93 96 93 96 99 101 101 100 102 98 98 99 105 108 105 100 96 95
62 61 61 61 61 61 61 61 61 61 61 62 63 63 80 81 108 102 102 96 101 97 98 100 97 100 94 93 91 96 96 96 98 98 99 96 97 99 101 106 105 104 98 98 97
62 61 61 61 61 61 61 61 61 61 61 63 65 76 86 90 109 109 106 100 102 102 97 103 104 97 96 91 98 96 90 93 95 97 96 100 93 94 103 105 103 104 102 100 98
61 61 61 60 60 60 60 60 60 61 63 65 67 83 86 107 109 105 106 104 106 107 104 105 105 98 95 97 93 88 89 81 92 96 99 98 84 97 104 103 101 103 102 100 99
60 60 60 60 60 60 59 59 61 64 67 69 78 85 89 93 99 106 107 100 103 104 104 106 101 93 93 85 81 85 77 81 87 98 97 95 87 96 103 101 99 101 101 102 100
60 60 59 59 59 59 58 61 72 70 71 87 90 86 95 94 101 103 107 104 99 99 96 95 92 85 86 82 70 77 79 83 83 92 94 91 90 96 100 100 99 100 100 100 102
59 59 59 59 59 58 62 84 88 84 89 90 91 92 95 101 104 101 103 99 98 93 83 91 83 79 84 87 87 86 83 81 86 93 89 87 88 93 97 98 97 98 98 99 101
59 59 58 58 58 57 68 88 85 87 78 96 95 95 99 100 92 98 103 92 89 82 88 85 79 88 92 90 87 85 81 80 87 91 89 87 86 92 95 96 97 98 98 101 103
58 58 58 57 57 67 91 87 96 95 79 90 96 95 96 98 92 94 99 96 89 85 86 82 87 94 91 88 84 85 81 81 81 87 90 86 82 86 93 96 98 100 101 102 102
57 57 57 56 65 89 89 94 97 95 74 83 88 94 96 98 90 101 101 94 89 84 87 85 92 89 87 84 86 78 88 87 84 80 72 87 70 81 88 91 95 97 99 101 102
57 57 56 55 71 87 90 97 96 90 64 85 90 102 97 90 93 94 101 94 84 85 86 81 85 84 82 84 88 80 88 84 83 79 77 78 74 79 87 85 90 95 98 101 102
57 57 56 74 77 92 96 96 91 71 64 81 89 88 89 92 92 94 94 96 95 86 88 87 94 90 88 90 89 89 84 83 82 79 67 74 74 75 81 85 90 95 97 98 98
57 56 57 76 86 96 96 88 72 67 84 80 82 87 87 85 87 87 86 85 81 73 75 82 86 92 92 83 88 86 79 66 64 65 65 79 75 77 87 91 92 91 90 96 99
56 56 69 83 92 95 90 78 64 79 79 87 85 85 81 85 85 84 83 81 87 81 76 71 69 83 88 83 78 80 78 66 54 59 65 77 66 75 88 90 95 95 90 96 99
54 86 86 92 94 92 81 70 74 78 82 80 82 78 81 83 81 82 82 81 84 83 70 69 70 85 87 88 86 78 72 83 71 72 68 72 76 82 79 85 88 87 88 93 94
66 81 90 98 97 89 77 66 79 84 83 83 74 79 74 79 77 80 79 84 81 85 85 76 65 80 85 87 87 83 86 70 72 55 53 61 64 57 64 69 73 67 70 67 71
72 81 93 99 96 82 71 78 81 86 83 79 77 76 78 76 78 77 78 83 85 82 83 80 73 71 79 76 75 76 72 71 70 64 54 51 63 71 68 71 67 65 63 65 69
81 75 95 97 78 81 77 80 63 83 86 81 81 78 76 78 75 75 76 81 85 83 75 79 72 65 70 81 86 81 72 69 61 60 65 60 61 75 72 73 64 61 63 59 72
73 80 97 93 71 77 84 81 83 80 81 81 79 81 81 76 69 76 78 85 85 81 74 76 68 60 65 76 81 74 77 74 67 67 60 43 47 75 71 68 61 61 60 60 69
73 74 85 86 85 77 75 76 77 85 80 81 79 81 77 74 78 73 76 83 86 83 72 76 71 65 60 64 72 68 73 76 73 61 60 55 57 70 66 65 63 62 65 62 70
75 76 80 71 78 76 77 76 74 75 82 81 76 77 75 70 72 72 77 79 83 77 79 76 64 68 70 72 73 71 72 74 72 72 67 70 67 61 61 64 65 63 63 66 71
71 73 78 74 76 74 69 72 72 77 78 76 74 78 78 72 72 69 74 73 71 77 75 77 64 68 65 72 73 70 74 76 76 76 75 74 59 59 65 66 66 65 68 65 67
81 82 75 67 73 73 74 75 76 79 78 80 78 76 74 77 80 79 80 78 77 72 71 71 68 64 58 69 69 63 65 69 68 67 63 65 63 68 68 67 66 68 68 68 69

GFSSW_sfc_temp_102.txt.gz
Temp
63 62 61 62 62 62 62 62 62 63 63 63 62 62 62 62 62 65 73 85 82 79 82 87 84 84 83 80 84 84 65 63 68 70 75 87 85 92 96 87 87 89 84 85 86
63 62 62 62 63 62 62 62 62 62 62 62 62 62 62 62 65 70 83 82 80 79 86 84 81 83 74 78 79 72 62 69 76 78 76 83 85 87 86 85 84 83 86 88 82
62 62 62 63 63 62 62 62 62 62 62 62 62 62 62 62 69 79 81 80 79 81 89 88 87 84 75 76 78 74 69 81 83 85 85 81 82 87 83 80 81 77 81 85 80
62 62 62 62 62 62 62 62 62 61 61 61 62 62 62 64 67 88 81 79 78 84 85 85 83 74 72 72 81 72 81 82 83 84 81 80 83 84 84 85 88 85 85 85 82
61 61 61 61 61 61 61 61 61 61 61 61 62 62 61 64 73 86 81 80 83 84 83 83 78 76 72 75 79 74 79 82 84 83 85 88 84 84 87 94 90 87 85 83 83
61 60 60 61 61 61 61 61 60 60 61 61 62 62 63 64 90 86 84 82 85 82 82 84 82 83 77 76 74 79 79 80 82 83 84 82 83 81 90 93 87 85 83 83 83
60 60 59 60 60 60 60 60 60 60 61 62 63 67 68 72 90 86 84 84 86 84 81 86 86 79 78 76 81 78 72 76 81 80 80 82 78 80 89 90 88 84 84 83 83
59 59 59 59 59 59 59 59 59 61 62 63 64 65 65 88 85 90 85 85 87 85 86 88 85 79 75 79 76 71 65 59 76 80 82 79 68 83 88 82 82 84 84 83 83
59 59 59 59 59 59 58 58 61 63 64 65 61 62 69 88 87 90 89 87 85 86 85 96 82 74 76 66 60 60 57 61 70 82 79 76 70 81 85 84 80 82 83 83 83
59 59 59 59 59 58 58 59 64 64 67 74 78 66 78 84 88 91 89 91 86 83 83 81 73 66 63 60 51 57 57 61 65 78 77 74 71 77 81 82 83 79 82 83 83
59 58 58 58 58 58 55 64 67 67 67 67 70 76 82 91 92 88 90 86 83 78 66 72 65 59 66 66 71 67 64 63 71 78 69 72 69 76 79 77 80 81 77 82 83
58 58 58 58 58 57 54 69 69 73 63 77 78 79 85 87 82 87 91 79 75 68 69 66 60 72 75 74 70 68 64 63 69 76 70 69 69 74 76 77 79 80 81 79 84
58 58 57 57 56 62 64 71 76 71 59 72 80 79 82 85 81 84 86 81 75 68 68 62 70 80 77 73 70 65 61 63 65 69 70 65 63 67 78 79 81 82 81 82 79
58 58 57 55 63 60 68 76 75 74 54 67 72 82 84 81 77 92 89 84 75 69 72 67 77 77 73 72 69 57 73 72 70 63 55 65 52 62 66 69 72 69 70 69 69
58 57 56 55 54 61 75 73 73 70 49 76 76 88 79 78 79 83 91 80 73 74 68 68 72 72 71 72 75 67 74 70 68 59 53 61 53 55 62 59 64 67 69 69 67
57 57 57 56 52 63 67 69 69 57 52 72 79 74 71 75 80 82 81 82 80 73 72 71 78 74 72 77 75 77 68 63 60 53 47 56 53 50 54 58 64 67 68 67 66
57 56 55 61 64 67 68 65 55 52 73 69 67 69 68 70 74 78 75 69 64 56 56 67 69 74 79 68 72 69 57 47 44 45 45 56 52 52 63 66 67 65 67 65 66
56 54 56 61 59 66 65 60 49 67 66 72 72 70 65 69 72 75 70 66 70 64 56 54 56 68 75 67 62 61 55 46 39 40 49 56 49 55 68 68 68 68 69 66 63
55 57 60 67 66 65 61 50 54 63 72 70 70 65 65 71 70 71 66 66 68 64 56 52 56 72 75 74 67 62 54 58 49 44 45 49 56 63 65 65 66 66 65 65 61
50 54 60 74 70 65 56 50 59 72 72 70 60 64 59 64 64 63 63 69 69 71 64 56 50 61 72 72 70 62 65 52 47 39 37 46 50 50 59 59 61 63 62 60 63
55 57 70 73 72 60 50 52 66 77 75 67 62 61 62 61 61 60 61 70 72 69 68 54 52 56 63 57 57 59 54 53 50 46 40 37 46 58 57 58 57 58 61 59 60
51 53 72 73 60 51 52 62 67 73 74 69 68 65 63 65 60 61 62 67 75 70 61 60 51 45 55 65 69 63 56 51 44 45 45 43 46 61 60 58 59 59 62 60 62
46 50 69 71 52 51 58 66 70 68 69 66 66 68 65 60 56 63 67 75 76 68 60 58 49 42 47 53 61 55 60 55 50 45 44 39 45 61 59 58 59 59 60 59 61
48 49 59 61 57 53 54 58 62 73 70 70 67 66 62 59 58 58 63 73 74 71 68 62 48 47 42 49 54 54 61 64 56 43 46 45 48 54 55 56 57 59 59 59 59
49 50 55 49 54 54 51 57 60 61 67 65 63 64 59 50 55 56 61 63 69 67 63 58 49 49 54 58 60 61 61 61 52 50 45 49 49 52 54 55 57 59 61 61 60
48 50 53 51 53 54 51 52 59 64 61 64 58 65 61 52 52 51 54 51 56 61 53 54 48 47 48 60 61 59 61 60 59 57 55 54 51 56 57 58 59 58 59 59 60
53 54 52 50 50 49 51 57 62 63 66 66 64 59 59 61 63 61 59 59 59 54 54 50 47 44 43 55 56 49 54 58 56 55 53 47 52 57 56 57 55 55 57 59 61

GFSSW_sfc_temp_105.txt.gz
Temp
63 62 62 62 62 62 62 62 62 62 62 62 62 62 62 62 62 62 70 83 79 78 81 80 80 79 79 76 81 80 63 59 65 68 75 85 81 88 90 82 85 85 83 81 80
62 62 62 62 62 62 62 62 62 62 62 62 62 62 62 61 63 67 80 80 78 78 84 81 77 78 71 73 75 69 59 66 73 75 74 80 81 83 81 81 80 81 82 81 79
62 62 62 62 62 62 62 62 62 61 61 61 62 62 62 61 67 78 79 79 78 79 86 85 83 80 70 72 74 71 66 74 77 80 79 76 79 83 79 74 78 77 77 78 77
61 61 61 61 61 62 62 62 61 61 61 61 61 62 62 61 64 84 79 78 78 82 83 82 79 73 68 68 76 68 76 77 77 77 78 76 77 81 80 81 89 83 81 78 77
60 60 60 60 60 61 61 61 61 60 61 61 61 62 59 62 72 82 80 79 80 82 81 79 76 74 67 72 75 71 74 76 79 78 78 81 78 78 81 85 86 84 81 77 77
60 60 60 60 60 60 60 60 60 60 60 61 61 61 61 63 85 83 81 80 82 81 80 80 79 80 72 72 69 74 76 75 77 80 80 77 79 77 85 87 82 81 80 78 77
60 59 59 60 60 60 60 60 60 60 60 61 62 65 66 73 86 82 81 80 81 81 79 82 83 76 74 72 76 73 70 72 77 74 75 76 74 75 84 83 81 80 80 80 79
59 59 59 59 60 60 60 59 59 61 61 62 63 62 65 84 82 84 78 80 82 80 81 83 82 75 72 76 73 67 61 58 72 74 77 74 65 78 82 80 77 79 80 80 80
59 59 59 59 59 59 59 58 62 63 64 64 60 62 69 83 81 83 84 82 81 80 80 93 80 70 72 63 58 58 54 58 66 76 73 71 67 78 81 77 74 77 79 79 79
59 59 59 59 59 59 58 59 64 63 66 71 75 65 76 80 84 86 81 85 82 79 79 75 69 64 59 58 51 54 54 57 61 70 73 69 67 73 76 76 74 75 78 78 79
59 59 58 59 58 58 56 63 66 64 65 64 66 72 77 84 88 85 87 85 80 76 64 68 62 59 63 63 67 63 59 59 67 74 65 65 67 71 75 75 68 71 73 77 79
59 58 58 58 58 57 55 68 65 69 61 72 73 74 80 80 77 83 87 76 72 66 67 64 59 69 70 69 65 63 59 60 65 71 66 65 67 70 71 67 68 68 67 66 74
58 58 58 57 56 62 60 67 70 64 56 68 74 74 76 79 77 79 84 77 72 65 65 61 69 76 72 69 65 59 56 59 62 66 65 62 62 61 67 71 71 70 69 68 67
58 58 57 55 62 57 67 70 67 68 53 67 70 78 79 79 74 87 86 81 71 68 67 64 72 73 68 66 65 51 67 68 66 59 52 61 48 57 59 64 68 67 67 66 66
58 58 57 55 52 61 70 64 66 68 49 73 72 83 74 74 76 80 85 77 70 70 67 65 69 68 67 68 70 64 70 66 64 56 50 56 50 54 57 59 62 66 67 66 67
58 58 56 54 50 59 63 63 67 56 50 69 74 71 68 71 76 79 78 79 76 69 67 67 74 70 68 73 70 72 65 59 53 50 45 51 50 50 53 57 60 65 66 65 67
57 56 54 59 64 61 63 64 55 50 68 65 64 66 62 67 71 74 71 66 62 55 55 64 65 70 74 65 67 64 52 43 43 43 43 51 49 52 60 63 64 63 64 64 64
56 54 55 59 55 62 63 60 47 62 62 68 67 65 63 66 68 71 67 61 65 60 53 52 54 66 72 63 59 56 51 45 36 38 44 52 45 55 65 67 66 67 65 65 63
54 55 56 62 61 60 61 50 52 59 68 67 65 60 60 66 65 66 61 61 64 60 54 50 54 68 70 69 64 58 50 54 46 41 41 46 54 60 62 62 62 63 64 61 62
50 51 59 67 66 63 55 49 55 66 71 66 56 60 56 61 61 59 60 65 65 67 62 56 49 58 68 68 66 56 61 49 45 37 36 43 46 49 56 57 59 59 59 58 60
53 56 67 65 67 59 49 50 61 72 71 64 60 58 58 58 57 55 58 66 69 66 62 54 52 55 60 56 53 55 52 50 46 43 38 35 42 54 54 56 56 58 60 59 59
49 53 67 68 57 45 50 57 63 68 69 65 65 62 58 59 56 58 58 63 71 67 57 54 48 44 52 61 64 58 52 48 42 41 42 40 42 57 56 58 58 58 60 60 60
44 46 63 66 49 48 54 61 65 65 65 64 63 65 62 57 52 59 63 70 70 65 56 56 47 41 46 52 57 53 55 51 47 41 41 38 43 57 56 56 58 57 59 59 60
47 48 55 56 51 49 50 54 59 69 65 66 63 63 58 55 56 54 59 67 70 66 65 60 45 46 41 48 52 51 56 58 48 40 41 43 47 52 54 54 56 57 58 58 59
47 48 50 46 50 49 48 54 56 56 64 63 60 59 54 48 50 51 56 59 65 64 60 56 48 48 50 54 55 55 56 58 51 50 45 47 47 51 53 54 55 58 58 59 59
46 47 49 47 48 50 49 49 54 58 56 59 55 60 57 51 53 49 51 49 53 56 52 50 47 45 46 56 56 55 59 59 57 56 52 52 50 56 57 57 57 55 56 56 59
49 50 49 47 47 47 47 52 56 57 59 62 61 56 55 59 62 62 60 58 58 55 50 50 46 42 39 50 52 47 54 56 55 54 52 46 51 56 55 56 55 54 54 55 59

GFSSW_sfc_temp_108.txt.gz
Temp
63 62 62 62 62 62 62 62 62 62 63 62 62 62 62 62 61 60 68 81 77 78 80 75 75 74 76 73 77 77 61 57 62 66 71 77 73 82 86 79 82 82 78 79 77
61 61 61 61 61 62 62 62 62 62 62 62 62 62 62 61 60 65 78 79 78 79 79 77 74 75 68 70 72 67 57 64 71 72 73 77 76 78 77 77 77 79 79 78 76
61 61 61 61 61 61 61 62 62 61 61 61 62 62 61 60 63 76 79 79 78 79 83 82 79 77 68 69 71 67 64 70 75 76 75 72 76 77 74 72 77 77 73 74 73
61 61 61 61 62 61 62 61 61 61 61 61 61 62 61 59 63 81 79 78 79 80 82 79 75 70 66 66 73 65 72 73 74 75 74 74 75 76 77 80 85 83 76 74 72
61 61 61 61 61 61 61 61 61 60 60 60 60 61 58 60 71 78 79 79 77 80 79 76 73 71 65 69 70 67 71 74 77 76 74 77 75 74 78 82 85 82 77 75 73
60 60 60 60 61 61 61 60 60 60 60 61 61 61 60 62 81 80 78 78 79 77 77 78 77 77 70 69 67 72 71 73 73 75 75 72 76 73 80 81 80 78 75 75 75
60 60 60 60 61 61 60 60 60 60 60 61 61 63 65 73 81 79 78 77 79 78 76 78 79 74 71 69 73 72 68 70 72 70 71 73 72 72 80 79 78 76 75 75 76
60 60 60 60 60 60 60 59 60 61 61 62 63 60 65 80 79 81 77 76 79 77 78 79 80 73 69 72 70 64 60 57 69 71 73 70 62 75 77 74 75 75 76 75 75
59 59 59 60 59 59 58 59 63 63 64 64 58 60 68 79 79 79 79 78 79 78 77 90 77 67 69 61 57 57 52 54 64 71 71 69 64 73 72 71 69 72 74 76 75
59 59 59 59 59 58 57 59 64 63 65 68 72 63 75 77 80 81 76 82 78 75 76 73 66 61 58 57 50 53 53 56 58 65 68 64 64 67 68 68 66 66 70 73 75
59 59 59 59 58 57 56 60 64 63 64 61 65 69 75 81 82 80 81 79 76 74 62 65 61 57 62 61 62 60 56 56 62 68 62 61 61 64 67 66 66 66 66 66 68
59 59 59 58 57 57 56 64 61 64 58 68 70 71 75 76 73 78 84 74 70 63 64 62 57 67 68 65 63 59 55 56 63 67 63 64 61 63 66 65 65 66 66 66 66
58 58 58 57 56 60 59 66 67 61 55 66 71 70 71 75 73 76 81 73 68 64 62 59 65 72 69 64 61 54 53 56 60 64 62 60 57 58 65 66 67 67 67 67 66
58 58 57 55 63 56 64 63 63 64 53 65 68 74 74 73 71 84 83 78 68 64 64 61 70 69 66 64 62 50 65 64 62 56 52 58 48 54 56 61 63 64 65 65 66
58 58 57 55 54 60 67 60 61 67 47 70 69 79 71 71 73 76 81 74 68 68 65 63 64 63 64 64 65 61 65 61 61 53 49 54 48 54 57 59 62 63 65 65 65
58 57 56 53 49 58 60 60 66 56 48 66 71 69 66 68 72 75 75 77 74 68 64 64 70 67 65 69 68 69 62 57 51 48 43 49 49 49 53 57 60 63 64 65 65
57 56 54 58 63 59 59 63 55 50 65 63 61 64 59 64 68 69 67 63 60 53 53 61 63 68 70 63 64 61 49 42 42 41 42 47 47 51 59 63 63 62 63 64 64
55 55 55 58 56 58 62 59 45 59 59 65 64 61 60 63 64 66 62 59 64 58 51 50 52 62 70 61 56 53 48 43 35 37 43 49 45 54 62 64 64 65 64 64 63
54 54 57 60 60 56 60 49 51 56 65 64 61 58 58 63 62 62 59 58 60 59 53 50 52 65 67 65 61 55 48 50 43 38 39 45 52 60 61 61 62 62 62 61 61
49 50 59 64 61 62 55 48 52 62 65 63 54 57 53 58 59 57 57 63 63 65 58 55 48 56 65 66 64 58 58 47 43 35 35 41 44 49 55 56 58 59 59 59 60
51 55 65 62 63 57 49 48 58 68 65 61 57 55 55 55 54 53 55 63 67 63 62 51 50 53 57 54 51 54 50 47 44 41 36 34 41 53 54 55 55 57 59 59 59
47 51 65 63 56 43 49 53 60 64 65 63 62 59 56 57 54 55 56 60 66 63 55 51 48 44 51 58 60 55 51 46 41 40 40 39 40 57 56 57 56 57 59 60 61
43 44 59 62 48 46 52 58 61 63 62 61 61 63 60 54 50 57 58 67 67 62 55 55 46 41 46 52 56 51 54 49 43 40 40 37 42 57 55 56 58 57 59 59 60
45 46 53 53 47 47 46 51 56 64 62 61 58 60 56 52 52 51 56 63 65 62 64 59 44 46 42 47 51 50 53 54 47 38 40 41 48 53 54 55 55 56 58 58 59
45 45 46 45 48 47 45 50 52 53 59 59 55 57 53 45 48 48 53 57 61 62 57 55 47 46 48 53 53 53 54 55 48 48 46 51 45 52 53 54 55 57 58 57 58
44 45 46 45 45 45 45 44 51 54 52 55 52 57 53 50 54 50 52 48 52 53 49 48 45 45 46 54 54 51 55 55 55 55 50 51 49 55 56 56 56 56 55 55 56
46 46 46 45 44 44 46 49 53 53 57 58 58 54 53 56 59 57 57 55 54 52 48 47 45 40 41 48 49 44 51 54 54 54 52 47 52 55 54 55 54 54 54 55 56

GFSSW_sfc_temp_114.txt.gz
Temp
63 63 62 62 63 63 63 63 62 62 62 62 62 61 62 62 62 75 86 90 89 79 83 95 96 95 96 93 94 95 88 85 83 82 86 97 94 101 104 99 98 98 98 100 96
62 62 62 62 63 63 62 62 62 62 62 62 61 61 62 62 78 87 88 80 78 79 96 93 91 93 93 92 95 91 89 84 91 91 90 94 95 96 97 98 98 97 93 98 94
62 62 62 62 63 62 62 62 62 62 62 61 61 61 62 67 83 94 80 79 78 82 101 100 98 95 91 94 93 91 86 91 92 94 95 94 95 100 95 93 98 95 96 93 93
62 62 62 62 62 62 62 62 62 62 61 61 61 61 62 78 82 96 80 79 79 98 99 96 94 91 90 87 92 86 91 92 94 96 95 93 98 95 95 96 100 101 101 95 92
61 61 61 62 62 62 62 62 61 61 61 61 61 61 71 86 91 93 80 81 92 97 96 94 91 92 88 90 90 87 91 93 95 96 95 95 92 91 94 98 102 101 97 95 94
61 61 61 61 61 61 61 61 60 61 61 61 61 62 83 87 97 97 97 94 97 97 96 96 94 95 90 89 88 91 91 92 94 93 92 90 92 93 94 98 99 97 95 96 95
61 61 61 61 61 61 61 60 61 61 61 62 62 74 87 89 99 100 100 99 101 100 95 98 98 94 93 89 92 91 86 91 92 93 92 93 88 87 94 97 96 95 94 93 94
60 60 60 60 61 60 60 59 63 62 62 63 63 82 91 98 102 96 100 98 101 101 99 100 99 95 93 93 91 87 88 84 90 91 92 91 83 89 94 95 92 92 92 90 91
60 60 60 60 60 59 59 59 64 64 64 65 79 87 89 84 94 101 101 97 98 99 99 98 98 93 92 87 86 86 83 80 84 90 89 89 83 89 94 93 90 90 90 91 90
59 59 59 59 59 59 58 61 64 65 73 81 86 86 93 92 97 98 101 100 96 95 92 92 93 89 90 87 79 78 80 82 80 87 88 86 84 89 91 93 90 90 89 88 89
59 59 59 59 59 58 69 85 88 86 91 86 88 86 91 97 98 97 100 97 97 93 86 89 86 84 84 85 84 82 80 79 84 86 84 84 83 85 89 91 90 89 88 88 88
59 59 58 58 57 58 76 89 81 83 82 88 87 87 92 94 90 95 101 92 89 85 87 85 83 86 86 84 82 82 80 80 84 85 85 83 82 84 87 87 89 89 89 89 89
58 58 58 57 57 76 88 83 88 86 83 87 90 90 93 95 91 93 98 94 88 84 84 83 85 86 84 82 81 82 80 79 79 84 88 83 82 81 85 88 90 92 92 92 88
58 58 57 55 72 86 87 86 89 87 82 82 88 91 93 94 89 98 101 94 89 83 84 84 87 83 83 80 84 79 84 82 81 80 76 83 72 79 83 83 86 88 90 91 89
58 57 57 54 80 90 85 90 91 86 68 84 88 99 96 90 92 91 100 94 85 84 85 80 82 81 79 80 83 79 84 82 81 79 79 79 75 78 82 79 82 86 86 88 88
57 57 56 72 82 87 89 89 87 76 66 79 88 87 88 90 89 92 92 96 93 86 86 83 88 86 83 84 83 84 81 83 80 80 70 75 74 80 82 80 83 87 86 86 86
57 55 61 77 87 89 88 88 76 71 81 78 81 86 86 84 85 87 86 84 82 75 76 80 81 85 85 81 84 84 80 71 69 70 69 75 72 76 82 83 83 83 85 85 87
55 54 66 81 86 86 89 82 66 75 77 83 82 84 81 83 82 83 82 80 82 82 80 75 70 80 83 80 76 76 77 69 57 64 70 75 67 75 83 86 85 85 87 86 86
54 89 88 89 87 87 84 73 75 76 79 78 81 79 78 81 81 82 80 80 81 83 74 75 73 81 81 83 81 75 76 79 70 71 66 75 74 81 83 82 83 84 84 84 84
72 83 90 90 89 87 80 66 76 80 80 80 75 78 75 77 78 80 78 81 79 83 86 78 70 80 79 82 81 79 81 70 75 58 57 68 68 70 76 79 80 82 82 82 82
76 80 86 91 88 84 75 76 76 81 80 78 77 75 77 75 78 77 77 79 81 81 85 83 75 74 78 76 76 75 74 72 74 69 61 60 70 79 77 78 77 80 82 81 82
76 76 88 90 79 82 77 75 61 79 82 81 81 79 77 77 76 75 74 78 81 83 77 80 78 70 74 79 79 78 74 74 66 62 68 66 66 82 81 80 80 79 79 80 81
70 75 92 87 73 75 76 76 77 77 78 78 78 80 80 77 70 75 76 80 81 81 78 80 74 66 69 75 77 73 76 75 73 70 62 60 66 84 82 82 81 78 78 78 78
69 71 80 84 80 73 72 73 73 77 77 77 77 80 77 75 77 73 75 78 80 80 66 74 74 68 65 69 74 68 73 75 72 64 66 68 69 76 79 77 77 76 75 75 76
73 70 66 72 72 73 71 71 71 71 77 78 75 77 76 71 73 73 76 77 78 68 77 77 66 71 72 73 73 72 71 72 70 71 65 69 68 74 75 74 74 74 74 74 73
66 66 74 71 67 68 61 69 70 71 72 73 73 74 76 72 74 71 75 74 74 77 75 76 65 69 66 72 72 68 72 72 72 72 71 72 70 78 77 78 75 73 73 71 70
70 72 67 61 67 67 71 69 69 71 73 75 72 73 73 74 76 79 81 78 78 73 72 69 68 64 60 69 67 62 70 71 72 74 73 66 71 75 73 72 71 71 71 70 69

GFSSW_sfc_temp_117.txt.gz
Temp
63 63 63 63 63 63 63 63 63 63 63 63 63 62 62 63 62 77 91 92 94 79 81 101 102 102 103 100 102 104 90 87 89 86 91 101 97 103 107 103 104 104 103 103 102
63 63 63 63 63 63 63 62 63 63 63 63 62 62 63 63 81 92 89 81 79 80 96 98 97 100 98 99 101 96 91 90 97 96 94 98 98 100 99 100 100 102 102 103 100
62 62 62 63 63 63 62 62 62 63 63 63 62 62 62 67 87 98 80 80 80 83 105 105 103 100 96 101 100 98 90 97 96 98 99 98 98 103 99 94 100 98 101 99 98
62 62 62 62 62 62 62 62 62 62 62 62 63 62 62 80 85 98 82 79 79 98 104 102 100 95 94 93 99 91 98 96 98 99 98 96 101 97 98 98 104 105 104 101 97
62 62 62 62 62 62 62 62 62 61 62 62 62 62 70 88 95 96 80 82 94 97 101 99 96 96 92 96 96 93 95 97 100 99 98 99 96 96 97 103 106 105 102 101 99
61 61 61 61 61 61 61 61 61 61 62 62 62 62 81 90 105 103 100 97 101 102 102 102 99 101 96 94 93 98 96 96 98 97 97 95 96 98 98 104 103 102 101 102 100
60 60 60 61 61 61 61 60 61 63 62 62 62 76 93 93 107 107 105 103 106 105 101 104 105 99 99 94 99 96 91 96 96 97 96 99 92 91 98 102 100 100 100 99 100
60 60 60 60 60 60 60 60 63 64 63 64 64 85 93 105 110 104 107 104 107 108 106 107 105 101 97 100 96 93 95 87 94 96 96 97 85 93 100 100 96 96 97 96 96
60 59 60 60 60 60 59 60 65 65 65 65 79 89 92 91 100 107 108 102 103 105 105 104 103 98 98 91 90 91 86 85 88 95 94 93 88 94 100 98 94 94 95 96 95
59 59 59 59 59 59 58 59 65 64 72 87 93 91 98 96 102 105 108 105 100 100 97 96 96 92 94 92 81 84 85 87 84 92 93 90 89 94 97 97 94 94 93 93 93
59 58 58 59 59 58 67 87 87 87 93 95 97 93 98 104 105 102 106 102 101 96 89 94 89 87 90 91 90 88 85 84 88 92 89 89 88 90 94 96 94 93 93 92 92
58 58 58 58 58 58 72 96 89 91 88 98 96 96 100 103 95 100 107 95 93 88 92 89 86 92 91 91 88 87 85 85 89 91 89 89 87 91 92 92 94 94 93 93 94
58 58 58 58 57 73 96 91 98 97 87 93 98 98 99 101 96 97 102 98 92 89 90 87 90 91 89 88 86 88 84 84 83 89 92 89 85 87 91 93 94 96 96 94 92
58 58 57 55 70 98 95 98 101 98 83 87 92 97 99 101 93 105 105 98 93 89 89 90 92 88 87 85 88 83 88 86 85 83 78 89 75 82 88 89 91 92 94 94 92
58 58 57 54 83 96 95 102 100 95 70 91 94 106 103 95 98 96 106 99 90 89 90 85 87 86 84 85 88 84 89 86 85 83 83 84 79 82 88 84 87 91 91 92 92
57 57 56 79 88 98 101 101 96 79 69 84 93 91 92 95 95 98 96 101 99 90 91 89 94 91 89 89 89 90 87 87 87 85 74 81 81 81 84 85 88 91 90 90 91
56 55 59 84 94 101 100 95 79 74 89 85 87 92 92 90 91 92 89 87 85 78 80 86 87 91 91 85 90 88 84 73 72 73 74 82 77 80 87 88 89 87 89 90 92
54 54 70 90 98 99 96 86 70 83 84 90 89 91 87 91 90 89 88 85 91 87 84 79 74 85 89 85 82 83 80 72 61 68 74 80 72 78 90 91 90 90 91 92 91
53 94 95 99 100 96 88 76 79 84 87 85 88 84 85 87 87 87 86 87 90 90 79 79 78 88 87 88 86 81 76 86 74 78 72 78 81 87 88 87 88 88 90 89 88
71 89 95 100 100 93 83 71 83 88 87 87 80 86 81 85 83 85 85 89 86 89 91 84 74 87 86 88 88 83 87 74 77 62 61 73 74 76 79 83 85 85 86 88 88
74 87 95 103 98 87 78 83 85 89 88 84 83 83 83 83 84 85 84 87 88 88 91 89 81 80 83 80 79 80 79 78 80 75 65 64 73 84 81 83 82 84 86 86 87
83 80 97 100 82 87 83 84 63 86 89 87 86 86 83 84 82 83 81 85 89 90 82 87 82 75 79 86 86 84 79 80 71 67 74 71 71 87 85 85 86 86 85 85 85
77 83 100 95 77 83 86 83 85 84 85 85 83 87 87 82 76 81 83 87 87 87 81 85 78 70 73 82 84 76 80 81 79 76 66 64 70 89 88 87 87 83 83 82 82
75 77 87 88 89 80 81 79 79 84 84 84 84 85 83 80 83 78 80 84 86 86 71 78 78 72 69 73 79 74 77 80 78 69 70 72 73 80 83 82 83 82 81 80 80
80 79 77 79 82 80 80 80 78 78 83 84 81 82 81 76 79 78 83 83 84 71 80 81 70 74 77 78 79 77 76 77 75 76 69 73 73 78 80 80 80 82 80 79 78
72 73 80 78 76 75 66 76 76 80 79 78 78 83 83 77 79 77 82 81 79 83 79 83 70 72 70 76 76 73 76 77 77 77 76 76 74 84 82 83 81 80 79 77 76
77 79 74 68 76 75 77 78 76 80 80 83 80 79 78 80 85 87 88 87 84 79 77 76 72 68 64 74 74 66 74 76 77 79 78 70 76 80 76 76 77 77 78 76 77

GFSSW_sfc_temp_120.txt.gz
Temp
63 63 63 63 63 63 63 63 63 63 64 63 63 63 63 63 63 77 87 94 95 80 81 101 100 103 104 100 103 104 87 84 89 88 91 100 96 103 106 102 103 103 100 98 98
63 63 63 63 63 63 63 63 63 63 63 63 63 63 63 63 76 86 92 83 80 80 95 98 97 101 97 99 101 96 88 89 97 96 94 98 98 99 99 99 99 99 100 99 98
62 62 62 62 63 63 62 62 62 62 63 63 63 63 63 66 81 96 82 81 79 83 101 105 104 101 95 100 99 97 89 96 97 98 99 97 97 102 98 94 98 97 95 96 96
61 62 62 62 62 62 62 62 62 62 62 63 63 63 63 76 83 97 82 80 79 96 98 101 100 94 92 93 101 91 97 98 99 100 98 96 100 97 98 97 104 104 101 98 95
61 61 61 62 62 62 62 62 62 62 62 62 63 63 69 82 93 96 81 82 95 95 96 98 95 96 90 96 98 93 96 98 100 100 98 100 96 96 96 103 105 105 103 97 97
61 61 61 61 61 61 61 61 61 62 63 63 63 63 79 84 104 97 99 96 100 98 99 101 99 101 96 95 94 98 96 97 98 98 98 96 96 97 98 103 102 101 101 100 98
60 60 60 60 61 61 61 60 61 65 63 63 63 74 88 95 109 107 103 101 105 103 100 105 105 99 99 94 101 97 90 95 97 98 96 99 91 91 99 102 99 99 99 100 99
60 60 60 60 60 60 60 60 61 66 64 64 64 80 91 108 111 106 107 105 108 108 106 108 107 100 97 100 97 92 93 86 94 96 97 95 83 94 101 98 95 96 97 97 98
59 59 59 59 60 59 59 59 64 66 66 65 74 85 92 96 101 107 109 103 105 106 106 107 102 96 97 90 87 91 84 87 88 96 95 93 85 94 100 97 92 93 94 96 94
59 59 59 59 59 59 58 59 66 66 71 83 90 87 98 95 104 106 109 107 101 101 98 96 95 89 91 88 78 83 85 87 85 92 93 91 89 93 97 96 92 92 92 92 92
58 58 58 59 59 58 68 88 85 83 90 93 95 96 99 106 108 103 107 103 102 97 87 93 87 84 90 92 91 88 86 84 90 94 88 88 89 91 94 96 92 91 90 89 90
58 58 58 58 58 58 67 94 92 95 85 99 101 101 104 105 95 101 107 94 93 86 93 90 84 93 94 92 89 88 85 85 90 93 89 88 87 92 93 93 94 92 91 91 91
57 58 58 57 58 71 98 94 103 101 86 95 100 98 99 102 96 97 101 97 92 89 91 86 90 94 90 89 86 87 85 84 83 89 92 88 84 88 92 93 94 94 93 92 90
57 57 57 54 70 96 97 102 105 101 79 88 92 99 102 101 94 106 105 99 94 89 92 90 94 90 88 87 88 82 89 87 85 82 75 89 72 82 86 87 91 92 93 91 91
56 57 56 56 80 92 98 105 103 98 66 91 94 108 103 95 98 98 107 100 89 91 90 86 88 87 84 87 89 83 90 86 85 81 80 81 77 82 86 83 86 90 91 91 91
56 56 55 75 82 96 105 104 98 77 68 87 95 92 92 95 96 99 98 102 100 92 92 90 96 92 90 92 90 91 86 86 86 82 71 79 79 75 81 84 87 89 90 90 91
55 54 57 79 89 103 103 96 77 71 92 86 88 92 91 89 92 92 89 87 83 77 79 87 88 93 92 85 91 88 82 70 69 70 68 82 79 78 86 90 89 87 89 91 92
54 54 71 87 99 101 97 83 67 84 87 94 92 92 87 91 91 91 88 84 90 88 82 79 76 87 92 86 81 82 80 69 59 64 69 80 72 78 89 91 91 91 91 92 92
53 89 91 97 100 99 87 74 77 85 91 88 90 84 86 91 90 89 87 86 91 91 78 78 78 91 90 91 87 81 75 85 74 75 70 76 80 85 89 88 89 89 89 89 90
66 82 91 105 103 95 81 68 83 92 91 89 79 87 81 86 85 85 85 91 90 92 92 84 74 87 89 89 89 83 87 72 75 61 60 71 73 71 78 82 85 85 86 87 88
71 83 99 105 101 87 75 81 88 95 91 85 83 83 86 85 87 85 85 91 93 90 91 88 82 80 84 80 79 80 77 79 80 75 64 62 69 83 80 82 82 85 87 87 87
77 78 100 102 81 84 80 86 73 89 92 87 88 86 84 86 84 83 83 87 94 93 83 88 82 74 78 89 90 86 80 79 68 66 72 69 70 87 86 86 86 86 84 82 83
71 82 100 96 75 80 87 88 88 86 88 86 85 88 89 84 78 84 86 89 90 87 81 85 77 68 71 81 87 80 81 80 79 76 66 63 67 89 86 87 87 82 82 82 82
71 76 87 90 88 82 80 83 82 89 87 88 86 89 85 81 85 80 83 87 89 87 73 80 77 71 66 71 78 74 78 80 77 68 69 71 73 80 82 82 83 83 83 82 81
74 78 82 76 83 83 83 82 80 80 86 88 82 83 81 76 79 79 83 86 86 73 83 81 69 74 76 79 79 77 77 78 74 75 68 72 73 78 79 79 81 82 81 80 79
72 73 77 76 79 77 71 76 77 82 83 80 78 83 84 77 80 77 83 82 81 82 80 82 69 73 70 76 76 73 77 77 77 77 76 76 74 84 81 81 78 78 78 77 78
76 77 74 69 77 76 76 78 79 83 85 85 84 81 80 80 84 86 90 89 86 81 78 76 72 68 62 73 72 66 74 76 77 79 78 70 77 79 76 76 76 77 78 78 75

GFSSW_sfc_temp_123.txt.gz
Temp
63 63 63 63 63 63 63 63 63 63 63 63 63 63 63 62 62 68 75 87 87 81 81 92 92 92 92 88 93 93 71 72 76 81 81 86 87 96 98 80 87 91 88 89 92
62 62 62 63 63 63 62 62 62 63 63 63 63 63 63 63 69 75 86 82 80 79 91 90 89 91 83 86 87 80 71 79 86 86 84 90 89 91 91 88 87 88 91 92 91
62 62 62 62 63 63 62 62 62 62 62 63 63 63 63 63 71 85 84 81 79 81 93 95 94 92 84 85 87 84 75 85 89 89 90 82 89 92 87 83 84 82 86 89 88
61 61 62 62 62 62 62 62 62 62 62 62 63 63 63 66 73 91 81 80 79 88 91 91 89 82 79 79 89 79 89 90 87 88 88 84 86 88 90 86 92 90 90 89 86
61 61 61 61 61 61 62 61 61 61 62 62 63 63 60 68 81 86 81 81 86 89 89 88 86 84 78 83 88 82 86 89 90 90 87 93 88 88 89 94 95 93 92 88 87
61 61 61 61 61 61 61 61 61 61 63 63 63 63 65 73 95 89 89 86 91 88 89 90 89 91 85 85 82 88 87 88 89 91 91 87 88 89 89 94 95 92 89 89 88
60 60 60 60 61 61 61 60 61 63 64 63 63 68 78 82 96 92 91 88 92 91 89 95 96 86 87 83 91 88 79 84 87 87 85 87 82 83 90 93 90 92 91 91 88
59 59 60 60 60 60 60 59 61 65 64 64 64 69 71 98 97 99 94 92 96 94 94 97 96 88 84 89 86 81 75 66 84 88 87 85 69 86 90 88 85 90 91 89 86
59 59 59 59 59 59 59 59 61 67 66 65 62 65 77 93 95 97 97 95 96 96 95 104 92 81 84 75 70 72 67 72 78 88 86 82 74 86 88 87 83 83 85 87 86
58 58 58 59 59 59 59 60 64 64 66 75 81 72 85 89 95 99 99 100 95 93 90 87 80 73 73 66 59 67 71 76 75 82 83 78 77 84 86 85 82 82 82 83 84
58 58 58 58 59 58 59 71 70 68 76 76 80 84 93 98 101 96 99 96 94 86 75 82 69 66 74 78 79 79 76 75 81 86 79 75 77 81 84 83 81 79 79 79 80
57 57 57 57 57 58 56 71 79 82 73 89 91 92 99 99 90 95 99 85 84 75 81 74 69 81 87 86 81 79 74 73 79 85 78 75 75 80 83 81 82 81 80 80 79
57 57 57 56 57 63 77 82 93 88 71 85 93 91 90 91 90 90 92 88 82 77 79 72 79 91 88 82 80 73 69 72 72 80 77 74 71 74 80 83 84 83 82 81 79
57 57 56 54 67 80 82 91 93 89 62 79 84 90 94 92 85 100 97 91 84 79 82 78 87 87 82 82 78 65 82 81 78 70 59 72 56 65 74 76 79 79 79 79 78
56 56 55 54 62 75 87 93 91 83 53 85 86 100 93 86 89 91 99 90 81 82 76 75 80 80 79 81 83 72 81 77 76 67 61 68 58 60 74 70 76 78 80 79 79
56 56 55 65 66 77 87 93 84 62 57 82 89 84 82 86 89 93 90 92 90 83 82 81 88 83 80 87 84 84 77 73 70 64 53 67 64 60 67 73 74 78 81 81 79
55 54 54 68 72 88 88 82 61 57 85 79 79 83 80 80 84 86 82 76 70 61 64 77 81 84 88 76 81 77 62 52 51 51 52 66 65 64 74 79 79 77 78 80 80
54 53 60 70 78 85 81 67 55 75 80 88 85 83 77 82 82 84 79 72 79 75 67 63 63 79 85 76 68 68 61 52 44 48 54 70 59 66 78 80 80 81 79 81 78
53 70 75 81 81 83 70 58 64 75 85 84 83 74 75 83 82 81 77 76 80 79 65 63 66 84 86 85 78 68 60 66 56 55 53 59 67 73 78 76 78 78 79 77 77
54 66 75 91 92 81 65 58 70 82 86 84 72 77 70 77 75 75 74 81 83 84 79 66 59 74 84 84 79 70 73 57 56 45 45 56 61 58 66 69 74 75 75 74 76
58 68 86 95 89 71 60 66 78 88 88 79 75 73 75 75 76 72 75 83 86 83 81 69 64 67 76 68 68 66 61 62 60 56 47 46 54 65 67 70 72 73 71 71 72
63 63 88 91 68 68 65 74 73 84 86 79 78 77 74 76 72 74 75 78 86 83 74 70 65 56 66 77 82 72 68 63 52 51 52 52 54 76 73 74 72 70 72 71 73
55 66 85 85 61 66 74 79 84 83 81 78 77 80 80 72 65 75 79 84 86 76 65 68 59 52 59 66 72 68 70 65 63 57 51 48 52 74 74 72 71 70 70 71 72
57 61 72 74 74 69 68 72 75 86 81 83 77 79 74 70 72 69 75 83 82 78 72 73 61 57 51 56 65 64 71 70 63 52 53 55 58 66 67 68 68 68 69 70 71
61 64 68 63 68 69 70 72 73 74 81 78 71 75 72 63 67 68 75 76 79 72 73 68 56 56 61 69 71 69 69 70 61 60 54 59 59 60 63 65 67 69 70 71 70
59 61 65 63 67 68 67 68 72 76 74 74 71 78 74 63 66 64 68 67 68 67 66 67 56 55 57 69 69 67 70 70 70 69 66 65 61 66 68 69 68 69 70 69 66
64 66 62 60 65 65 67 70 74 77 78 81 78 73 69 71 74 73 74 73 68 66 64 62 58 54 48 63 63 55 63 67 68 70 66 56 60 66 65 67 65 65 67 65 66